[[{"header":{"parameterUnit":"m.s-1","parameterCategory":1,"la1":30.6,"la2":29.2853,"lo1":-89.7004,"lo2":-87.6739,"dy":0.0162,"dx":0.0183,"nx":112,"ny":82,"refTime":"2024-04-19T00:00:00:Z","depth":0,"parameterNumber":2,"parameterNumberName":"U-component_of_WINDS"},"data":[0.0,0.0,0.0,0.0,0.0,0.0,0.0,0.0,0.0,0.0,0.0,0.0,0.0,0.0,0.0,0.0,0.0,0.0,0.0,0.0,0.0,0.0,0.0,0.0,0.0,0.0,0.0,0.0,0.0,0.0,0.0,0.0,0.0,0.0,0.0,0.0,0.0,0.0,0.0,0.0,0.0,0.0,0.0,0.0,0.0,0.0,0.0,0.0,0.0,0.0,0.0,0.0,0.0,0.0,0.0,0.0,0.0,0.0,0.0,0.0,0.0,0.0,0.0,0.0,0.0,0.0,0.0,0.0,0.0,0.0,0.0,0.0,0.0,0.0,0.0,0.0,0.0,0.0,0.0,0.0,0.0,0.0,0.0,0.0,0.0,0.0,0.0,0.0,0.0,0.0,5.7255,5.7382,5.6631,5.5187,5.2893,5.2523,5.1375,4.8956,0.0,0.0,0.0,0.0,0.0,0.0,0.0,0.0,0.0,0.0,0.0,0.0,0.0,0.0,0.0,0.0,0.0,0.0,0.0,0.0,0.0,0.0,0.0,0.0,0.0,0.0,0.0,0.0,0.0,0.0,0.0,0.0,0.0,0.0,0.0,0.0,0.0,0.0,0.0,0.0,0.0,0.0,0.0,0.0,0.0,0.0,0.0,0.0,0.0,0.0,0.0,0.0,0.0,0.0,0.0,0.0,0.0,0.0,0.0,0.0,0.0,0.0,0.0,0.0,0.0,0.0,0.0,0.0,0.0,0.0,0.0,0.0,0.0,0.0,0.0,0.0,0.0,0.0,0.0,0.0,0.0,0.0,0.0,0.0,0.0,0.0,0.0,0.0,0.0,0.0,0.0,0.0,0.0,0.0,0.0,0.0,0.0,0.0,0.0,0.0,0.0,0.0,0.0,0.0,5.4845,5.5519,5.4875,5.3913,5.281,5.2005,5.0784,4.8919,0.0,0.0,0.0,0.0,0.0,0.0,0.0,0.0,0.0,0.0,0.0,0.0,0.0,0.0,0.0,0.0,0.0,0.0,0.0,0.0,0.0,0.0,0.0,0.0,0.0,0.0,0.0,0.0,0.0,0.0,0.0,0.0,0.0,0.0,0.0,0.0,0.0,0.0,0.0,0.0,0.0,0.0,0.0,0.0,0.0,0.0,0.0,0.0,0.0,0.0,0.0,0.0,0.0,0.0,0.0,0.0,0.0,0.0,0.0,0.0,0.0,0.0,0.0,0.0,0.0,0.0,0.0,0.0,0.0,0.0,0.0,0.0,0.0,0.0,0.0,0.0,0.0,0.0,0.0,0.0,0.0,0.0,0.0,0.0,0.0,0.0,0.0,0.0,0.0,0.0,0.0,0.0,0.0,0.0,0.0,0.0,0.0,0.0,0.0,0.0,0.0,0.0,0.0,5.4694,5.4786,5.5159,5.4443,5.339,5.2071,5.159,5.0602,4.8865,4.7918,0.0,0.0,0.0,0.0,0.0,0.0,0.0,0.0,0.0,0.0,0.0,0.0,0.0,0.0,0.0,0.0,0.0,0.0,0.0,0.0,0.0,0.0,0.0,0.0,0.0,0.0,0.0,0.0,0.0,0.0,0.0,0.0,0.0,0.0,0.0,0.0,0.0,0.0,0.0,0.0,0.0,0.0,0.0,0.0,0.0,0.0,0.0,0.0,0.0,0.0,0.0,0.0,0.0,0.0,0.0,0.0,0.0,0.0,0.0,0.0,0.0,0.0,0.0,0.0,0.0,0.0,0.0,0.0,0.0,0.0,0.0,0.0,0.0,0.0,0.0,0.0,0.0,0.0,0.0,0.0,0.0,0.0,0.0,0.0,0.0,0.0,0.0,0.0,0.0,0.0,0.0,0.0,0.0,0.0,0.0,0.0,0.0,0.0,0.0,0.0,0.0,0.0,5.5373,5.5035,5.4624,5.3988,5.2981,5.142,5.1106,5.0349,4.8794,4.768,0.0,0.0,0.0,0.0,0.0,0.0,0.0,0.0,0.0,0.0,0.0,0.0,0.0,0.0,0.0,0.0,0.0,0.0,0.0,0.0,0.0,0.0,0.0,0.0,0.0,0.0,0.0,0.0,0.0,0.0,0.0,0.0,0.0,0.0,0.0,0.0,0.0,0.0,0.0,0.0,0.0,0.0,0.0,0.0,0.0,0.0,0.0,0.0,0.0,0.0,0.0,0.0,0.0,0.0,0.0,0.0,0.0,0.0,0.0,0.0,0.0,0.0,0.0,0.0,0.0,0.0,0.0,0.0,0.0,0.0,0.0,0.0,0.0,0.0,0.0,0.0,0.0,0.0,0.0,0.0,0.0,0.0,0.0,0.0,0.0,0.0,0.0,0.0,0.0,0.0,0.0,0.0,0.0,0.0,0.0,0.0,0.0,0.0,0.0,0.0,0.0,0.0,5.4261,5.4587,5.2948,5.2719,5.2302,5.1378,5.0566,4.9692,4.8755,4.7115,0.0,0.0,0.0,0.0,0.0,0.0,0.0,0.0,0.0,0.0,0.0,0.0,0.0,0.0,0.0,0.0,0.0,0.0,0.0,0.0,0.0,0.0,0.0,0.0,0.0,0.0,0.0,0.0,0.0,0.0,0.0,0.0,0.0,0.0,0.0,0.0,0.0,0.0,0.0,0.0,0.0,0.0,0.0,0.0,0.0,0.0,0.0,0.0,0.0,0.0,0.0,0.0,0.0,0.0,0.0,0.0,0.0,0.0,0.0,0.0,0.0,0.0,0.0,0.0,0.0,0.0,0.0,0.0,0.0,0.0,0.0,0.0,0.0,0.0,0.0,0.0,0.0,0.0,0.0,0.0,0.0,0.0,0.0,0.0,0.0,0.0,0.0,0.0,0.0,0.0,0.0,0.0,0.0,0.0,0.0,0.0,0.0,0.0,0.0,0.0,0.0,0.0,5.3669,5.3935,0.0,5.3046,5.2552,5.0578,5.1123,5.05,4.798,0.0,0.0,0.0,0.0,0.0,0.0,0.0,0.0,0.0,0.0,0.0,0.0,0.0,0.0,0.0,0.0,0.0,0.0,0.0,0.0,0.0,0.0,0.0,0.0,0.0,0.0,0.0,0.0,0.0,0.0,0.0,0.0,0.0,0.0,0.0,0.0,0.0,0.0,0.0,0.0,0.0,0.0,0.0,0.0,0.0,0.0,0.0,0.0,0.0,0.0,0.0,0.0,0.0,0.0,0.0,0.0,0.0,0.0,0.0,0.0,0.0,0.0,0.0,0.0,0.0,0.0,0.0,0.0,0.0,0.0,0.0,0.0,0.0,0.0,0.0,0.0,0.0,0.0,0.0,0.0,0.0,0.0,0.0,0.0,0.0,0.0,0.0,0.0,0.0,0.0,0.0,0.0,0.0,0.0,0.0,0.0,0.0,0.0,0.0,0.0,0.0,0.0,5.2154,5.3198,5.3455,0.0,5.2903,5.2543,5.049,5.1372,5.0709,4.7531,0.0,0.0,0.0,0.0,0.0,0.0,0.0,0.0,0.0,0.0,0.0,0.0,0.0,0.0,0.0,0.0,0.0,0.0,0.0,0.0,0.0,0.0,0.0,0.0,0.0,0.0,0.0,0.0,0.0,0.0,0.0,0.0,0.0,0.0,0.0,0.0,0.0,0.0,0.0,0.0,0.0,0.0,0.0,0.0,0.0,0.0,0.0,0.0,0.0,0.0,0.0,0.0,0.0,0.0,0.0,0.0,0.0,0.0,0.0,0.0,0.0,0.0,0.0,0.0,0.0,0.0,0.0,0.0,0.0,0.0,0.0,0.0,0.0,0.0,0.0,0.0,0.0,0.0,0.0,0.0,0.0,0.0,0.0,0.0,0.0,0.0,0.0,0.0,0.0,0.0,0.0,0.0,0.0,0.0,0.0,0.0,0.0,0.0,0.0,0.0,0.0,0.0,5.1412,5.2823,5.3241,5.149,5.2028,5.2144,5.1269,5.1156,5.0064,0.0,0.0,0.0,0.0,0.0,0.0,0.0,0.0,0.0,0.0,0.0,0.0,0.0,0.0,0.0,0.0,0.0,0.0,0.0,0.0,0.0,0.0,0.0,0.0,0.0,0.0,0.0,0.0,0.0,0.0,0.0,0.0,0.0,0.0,0.0,0.0,0.0,0.0,0.0,0.0,0.0,0.0,0.0,0.0,0.0,0.0,0.0,0.0,0.0,0.0,0.0,0.0,0.0,0.0,0.0,0.0,0.0,0.0,0.0,0.0,0.0,0.0,0.0,0.0,0.0,0.0,0.0,0.0,0.0,0.0,0.0,0.0,0.0,0.0,0.0,0.0,0.0,0.0,0.0,0.0,0.0,0.0,0.0,0.0,0.0,0.0,0.0,0.0,0.0,0.0,0.0,0.0,0.0,0.0,0.0,0.0,0.0,0.0,0.0,0.0,0.0,0.0,0.0,5.1337,5.2748,5.3157,5.1415,5.2543,5.255,5.0406,5.1877,5.1056,4.6608,0.0,0.0,0.0,0.0,0.0,0.0,0.0,0.0,0.0,0.0,0.0,0.0,0.0,0.0,0.0,0.0,0.0,0.0,0.0,0.0,0.0,0.0,0.0,0.0,0.0,0.0,0.0,0.0,0.0,0.0,0.0,0.0,0.0,0.0,0.0,0.0,0.0,0.0,0.0,0.0,0.0,0.0,0.0,0.0,0.0,0.0,0.0,0.0,0.0,0.0,0.0,0.0,0.0,0.0,0.0,0.0,0.0,0.0,0.0,0.0,0.0,0.0,0.0,0.0,0.0,0.0,0.0,0.0,0.0,0.0,0.0,0.0,0.0,0.0,0.0,0.0,0.0,0.0,0.0,0.0,0.0,0.0,0.0,0.0,0.0,0.0,0.0,0.0,0.0,0.0,0.0,0.0,0.0,0.0,0.0,0.0,0.0,0.0,0.0,0.0,0.0,0.0,5.12,5.2396,5.2746,5.1316,5.2433,5.2488,5.0487,5.1742,5.0707,4.6171,0.0,0.0,0.0,0.0,0.0,0.0,0.0,0.0,0.0,0.0,0.0,0.0,0.0,0.0,0.0,0.0,0.0,0.0,0.0,0.0,0.0,0.0,0.0,0.0,0.0,0.0,0.0,0.0,0.0,0.0,0.0,0.0,0.0,0.0,0.0,0.0,0.0,0.0,0.0,0.0,0.0,0.0,0.0,0.0,0.0,0.0,0.0,0.0,0.0,0.0,0.0,0.0,0.0,0.0,0.0,0.0,0.0,0.0,0.0,0.0,0.0,0.0,0.0,0.0,0.0,0.0,0.0,0.0,0.0,0.0,0.0,0.0,0.0,0.0,0.0,0.0,0.0,0.0,0.0,0.0,0.0,0.0,0.0,0.0,0.0,0.0,0.0,0.0,0.0,0.0,0.0,0.0,0.0,0.0,0.0,0.0,0.0,0.0,0.0,0.0,0.0,0.0,5.1105,5.1905,5.2072,5.1299,5.1983,5.2108,5.1173,5.1106,4.9644,4.621,0.0,0.0,0.0,0.0,0.0,0.0,0.0,0.0,0.0,0.0,0.0,0.0,0.0,0.0,0.0,0.0,0.0,0.0,0.0,0.0,0.0,0.0,0.0,0.0,0.0,0.0,0.0,0.0,0.0,0.0,0.0,0.0,0.0,0.0,0.0,0.0,0.0,0.0,0.0,0.0,0.0,0.0,0.0,0.0,0.0,0.0,0.0,0.0,0.0,0.0,0.0,0.0,0.0,0.0,0.0,0.0,0.0,0.0,0.0,0.0,5.3218,0.0,0.0,0.0,0.0,0.0,0.0,0.0,0.0,0.0,0.0,0.0,0.0,0.0,0.0,0.0,0.0,0.0,0.0,0.0,0.0,0.0,0.0,0.0,0.0,0.0,0.0,0.0,0.0,0.0,0.0,0.0,0.0,0.0,0.0,0.0,0.0,0.0,0.0,0.0,0.0,0.0,5.1843,5.1727,5.1641,5.2076,5.2285,5.2033,5.1092,5.159,5.0445,4.6896,4.6497,0.0,0.0,0.0,0.0,0.0,0.0,0.0,0.0,0.0,0.0,0.0,0.0,0.0,0.0,0.0,0.0,0.0,0.0,0.0,0.0,0.0,0.0,0.0,0.0,0.0,0.0,0.0,0.0,0.0,0.0,0.0,0.0,0.0,0.0,0.0,0.0,0.0,0.0,0.0,0.0,0.0,0.0,0.0,0.0,0.0,0.0,0.0,0.0,0.0,0.0,0.0,0.0,0.0,0.0,0.0,0.0,0.0,0.0,0.0,0.0,5.3748,0.0,0.0,0.0,0.0,0.0,0.0,0.0,0.0,0.0,0.0,0.0,0.0,0.0,0.0,0.0,0.0,0.0,0.0,0.0,0.0,0.0,0.0,0.0,0.0,0.0,0.0,0.0,0.0,0.0,0.0,0.0,0.0,0.0,0.0,0.0,0.0,0.0,0.0,0.0,0.0,5.1391,5.1327,5.1263,5.167,5.1735,5.1532,5.1044,5.0929,4.9782,4.7114,4.6121,0.0,0.0,0.0,0.0,0.0,0.0,0.0,0.0,0.0,0.0,0.0,0.0,0.0,0.0,0.0,0.0,0.0,0.0,0.0,0.0,0.0,0.0,0.0,0.0,0.0,0.0,0.0,0.0,0.0,0.0,0.0,0.0,0.0,0.0,0.0,0.0,0.0,0.0,0.0,0.0,0.0,0.0,0.0,0.0,0.0,0.0,0.0,0.0,0.0,0.0,0.0,0.0,0.0,5.7741,5.7806,5.7178,5.7927,5.824,5.8128,5.582,5.5132,5.56,5.4786,0.0,0.0,0.0,0.0,0.0,0.0,0.0,0.0,0.0,0.0,0.0,0.0,0.0,0.0,0.0,0.0,0.0,0.0,0.0,0.0,0.0,0.0,0.0,0.0,5.2214,5.2266,0.0,0.0,0.0,0.0,0.0,0.0,0.0,0.0,0.0,0.0,0.0,0.0,5.0906,5.0932,5.0889,5.1165,5.1068,5.0971,5.0975,5.0204,4.8981,4.7287,4.576,4.4057,0.0,0.0,0.0,0.0,0.0,0.0,0.0,0.0,0.0,0.0,0.0,0.0,0.0,0.0,0.0,0.0,0.0,0.0,0.0,0.0,0.0,0.0,0.0,0.0,0.0,0.0,0.0,0.0,0.0,0.0,0.0,0.0,5.0786,5.1823,0.0,0.0,0.0,0.0,0.0,0.0,0.0,0.0,0.0,0.0,0.0,0.0,0.0,5.608,5.8359,5.7808,5.7917,5.8665,5.954,5.9907,5.979,5.9983,6.006,6.0001,5.8885,0.0,5.7382,5.6582,0.0,0.0,0.0,0.0,0.0,0.0,0.0,0.0,0.0,0.0,0.0,0.0,0.0,0.0,0.0,0.0,0.0,0.0,0.0,0.0,0.0,0.0,5.346,5.4219,5.3901,5.3567,0.0,5.2268,5.0405,4.9475,4.927,0.0,0.0,0.0,0.0,0.0,0.0,0.0,5.1784,5.0811,5.0429,5.1889,5.1351,5.0874,5.0827,5.0659,4.9778,4.7991,4.7625,4.6318,4.3706,4.2707,0.0,0.0,0.0,0.0,0.0,0.0,0.0,0.0,0.0,0.0,0.0,0.0,0.0,0.0,0.0,0.0,0.0,0.0,0.0,0.0,0.0,0.0,0.0,0.0,0.0,0.0,0.0,0.0,0.0,5.0666,5.2046,5.2989,5.3416,5.3676,0.0,0.0,0.0,0.0,0.0,0.0,0.0,0.0,0.0,5.7714,5.7862,5.8468,5.9619,5.9806,6.0088,6.0476,6.0851,6.1042,6.1075,6.06,6.0397,6.0344,5.9475,5.8879,5.8515,5.8191,5.7555,5.6671,0.0,0.0,0.0,0.0,5.3172,5.2695,5.1856,5.1531,0.0,5.0322,0.0,0.0,0.0,0.0,0.0,0.0,0.0,0.0,0.0,0.0,5.456,5.5433,5.4953,5.4521,5.526,5.4179,5.2672,0.0,5.0999,5.0574,4.9211,0.0,0.0,0.0,0.0,5.0287,5.1925,5.1498,5.1131,5.1329,5.0985,5.0718,5.0682,5.0625,4.9835,4.8105,4.7468,4.6158,4.3885,4.2898,4.1945,0.0,0.0,0.0,0.0,0.0,0.0,0.0,0.0,0.0,0.0,0.0,0.0,0.0,0.0,0.0,0.0,0.0,0.0,0.0,0.0,0.0,0.0,0.0,0.0,0.0,0.0,0.0,0.0,5.2244,5.3281,5.4245,5.4549,5.4679,0.0,0.0,0.0,0.0,0.0,0.0,5.8822,5.8278,5.8328,5.9207,6.0086,6.0564,6.0565,6.148,6.1829,6.1592,6.1615,6.1648,6.1679,6.1022,6.0734,6.0705,6.0041,5.9765,5.9739,5.9351,5.8687,5.7843,5.7198,5.6259,5.5192,5.4543,5.4131,5.3806,5.3201,5.2809,5.2435,5.157,0.0,5.2067,5.1171,0.0,0.0,0.0,0.0,5.4458,5.5079,5.5045,5.5089,5.5971,5.5505,5.5087,5.5824,5.5477,5.4589,0.0,5.2564,5.2005,5.0718,0.0,0.0,0.0,0.0,5.1316,5.1915,5.2241,5.203,5.1068,5.0952,5.0856,5.0586,5.0523,4.9848,4.8354,4.7369,4.6091,4.4402,4.3242,4.2259,4.1454,0.0,0.0,0.0,0.0,0.0,0.0,0.0,0.0,0.0,0.0,0.0,0.0,0.0,0.0,0.0,0.0,0.0,0.0,0.0,0.0,0.0,0.0,0.0,0.0,0.0,0.0,0.0,0.0,0.0,5.5966,5.6805,0.0,0.0,0.0,0.0,5.8771,5.8768,5.8818,5.8896,5.8857,5.9227,6.0102,6.1042,6.1529,6.1529,6.2391,6.2414,6.1595,6.1654,6.1699,6.1699,6.1652,6.1622,6.1622,6.1583,6.1567,6.1445,5.9862,5.8682,5.7903,5.7843,5.6754,5.5201,5.5165,5.4617,5.3883,5.3779,5.3194,5.2744,5.4261,5.4781,5.4653,5.3855,5.4202,0.0,0.0,5.5356,5.6005,5.6102,5.5471,5.5013,5.5904,5.5439,5.5017,5.5824,5.5977,5.5648,0.0,5.3802,5.3223,5.3204,0.0,5.0951,5.1892,5.1915,5.1876,5.1992,5.2724,5.2858,5.1853,5.1797,5.147,5.0579,5.05,5.0054,4.9025,4.8204,4.7251,4.6133,4.4429,4.3435,4.3163,4.0667,0.0,0.0,0.0,0.0,0.0,0.0,0.0,0.0,0.0,0.0,0.0,0.0,0.0,0.0,0.0,0.0,0.0,0.0,0.0,0.0,0.0,0.0,0.0,0.0,0.0,0.0,0.0,0.0,5.6989,5.7372,0.0,5.8389,5.8207,5.853,5.9643,5.9227,5.9394,6.0505,6.0077,6.0204,6.1081,6.1976,6.2196,6.1673,6.2525,6.2538,6.1666,6.1691,6.1691,6.1671,6.111,6.0858,6.0834,6.0268,6.035,6.082,6.0212,5.9799,5.95,5.9514,5.8426,5.6868,5.6866,5.6297,5.5422,5.4792,5.3991,5.3355,5.3965,5.4548,5.5034,5.5274,5.5942,5.6479,5.585,5.6285,5.6827,5.6335,5.5951,5.5777,5.6106,5.5505,5.5068,5.5857,5.5589,5.5279,5.5474,5.5246,5.4669,5.3531,5.28,5.2666,5.3513,5.3127,5.2913,5.347,5.3816,5.3428,5.1919,5.1765,5.1354,5.0331,5.0255,4.9801,4.8821,4.7954,4.7043,4.6036,4.4783,4.3774,4.3062,4.151,4.0518,0.0,0.0,0.0,0.0,0.0,0.0,0.0,0.0,0.0,0.0,0.0,0.0,0.0,0.0,0.0,0.0,0.0,0.0,0.0,0.0,0.0,0.0,0.0,0.0,0.0,0.0,5.6733,5.708,5.7936,5.859,5.8868,5.8912,5.9382,6.0553,6.0116,6.0321,6.1461,6.1305,6.1441,6.2013,6.316,6.3377,6.2557,6.3149,6.2998,6.2149,6.1837,6.1701,6.1681,6.1095,6.0845,6.082,6.0543,6.0581,6.0852,6.1159,6.1095,6.0815,6.0509,5.932,5.7772,5.7749,5.7147,5.6232,5.5291,5.4781,5.4536,5.4531,5.5126,5.5981,5.6795,5.7247,5.7334,5.6714,5.6737,5.6834,5.6304,5.6184,5.6276,5.6517,5.5901,5.5478,5.6227,5.5764,5.5244,5.5513,5.5322,5.4919,5.4303,5.3417,5.3205,5.4297,5.3968,5.3752,5.4306,5.4591,5.4204,5.2713,5.2513,5.1964,5.0666,5.0767,5.0366,4.9086,4.8426,4.7645,4.6704,4.5472,4.4576,4.4116,4.286,4.1498,4.0123,0.0,0.0,0.0,0.0,0.0,0.0,0.0,0.0,0.0,0.0,0.0,0.0,0.0,0.0,0.0,0.0,0.0,0.0,0.0,0.0,0.0,0.0,0.0,5.48,5.63,5.7106,5.6373,5.8577,5.984,5.9055,6.0483,6.147,6.1489,6.1559,6.1607,6.1646,6.2433,6.291,6.2937,6.4613,6.5075,6.4216,6.4292,6.3906,6.3028,6.2189,6.1779,6.1779,6.1759,6.1743,6.1797,6.2635,6.2515,6.1774,6.2635,6.2473,6.1621,6.0737,5.9313,5.7736,5.7624,5.7053,5.6162,5.5206,5.5458,5.6199,5.6199,5.68,5.7654,5.8455,5.8137,5.7492,5.7453,5.6834,5.6175,5.6175,5.6188,5.6381,5.7132,5.665,5.6227,5.6984,5.6502,5.5673,5.488,5.4048,5.3953,5.5576,5.3667,5.2488,5.4175,5.4338,0.0,5.433,5.5001,5.5174,5.4279,5.4148,5.3404,5.1599,5.2102,5.1764,4.9939,4.9683,4.9171,4.8232,4.6529,4.5873,4.6401,4.4441,4.2481,4.0474,0.0,0.0,0.0,0.0,0.0,0.0,0.0,0.0,0.0,0.0,0.0,0.0,0.0,0.0,0.0,0.0,0.0,0.0,0.0,0.0,0.0,5.4594,5.5552,5.4943,5.6384,5.7615,5.8046,5.8785,5.9658,6.0694,6.0689,6.0896,6.152,6.1578,6.1888,6.2511,6.277,6.3194,6.3813,6.4912,6.51,6.4272,6.4921,6.4804,6.3945,6.3691,6.3594,6.3555,6.2939,6.2636,6.267,6.2891,6.2518,6.1763,6.259,6.2419,6.1541,6.0668,5.9609,5.8481,5.7803,5.6945,5.6029,5.5141,5.5428,5.6194,5.6145,5.6786,5.7702,5.8459,5.8971,5.9152,5.8535,5.8134,5.7923,5.797,5.706,5.6346,5.7176,5.6698,5.6106,5.6288,5.6135,5.5885,5.5557,5.4766,5.4264,5.4725,5.3642,5.3267,5.4952,5.459,0.0,5.4956,5.5174,5.495,5.407,5.4428,5.4021,5.221,5.2719,5.2402,5.0572,4.9784,4.8977,4.8028,4.6874,4.5611,4.4209,4.2975,4.1651,0.0,0.0,0.0,0.0,0.0,0.0,0.0,0.0,0.0,0.0,0.0,0.0,0.0,0.0,0.0,0.0,0.0,0.0,0.0,0.0,0.0,0.0,5.5226,5.6106,5.5996,5.7174,5.8109,5.8286,5.9296,6.0246,6.0931,6.0905,6.1052,6.1558,6.1946,6.2372,6.2867,6.3584,6.4223,6.4723,6.5588,6.5833,6.5384,6.552,6.5345,6.4837,6.4477,6.4115,6.3738,6.3222,6.28,6.2471,6.2836,6.2486,6.1726,6.2555,6.216,0.0,0.0,0.0,0.0,0.0,5.6552,5.599,5.5484,5.5924,5.675,5.7066,5.7792,5.8711,5.9498,5.9852,5.9794,5.8944,5.8405,5.802,5.7699,5.685,5.6311,5.716,5.6684,5.6112,5.6444,5.6155,5.5846,5.5826,5.5011,0.0,5.4767,5.4043,5.3896,5.5173,5.4906,5.4721,5.5172,5.5527,5.5404,5.4504,5.5038,5.4731,5.2915,5.3447,0.0,0.0,0.0,4.9515,4.7754,4.7398,0.0,0.0,0.0,4.2226,4.1166,0.0,0.0,0.0,4.1304,4.1205,0.0,0.0,0.0,0.0,0.0,0.0,0.0,0.0,0.0,0.0,0.0,0.0,0.0,0.0,0.0,0.0,5.5587,5.6505,5.7383,5.827,5.8589,5.7974,5.9955,6.1106,6.0496,6.115,6.1636,6.174,6.2469,6.2984,6.3175,0.0,0.0,0.0,0.0,6.6848,6.6906,6.6127,6.5756,6.5734,6.4864,6.4033,6.3281,6.3084,6.2563,6.1882,6.2642,6.246,6.1646,6.2422,6.1655,5.9991,5.9921,5.9351,5.8377,5.6707,5.6051,5.6036,5.6111,0.0,0.0,5.8465,5.9295,6.0067,6.0939,6.067,5.9879,5.9043,5.8209,5.7379,5.6698,5.6311,5.6314,5.723,5.6656,5.6117,5.6869,5.6345,5.5724,5.5766,5.5042,5.4637,5.5293,5.4664,5.4346,5.5069,5.5183,5.5149,5.5094,5.5883,5.6111,5.5161,0.0,0.0,5.3673,5.4148,5.3733,5.1719,5.1476,5.0222,4.7644,4.8015,4.7071,4.4465,4.4219,4.3584,4.2548,4.2299,4.2072,4.1877,4.1771,4.1243,0.0,0.0,0.0,0.0,0.0,0.0,0.0,0.0,0.0,0.0,0.0,0.0,0.0,0.0,0.0,5.4785,5.5587,5.6505,5.7383,5.8292,5.907,5.9626,6.0149,6.0659,6.1217,6.1471,6.1888,6.2598,6.2843,6.3566,6.4925,6.5379,6.5892,6.6614,6.6795,6.6895,6.6894,6.673,6.6647,6.6637,0.0,0.0,6.5051,6.3633,6.2877,6.268,6.2784,6.2337,6.1529,6.1632,6.0261,5.804,5.804,5.746,5.6591,5.6162,5.6012,5.6111,5.6875,5.726,5.7666,5.921,5.9847,6.0137,6.1009,6.1131,0.0,5.9913,5.9043,5.8486,5.9024,5.7594,5.6399,5.7985,5.7135,5.598,5.5978,5.5882,5.5745,5.5573,5.5346,5.5216,5.5389,5.4639,5.4268,5.5007,5.5066,5.5009,5.5028,5.573,5.5898,5.4955,5.6026,5.6101,5.4364,5.4774,5.4144,5.1756,5.0187,4.9063,4.8384,4.8289,4.7481,4.5915,4.5078,4.4085,4.2977,4.2036,4.1876,4.2433,4.258,4.2339,0.0,0.0,0.0,0.0,0.0,0.0,0.0,0.0,0.0,0.0,0.0,5.2781,5.3262,0.0,5.5374,5.5475,5.6257,5.7169,5.8078,5.8992,5.9717,6.0157,6.06,6.1022,6.151,6.1586,6.1982,6.2882,6.3351,6.4177,6.5471,6.6004,6.6457,6.6893,6.6895,6.6893,6.6904,6.6907,6.6873,6.6834,6.5975,6.5312,6.4858,6.354,6.268,6.2255,6.2172,6.1909,6.1417,6.0456,5.8998,5.735,5.6889,5.643,5.6065,5.6012,5.6246,5.6654,5.717,5.7633,5.8213,5.9525,5.9951,6.0029,6.047,6.0571,6.0284,5.9022,5.862,5.8488,5.8062,5.7253,5.6675,5.7139,5.6522,5.5827,5.5705,5.5703,5.5662,5.5527,5.5456,5.5517,5.5932,5.5198,5.4691,5.5037,5.5418,5.5445,5.4871,5.597,5.6261,5.4786,5.6387,5.6678,5.449,5.4783,5.4037,5.1563,5.1176,5.0227,4.8456,4.809,4.7384,4.6151,4.5086,4.4192,4.3615,4.2754,4.2345,4.2427,4.2728,4.2597,0.0,0.0,0.0,0.0,0.0,0.0,0.0,4.9067,4.9985,5.0823,5.2355,5.3783,5.4477,5.5379,5.6104,5.6378,5.7038,5.789,5.9004,5.9775,6.0285,6.0425,6.1081,6.1539,6.1595,6.1768,6.2251,6.3162,6.4001,6.4885,6.58,6.652,6.6898,6.6898,6.6894,6.6887,6.6873,6.6873,6.6778,6.6537,6.5659,6.4794,6.392,6.3043,6.2255,6.1595,6.1519,6.1367,6.1072,5.9526,5.8267,5.7213,5.6617,5.6326,5.6227,5.6228,5.6751,5.7486,5.7715,5.8255,5.8971,5.9648,5.9996,6.0093,5.9936,5.9995,5.9803,5.8308,5.8331,5.8451,5.6868,5.6773,5.6926,5.627,5.5921,5.5724,5.5703,5.564,5.5573,5.5504,5.5451,5.5645,5.6454,5.5908,5.5398,5.5522,5.5959,5.5962,5.5227,5.6576,5.6935,5.5178,5.6864,5.7078,5.4557,5.439,5.3526,5.1509,5.2066,5.1216,4.8495,4.8042,4.7324,4.6203,4.5169,4.4505,4.4261,4.3454,4.2829,4.2396,4.2499,4.2159,4.9419,4.9635,4.9614,4.9614,5.0255,5.0886,0.0,5.1768,5.2522,5.2663,5.3665,5.4477,5.4574,5.5434,5.6366,5.7149,5.7397,5.8092,5.9821,6.018,6.0555,6.1275,6.149,6.1597,6.1595,6.2356,6.3176,6.3995,6.4911,6.5839,6.6717,6.6859,6.6906,6.6891,6.6907,6.6859,6.6815,6.6817,6.6421,6.5621,6.4762,6.3897,6.3019,6.2138,6.1693,6.1588,6.1479,6.091,6.0063,5.9781,5.8702,5.7274,5.7873,5.7699,5.7061,5.7082,5.7603,5.8472,5.9243,5.9609,5.9764,5.9803,6.0325,6.0828,6.0055,6.0307,6.0693,5.9861,5.9611,5.9359,5.8394,5.76,5.7058,5.692,5.6325,5.5745,5.566,5.5596,5.5573,5.5504,5.5446,5.5651,5.6473,5.6395,5.6473,5.7137,5.655,5.6286,5.6916,5.7805,5.7928,5.6854,5.7559,5.7192,5.5018,5.3491,5.2506,5.2032,5.0637,4.9614,4.9127,4.8627,4.7913,4.6918,4.6442,4.5787,4.483,4.3031,4.2455,4.2957,4.1767,4.0968,4.8229,4.9105,4.9898,4.9898,5.0589,5.1402,5.1965,5.2463,5.3011,5.3621,5.4204,5.4747,5.5268,5.6186,5.6978,0.0,5.8376,5.9354,6.0141,6.07,6.113,6.151,6.1576,6.1592,6.16,6.2447,6.3357,6.4189,6.5097,6.5975,6.6854,6.6892,6.6906,6.6898,6.6854,6.6834,6.6795,6.6798,6.6356,6.5491,6.4611,6.3737,6.2862,6.1996,6.1568,6.1491,6.1381,6.0738,5.9785,5.9707,5.8951,5.7888,5.8214,5.8447,5.8527,5.8084,5.8491,5.936,5.965,5.9785,5.992,6.0365,6.0403,6.021,5.9901,5.965,5.9417,5.9109,5.8625,5.8081,5.7694,5.7305,5.6854,5.6313,5.591,5.5618,5.5596,5.5527,5.548,5.5456,5.5772,5.6324,5.7218,5.7168,5.749,5.8802,5.7737,5.6644,5.6361,5.7473,5.8269,5.8109,5.7585,5.6966,5.6302,5.5554,5.4437,5.2831,5.2328,5.1164,4.9119,4.8622,4.7903,4.6906,4.6512,4.6014,4.5401,4.3955,4.3065,4.2775,4.2439,4.1597,4.7983,4.9105,5.0258,5.0258,5.1101,5.2104,5.2783,5.327,5.3762,5.4488,5.482,5.5152,5.5789,5.6706,5.7509,5.7804,5.9173,6.0305,6.0594,6.1159,6.1549,6.1595,6.1627,6.1621,6.1621,6.2688,6.3623,6.4247,6.5336,6.6223,6.6867,6.6906,6.6893,6.6873,6.6834,6.6795,6.679,6.6558,6.5998,6.5137,6.4255,6.3379,6.2523,6.187,6.1495,6.1366,6.1318,6.084,6.0053,6.001,5.9444,5.8688,5.8896,5.9249,5.9562,5.9179,5.9552,6.0191,6.0071,6.0073,6.019,6.0498,6.0362,6.0014,5.9803,5.9435,5.9048,5.8797,5.8254,5.7632,5.7085,5.6906,5.6671,5.5785,5.5527,5.5527,5.5596,5.5504,5.5408,5.5408,5.5988,5.6785,5.7652,5.7625,5.7981,5.9456,5.8502,5.7418,5.6767,5.7783,5.8615,5.8945,5.7526,5.6718,5.7162,5.6485,5.538,5.3836,5.3478,5.2272,4.9874,4.8757,4.7825,4.7039,4.6407,4.5955,4.5718,4.4595,4.3647,4.2802,4.2745,4.2094,4.9731,5.043,5.1168,5.1168,5.2493,5.3819,5.3838,5.4658,5.5427,5.5466,5.5665,5.5866,5.5903,5.672,5.7703,5.8622,5.9561,6.0503,6.1334,6.1529,6.1603,6.1603,6.166,6.1693,0.0,6.3252,6.4267,6.4306,6.5891,6.6867,6.6902,6.6898,6.6873,6.6815,6.6795,6.6809,6.6792,6.5959,6.5098,6.4235,6.3351,6.2484,6.1646,6.1549,6.1421,6.1302,6.1302,6.1167,6.0963,6.096,6.0415,5.9637,6.0419,6.0269,5.9697,6.0439,6.0834,6.0959,6.0894,6.0916,6.0803,5.9931,6.0241,6.0783,5.9892,6.0179,6.0641,5.9815,5.9499,5.9027,5.7258,5.6836,5.6671,5.5738,5.5504,5.5527,5.5682,5.5551,5.5408,5.5408,5.5988,5.673,5.7384,5.7506,5.773,5.8424,5.8486,5.8698,5.9389,5.9344,5.9253,5.9196,5.7528,5.6602,5.7162,5.4893,5.3885,5.5094,5.2899,5.1692,5.2006,4.9418,4.7855,4.7562,4.6423,4.5684,4.5441,4.4403,4.369,4.3369,4.2038,4.1806,4.9227,5.0098,5.1338,5.1869,5.3281,5.4601,5.4666,5.5504,5.6097,5.5666,5.6207,5.6792,5.6828,5.8092,5.925,5.9601,6.0448,6.1176,6.151,6.1586,6.1603,6.16,6.1667,0.0,0.0,0.0,0.0,6.4251,6.537,6.6298,6.6878,6.6854,6.6815,6.6795,6.6804,6.6525,6.5933,6.5652,6.477,6.3319,6.2406,6.1822,6.1519,6.1518,6.1415,6.1302,6.1252,6.1133,6.1041,6.1578,6.1615,6.142,6.2221,6.2375,6.2208,6.2406,6.2521,6.2417,6.1231,6.0869,6.0875,6.0564,6.0638,6.0831,6.0545,5.9868,5.9226,5.9457,5.828,5.6906,5.686,5.6414,5.5915,5.5627,5.5504,5.548,5.5596,5.5519,5.5562,5.6097,5.6774,5.7501,5.8299,5.8817,5.9146,5.9318,5.8763,5.8619,5.9416,5.9383,5.9196,5.8902,5.8378,5.8011,5.7862,5.6478,5.5493,5.5222,5.3771,5.2405,5.1215,5.012,4.8937,4.7615,4.6914,4.6222,4.5389,4.4386,4.3707,4.3238,4.2579,4.2212,4.9246,5.0117,5.1395,5.221,5.3471,5.4629,5.5009,5.5668,5.6053,5.5666,5.644,5.7235,5.7325,5.8823,6.0075,6.0125,6.0908,6.1526,6.1578,6.1595,6.16,6.1595,6.1654,6.171,0.0,0.0,0.0,6.4203,6.5111,6.5975,6.6815,6.6815,6.6678,6.6385,6.6355,6.5914,6.5049,6.472,6.3837,6.2376,6.1783,6.1479,6.1456,6.1452,6.1389,6.1291,6.1255,6.1346,6.1544,6.2044,6.2429,6.2736,6.3229,6.3438,6.3461,6.3325,6.3325,6.3156,6.1747,6.1289,6.1277,6.0965,6.0635,6.0384,6.0384,5.9419,5.8338,5.8527,5.7601,5.6541,5.6418,5.6203,5.5934,5.5673,5.5734,5.5892,5.6053,5.6203,5.6454,5.6969,5.7596,5.8234,5.8775,5.9431,5.9904,5.9857,5.9231,5.8942,5.9436,5.9401,5.9215,5.8799,5.8539,5.8317,5.816,5.6987,5.6054,5.5567,5.4332,5.2997,5.1615,5.0681,4.9475,4.7852,4.7143,4.6272,4.523,4.4392,4.377,4.34,4.2941,4.2545,4.9807,5.0487,5.1395,5.221,5.3139,5.4078,5.4922,5.5294,5.549,5.5631,5.652,5.7311,5.7511,5.8987,6.0182,6.0266,6.0958,6.1526,6.1578,6.1592,6.1595,0.0,0.0,0.0,0.0,0.0,0.0,6.4101,0.0,6.5878,6.6619,6.6717,6.6366,6.5546,6.5471,6.501,6.415,6.3269,6.2386,6.1489,6.1489,6.1456,6.1396,6.1396,6.1347,6.1297,6.1297,6.1692,6.2336,6.2297,6.2818,6.359,6.3461,6.3415,6.3453,6.3344,6.3301,6.3185,6.2377,6.2098,6.1947,6.1074,6.0288,5.9656,5.9592,5.9011,5.8162,5.7271,5.7639,5.7893,5.6126,5.6299,5.6748,5.5922,5.6252,5.6816,5.6913,5.7443,5.7905,5.7944,5.852,5.8946,5.8886,5.9438,5.9885,5.9885,5.9857,5.9723,5.9529,5.9493,5.9347,5.894,5.8092,5.7677,5.7969,5.6282,5.5429,5.6079,5.4339,5.323,5.3,5.12,4.9605,4.8347,4.7084,4.598,4.5097,4.4485,4.4065,4.3822,4.3239,4.2808,4.9871,5.0515,5.1395,5.221,5.3518,5.4695,5.5028,5.5725,5.6359,5.6579,5.7446,5.8411,5.9191,6.0293,6.1084,6.1161,6.137,6.1509,6.1588,6.1592,0.0,6.1595,0.0,6.1701,6.1701,6.1705,0.0,0.0,6.4138,6.4726,6.4921,6.5546,6.5482,6.4593,6.4535,6.4111,6.323,6.2375,6.1802,6.1489,6.1507,6.1452,6.1396,6.1361,6.1322,6.1297,6.1245,6.1308,6.1485,6.2105,6.2897,6.3671,6.3527,6.3869,6.4351,6.358,6.3301,6.3185,6.2377,6.2113,6.1959,6.1069,6.067,6.0496,6.0454,5.9877,5.9146,5.8892,5.8566,5.8204,5.7697,5.7732,5.7847,5.7639,5.7637,5.7692,5.7766,5.7889,5.8131,5.8689,5.9388,5.9854,5.9764,5.983,5.9885,5.9885,5.9753,5.9616,5.9581,5.9419,5.9196,5.8799,5.8368,5.8054,5.7867,5.6095,5.4991,5.5093,5.332,5.2144,5.1789,5.1158,5.0188,4.8826,4.8117,4.7312,4.6276,4.5781,4.5136,4.4467,4.3899,4.312,4.9898,5.0258,5.0827,5.1679,5.2883,5.3984,5.4457,5.5675,5.6759,5.697,5.8124,5.9297,5.9898,6.0769,6.1421,6.1495,6.1498,6.1529,6.1597,6.1592,6.1621,6.1648,6.1685,0.0,6.1694,6.1705,6.1902,0.0,6.3236,6.3906,6.4277,6.4765,6.4604,6.3689,6.3631,6.3218,6.2336,6.1822,6.1539,6.1487,6.1484,6.1447,6.1408,6.1332,6.1306,6.1297,0.0,6.1368,6.1718,6.2201,6.2917,6.369,6.3548,6.3794,6.4139,6.3541,6.3301,6.3185,6.2377,6.2089,6.1954,6.1069,6.0554,6.0288,6.0223,5.9646,5.8973,5.8973,5.8896,5.8742,5.8396,5.8504,5.8654,5.8373,5.8453,5.8604,5.8654,5.8911,5.9305,6.0017,6.0237,6.0351,6.0582,6.026,5.9918,5.9872,5.9772,5.9616,5.9491,5.9383,5.9158,5.8739,5.8468,5.8271,5.8238,5.6739,5.5659,5.5234,5.3659,5.2302,5.1281,5.0963,5.016,4.886,4.8384,4.7598,4.6481,4.6012,4.5276,4.4364,4.3798,4.2977,4.9898,4.9925,5.0126,5.1139,5.1972,5.2786,5.3846,5.5486,5.6855,5.7129,5.8626,5.9963,6.0138,6.0864,6.1433,6.1489,6.1519,6.1539,6.1595,6.1607,6.1628,6.1699,6.1691,6.1709,6.1707,6.1694,6.1704,6.1692,6.2397,6.3164,6.3906,6.4062,6.372,6.2844,6.2765,6.2352,6.1607,6.1529,6.1498,6.1503,6.1428,6.1402,6.14,6.1337,6.1291,6.1297,6.1227,0.0,6.224,6.224,6.2743,6.3497,6.3259,6.3235,6.3312,6.306,6.2974,6.2878,6.2166,6.1916,6.18,6.105,6.0346,5.9752,5.9707,5.9184,5.8627,5.8627,5.9127,5.9511,5.8819,5.91,5.9422,5.88,5.9077,5.9542,5.9706,6.0342,6.0996,6.1468,6.1134,6.0857,6.1133,6.0634,6.0115,5.9843,5.9757,5.9653,5.9346,5.9309,5.912,5.8698,5.8425,5.8391,5.8586,5.7496,5.6464,5.5707,5.4366,5.2857,5.1158,5.0657,4.9877,4.8706,4.826,4.7518,4.6436,4.5838,4.5029,4.3992,4.3507,4.2661,4.9952,4.9933,5.0285,5.1958,5.2425,5.2946,5.4676,5.5963,5.7056,5.7969,5.9123,6.0224,6.1006,6.1336,6.1479,6.1489,6.1549,6.1595,6.1603,6.1654,6.1693,6.1699,6.1691,6.1709,6.1707,6.1694,0.0,0.0,6.185,6.1993,6.2149,6.2822,6.2805,6.1865,6.1829,6.1753,6.1607,6.1529,6.1498,6.1503,6.1428,6.1402,6.14,6.1326,6.1314,6.1297,6.1173,0.0,6.1331,6.1331,6.1834,6.2549,6.1756,6.187,6.2411,6.1607,6.1312,6.1293,6.1093,6.1031,6.0993,6.0839,6.0704,6.0593,6.0569,6.0473,6.0358,6.0358,6.0473,6.0531,6.0396,6.0473,6.0531,6.0484,6.0496,6.0738,6.1392,6.217,6.2554,6.201,6.231,6.2191,6.08,6.0883,6.0862,5.9999,5.9704,5.9493,5.9309,5.9234,5.9042,5.8596,5.8249,5.7941,5.7637,5.6428,5.5309,5.4416,5.3265,5.2041,5.0784,5.0585,5.0085,4.9103,4.8921,4.8438,4.7685,4.6536,4.5456,4.4413,4.3827,4.2984,4.9925,4.9906,5.0115,5.1019,5.1901,5.281,5.3767,5.5844,5.7681,5.8278,5.9605,6.0817,6.1305,6.1456,6.15,6.1549,6.1586,6.1612,6.1654,6.1687,6.1699,6.171,6.1696,6.1705,6.1694,6.1692,6.1699,6.1694,6.1694,6.1701,6.1701,6.205,6.2063,6.1603,6.1597,6.1578,6.1549,6.1518,6.1476,6.146,6.1421,6.1381,6.1352,6.131,6.1281,6.1245,6.1155,0.0,6.1099,6.1099,6.135,6.1679,6.1196,6.1253,6.1582,6.1111,6.0933,6.0911,6.0869,6.0823,6.08,6.08,6.08,6.08,6.08,6.08,6.08,6.08,6.0823,6.0846,6.0823,6.0846,6.1026,6.1469,6.187,6.2117,6.2036,6.2661,6.3111,6.2624,6.2502,6.2134,6.1086,6.0795,6.0469,5.9843,5.9545,5.9346,5.9196,5.9003,5.8821,5.8553,5.8205,5.8022,5.8136,5.6876,5.59,5.5419,5.3851,5.2335,5.1085,5.0476,4.9732,4.8968,4.8736,4.8356,4.7853,4.6959,4.5934,4.4902,4.4351,4.3341,4.9952,4.9933,5.0054,5.0494,5.1611,5.2755,5.3269,5.5877,5.8248,5.8414,5.9988,6.1347,6.1408,6.1468,6.1539,6.1595,6.1612,6.1646,6.1693,6.1699,6.1705,6.1696,6.1701,6.1696,6.1696,6.1695,6.1698,6.1697,6.1697,6.1696,6.1671,6.1628,6.16,6.1595,6.1597,6.1578,6.1489,6.1495,6.1472,6.1396,6.1394,6.1352,6.1302,6.1294,6.1261,6.121,6.1137,0.0,0.0,6.1099,6.1099,6.1099,6.1041,6.1022,6.1022,6.102,6.0957,6.0935,6.0891,6.0869,6.0823,6.08,6.08,6.08,6.08,6.08,6.08,6.08,6.0846,6.0869,6.0823,6.0888,6.1188,6.2015,6.2841,6.3261,6.2714,6.3132,6.3482,6.3108,6.2705,6.223,6.153,6.0931,6.0373,5.9899,5.9532,5.9196,5.9003,5.8781,5.8614,5.8425,5.8115,5.8048,5.8396,5.7363,5.651,5.6169,5.4361,5.273,5.1471,5.0263,4.9333,4.8639,4.8339,4.7968,4.7504,4.6867,4.603,4.5085,4.4488,4.3557,5.0057,5.0082,5.0469,5.2125,5.2616,5.3156,5.4863,5.6787,5.8272,5.8525,6.0069,6.1408,6.1487,6.1549,6.1595,6.1603,6.1654,6.1693,6.1699,6.171,6.1696,6.1701,6.1701,6.1691,6.1693,6.1696,6.1704,6.1699,6.1697,6.1673,6.1602,6.16,6.1595,6.1588,6.1607,6.1578,6.1489,6.1495,6.1472,6.1396,6.1394,6.1352,6.1302,6.1294,6.1261,6.121,6.1137,6.1099,0.0,6.1099,6.1099,6.1099,6.1099,6.1099,6.108,6.1022,6.1002,6.0982,6.0935,6.0911,6.0869,6.0823,6.08,6.08,6.08,6.08,6.08,6.08,6.08,6.08,6.08,6.0846,6.1125,6.2062,6.2909,6.3676,6.4389,6.4508,6.4218,6.3354,6.3725,6.3589,6.1811,6.1926,6.189,6.077,5.9816,5.9157,5.894,5.8656,5.8381,5.8088,5.7792,5.7522,5.7195,5.66,5.5804,5.4762,5.3479,5.2271,5.1191,5.006,4.9229,4.8547,4.8146,4.7605,4.6945,4.5747,4.4938,4.4551,4.3851,4.3136,5.0164,5.0772,5.1623,5.1923,5.2768,5.369,5.4575,5.656,5.8291,5.8546,6.0088,6.1408,6.1484,6.1549,6.1595,6.16,0.0,6.1654,6.1691,6.1696,6.1701,6.1701,6.1701,6.1696,6.1699,6.1693,6.1701,6.1694,6.1666,6.1634,6.16,6.1603,6.1595,6.1607,6.1607,6.1568,6.1507,6.1503,6.1479,6.1394,6.14,6.1371,6.131,6.1314,6.1245,6.1137,6.1099,6.1099,0.0,6.1099,6.1099,6.1099,6.1061,6.1041,6.1041,6.1002,6.0673,6.0208,6.0227,6.0205,6.0121,6.0099,6.04,6.08,6.08,6.08,6.08,6.08,6.0823,6.0846,6.0846,6.1302,6.185,6.2258,6.3338,6.4238,6.4065,6.4696,6.4763,6.2785,6.3387,6.3628,6.177,6.1546,6.1463,6.0917,5.991,5.9119,5.8918,5.8548,5.8179,5.7792,5.7649,5.7388,5.6899,5.642,5.5638,5.4429,5.3271,5.1993,5.0754,4.9699,4.8798,4.8033,4.7737,4.7337,4.6738,4.5746,4.5117,4.4825,4.3823,4.313,5.0532,5.1319,5.222,5.2247,5.315,5.4136,5.456,5.6502,5.8291,5.8547,6.0092,6.1428,6.1491,6.1558,6.1606,0.0,0.0,6.1621,6.1666,6.1666,6.1691,6.1691,6.1696,6.171,6.1699,6.1705,6.1692,6.1706,6.1634,6.1607,6.1603,6.1595,6.1606,6.1607,6.1578,6.1558,6.1503,6.1472,6.1454,6.14,6.14,6.1356,6.1297,6.1297,6.1227,6.1099,6.1099,6.1099,0.0,6.1099,6.108,6.108,6.1041,6.1021,6.0963,6.0732,6.0268,5.9687,5.9437,5.9319,5.9316,5.9502,5.9961,6.0496,6.0723,6.08,6.08,6.08,6.0846,6.0891,6.0933,6.1616,6.2414,6.2723,6.3822,6.4704,6.4315,6.4869,6.4795,6.2663,6.3063,6.3263,6.1671,6.1216,6.1016,6.0861,5.9853,5.9061,5.8799,5.8462,5.7997,5.7504,5.732,5.712,5.6707,5.5968,5.5129,5.418,5.2751,5.1434,5.0368,4.9266,4.8356,4.7638,4.727,4.6791,4.623,4.5526,4.4993,4.4646,4.3585,4.29,5.1255,5.1553,5.2021,5.3664,5.4085,5.4339,5.5289,5.6883,5.8291,5.8547,6.0092,6.1428,6.1491,6.1549,6.1603,0.0,0.0,6.1595,6.1595,6.1595,6.1621,6.1699,6.1699,6.1699,6.1693,6.1697,6.1698,6.1706,6.1634,0.0,6.1603,6.1597,6.1607,6.1607,6.1549,6.1498,6.1503,6.1428,6.1402,6.14,6.14,6.1356,6.1297,6.1297,6.1227,6.1099,6.1099,6.1099,0.0,6.1099,6.1061,6.1002,6.108,6.106,6.0901,6.0113,5.9804,5.9669,5.8661,5.8412,5.8607,5.9287,5.9557,5.9752,6.0554,6.08,6.08,6.08,6.0846,6.0933,6.0976,6.1697,6.2607,6.3478,6.425,6.5018,6.5801,6.5264,6.4289,6.3276,6.3042,6.2682,6.1576,6.1202,6.0947,6.0734,5.974,5.8865,5.8553,5.8312,5.7886,5.7087,5.6688,5.6474,5.6383,5.5097,5.418,5.3851,5.1769,5.0458,5.0084,4.8757,4.7853,4.7404,4.6705,4.6017,4.5541,4.4723,4.4097,4.3585,4.2981,4.2087,5.0628,5.1396,5.2298,5.2379,5.3213,5.4155,5.4599,5.6502,5.8272,5.8547,6.0084,6.1415,6.1491,6.1558,6.1606,6.1595,6.16,6.1621,6.1654,6.166,6.1691,6.1691,6.1699,6.1696,6.169,6.1694,6.1678,6.1634,6.1607,6.16,6.1597,6.1588,6.1578,6.1529,6.1519,6.1487,6.1428,6.0871,6.0566,6.0506,6.0517,6.0472,6.0425,6.0973,6.1173,6.1099,6.1099,6.1099,0.0,6.1041,6.1022,6.0944,6.0324,6.007,5.9931,5.9085,5.847,5.7969,5.7661,5.7583,5.7738,5.8548,5.9162,5.9774,6.0619,6.0846,6.08,6.08,6.0869,6.1111,6.1673,6.2103,6.2627,6.3438,6.4268,6.4612,6.3615,6.4022,6.3943,6.1799,6.2193,6.2536,6.1576,6.1169,6.0912,6.0734,5.974,5.866,5.7672,5.7224,5.6762,5.6223,5.5776,5.5575,5.5746,5.4677,5.3505,5.2423,5.1145,4.9944,4.874,4.81,4.7504,4.686,4.6214,4.5567,4.4874,4.4174,4.3235,4.2102,4.1673,4.1015,5.071,5.1396,5.2164,5.2024,5.3016,5.4053,5.4226,5.6034,5.7884,5.8489,5.9832,6.1026,6.1433,6.1548,6.1597,6.1606,6.1612,6.1607,6.166,6.1654,6.1666,6.171,6.1705,6.1704,6.1699,6.1698,6.1665,6.16,6.1607,6.16,6.1588,6.1607,6.1568,6.1498,6.1498,6.132,6.0948,6.043,5.9989,5.9613,5.9604,5.956,5.9533,6.0024,6.0205,6.017,6.0499,0.0,0.0,6.0461,6.0384,5.9998,5.9436,5.9183,5.9025,5.8199,5.7583,5.7139,5.6792,5.6695,5.6945,5.8066,5.9183,6.0198,6.0715,6.0823,6.08,6.08,6.0869,6.1147,6.196,6.2276,6.2665,6.3782,6.4477,6.453,6.3357,6.3883,6.386,6.1433,6.1678,6.1987,6.1007,6.0808,6.0657,6.0228,5.97,5.9022,5.8061,5.7299,5.6703,5.6382,5.5381,5.486,5.5122,5.4,5.2745,5.1377,5.0527,4.95,4.8332,4.7898,4.742,4.6788,4.5855,4.5067,4.4328,4.3633,4.2617,4.1483,4.1111,4.0628,0.0,5.1419,5.158,5.2342,5.3181,5.3875,5.4063,5.5527,0.0,5.8258,5.9355,6.0378,6.1258,6.1509,6.1607,6.1607,6.1606,6.1603,6.1603,6.1607,6.1621,6.1693,6.1709,6.1699,6.1699,6.1704,6.1666,6.1619,6.1607,6.16,6.1588,6.1607,6.1558,6.1503,6.1445,6.1012,6.021,6.0015,5.9516,5.8719,5.8719,5.8678,5.8603,5.868,5.8651,0.0,0.0,0.0,0.0,5.9474,5.9282,5.851,5.8508,5.8414,5.8219,5.741,5.7139,5.7043,5.6116,5.5962,5.6422,5.791,5.9524,6.0869,6.0823,6.08,6.08,6.08,6.0885,6.118,6.1989,6.2328,6.2874,6.4431,6.4836,6.4794,6.446,6.4443,6.3898,6.1917,6.1438,6.1045,6.0069,6.0184,6.0191,5.9459,5.9651,5.9715,5.9338,5.8267,5.746,5.7234,5.5446,5.4308,5.435,5.3099,5.1856,5.0786,4.991,4.9227,4.874,4.8015,4.7477,4.7177,4.5594,4.4481,4.3847,4.2992,4.2224,4.1583,4.1099,4.0759,4.9182,0.0,5.0501,5.0789,5.1446,5.2222,0.0,5.4693,5.6286,5.7369,5.894,6.0183,6.0472,6.111,6.1607,6.1607,6.1603,6.1607,6.1607,6.1634,6.1681,6.1697,6.1695,6.1698,6.1697,6.1705,6.1666,6.1615,6.1595,6.16,6.1588,6.1549,6.1528,6.1503,6.0857,6.0385,6.0132,5.8849,5.8078,5.7884,5.7838,5.7776,5.773,5.8338,5.8598,0.0,0.0,0.0,5.8604,5.878,5.8703,5.8433,5.7777,5.7486,5.731,5.6444,5.6559,5.6982,5.6115,5.6695,5.8008,5.8986,6.0003,6.0823,6.08,6.08,6.08,6.08,6.1289,6.2028,6.2876,6.3634,6.4296,6.4586,6.5168,6.5048,6.2932,6.3456,6.3606,6.1143,6.0978,6.0912,5.9914,5.9658,5.9647,5.9804,5.9714,5.9448,5.8981,5.7796,5.6848,5.6431,5.5014,5.3694,5.2814,5.1429,5.0888,5.1462,4.9993,4.9074,4.8936,4.7967,4.7426,4.7426,4.5336,4.3886,4.3245,4.231,4.1854,4.1751,4.0754,4.021,4.8261,4.9339,5.0163,5.0231,5.1141,5.2075,5.2326,5.3766,5.5318,5.6463,5.7847,5.9127,5.9996,6.0611,6.112,6.149,6.1584,6.1602,6.1634,6.1339,6.1104,6.1101,6.0742,6.0657,0.0,6.1095,6.1242,6.1563,6.1595,6.1592,6.1559,6.1519,6.1487,6.146,6.0242,5.9575,5.9496,5.8234,5.7399,5.6991,5.6931,5.6869,5.6858,5.7276,5.7456,0.0,0.0,0.0,5.7443,5.7794,5.7698,5.7312,5.683,5.6638,5.6521,5.602,5.6115,5.6442,5.5939,5.6862,5.8344,5.8806,5.9762,6.0734,6.0734,6.0729,6.0729,6.0753,6.1084,6.1743,6.2949,6.3378,6.3767,6.4802,6.4847,6.4212,6.264,6.3006,6.2969,6.0597,6.0678,6.0766,5.971,5.9609,5.9601,5.9353,5.9342,5.9218,5.8755,5.7593,5.6707,5.651,5.4811,5.3454,5.2923,5.1153,5.0225,5.0627,4.9967,4.936,4.878,4.8158,4.7229,4.6032,4.4182,4.3021,4.2482,4.2072,4.1702,4.1435,4.0574,4.0105,4.7871,4.8993,5.0059,5.0193,5.1299,5.2196,5.1806,5.2816,5.4216,5.5537,5.6546,5.7703,5.9385,6.0032,6.0477,6.1022,6.1166,6.1238,6.1305,6.0661,6.0202,6.022,5.955,0.0,6.0315,6.0388,6.0729,6.1543,6.1595,6.1584,6.1519,6.1509,6.1456,6.1428,5.9763,5.8875,5.8797,5.7865,5.7029,5.6278,5.6232,5.619,5.6184,5.6133,5.6046,5.6051,0.0,0.0,5.607,5.6787,5.6671,5.5995,5.598,5.5981,5.5962,5.5885,5.5903,5.5957,5.6049,5.6867,5.7958,5.8274,5.9326,6.0488,6.0647,6.0655,6.0604,6.0635,6.0756,6.1236,6.2694,6.2746,6.2887,6.4937,6.437,6.3238,6.2768,6.2862,6.2437,6.0462,6.0751,6.0917,5.9684,5.9788,5.9687,5.864,5.8841,5.8944,5.8373,5.7474,5.6795,5.6605,5.4731,5.3433,5.3413,5.1477,4.9981,4.9374,4.9889,4.9644,4.8365,4.8247,4.6889,4.4184,4.3157,4.2449,4.1843,4.2015,4.177,4.1086,4.0324,4.0057,4.7505,4.8575,4.9453,5.0199,5.0469,5.0789,5.1606,5.1981,5.2701,5.4514,5.5656,5.6616,5.7696,5.9215,6.0087,5.9484,5.9431,5.9482,5.951,5.9373,5.9315,5.9378,0.0,5.9439,6.0315,6.0402,6.0723,6.1537,6.16,6.1595,6.1588,6.1537,6.1503,6.1472,5.975,5.8797,5.8797,5.7216,5.6348,5.6232,5.6209,5.6164,5.6098,5.6098,5.6046,5.6012,0.0,5.6128,5.6012,5.6133,5.6115,5.598,5.5924,5.5865,5.5745,5.5724,5.6121,5.674,5.7489,5.7407,5.7234,5.8673,5.9281,5.9575,6.0374,6.0578,6.0525,6.0525,6.1095,6.1934,6.2866,6.3556,6.4112,6.4412,6.4317,6.3695,6.205,6.2699,6.3066,6.125,6.1879,6.2183,6.0508,6.008,5.956,5.8397,5.8582,5.8451,5.7237,5.7062,5.6581,5.5401,5.4534,5.3553,5.2203,5.1971,5.1306,4.9701,4.9598,4.9056,4.7772,4.7901,4.644,4.3274,4.3878,4.345,4.1848,4.189,4.1731,4.1214,4.0145,3.9436,4.6953,4.7526,4.8058,4.9422,5.039,5.1036,5.1073,5.1485,5.226,5.3705,5.4752,5.5816,5.7194,5.8596,5.9581,5.9735,0.0,5.9644,5.9178,5.8729,5.8621,0.0,0.0,5.846,6.0222,5.9962,6.0223,6.1502,6.1612,6.1578,6.1548,6.1515,6.1479,6.1454,5.9729,5.8808,5.8808,5.7043,5.6156,5.6199,5.616,5.6133,5.6098,5.6046,5.6029,5.6012,0.0,5.6016,5.5998,5.5961,5.5962,5.5943,5.5826,5.5745,5.5703,5.5573,5.5753,5.6108,5.6499,5.6652,5.6824,5.764,5.8164,5.8647,5.9515,5.9783,5.9824,6.018,6.0712,6.1337,6.2087,6.2651,6.3072,6.3418,6.3169,6.2567,6.1526,6.2197,6.2576,6.1174,6.1676,6.1897,6.0481,5.9204,5.8289,5.7932,5.7498,5.7015,5.6474,5.6298,5.5806,5.479,5.4106,5.3314,5.2194,5.1806,5.1122,4.9908,4.8812,4.788,4.6917,4.6003,4.4789,4.3157,4.319,4.2705,4.1637,4.1517,4.109,4.0364,3.9386,3.8801,4.6801,4.7031,4.7316,4.8873,5.0019,5.0821,5.0807,5.1238,5.2011,0.0,0.0,5.5281,5.6834,5.7787,5.8637,5.9638,5.9788,5.9553,5.8902,5.8453,5.8407,5.9022,5.7784,5.7723,5.9892,5.9482,5.9684,6.1175,6.1478,6.1539,6.1495,6.1503,6.1369,6.1109,5.959,5.8702,5.8474,5.6885,5.613,5.617,5.6114,5.6082,5.6082,5.6029,5.5995,5.6014,5.5998,5.5981,5.5981,5.5905,5.5865,5.5826,5.5724,5.566,5.5596,5.5451,5.5402,5.5402,5.5409,5.5804,5.6339,5.6607,5.7098,5.7791,5.8776,5.9081,5.9225,5.99,6.0237,6.0589,6.1354,6.1631,6.1822,6.2353,6.1991,6.1408,6.0917,6.1444,6.1814,6.1111,6.1355,6.1384,6.0483,5.864,5.7261,5.7284,5.6228,5.5466,5.5504,5.519,5.4687,5.4069,5.3613,5.2855,5.1828,5.0843,4.9942,4.9031,4.7854,4.6819,4.5977,4.4705,4.367,4.298,4.2593,4.2,4.12,4.1126,4.053,3.9581,3.8605,3.8112,4.7586,4.7991,4.8221,4.9164,4.8778,4.8794,5.1177,5.1241,0.0,5.4069,0.0,0.0,0.0,5.6483,5.689,5.7837,5.7986,5.7992,5.7988,0.0,5.9041,5.9089,5.827,5.8097,5.9104,5.9077,5.9381,6.0317,6.1091,6.1519,6.1509,6.1433,6.1033,6.0215,5.9279,5.8377,5.7513,5.6575,5.6098,5.6098,5.6029,5.6012,5.6012,5.6012,5.5996,5.5999,5.5999,5.5962,5.5905,5.5826,5.5766,5.5703,5.5638,5.5527,5.5408,5.5409,5.5403,5.5403,5.5403,5.5441,5.5613,5.6358,5.6645,5.6988,5.8549,5.8997,5.9169,5.99,6.0099,6.0338,6.1183,6.1443,6.1443,6.1488,6.1387,6.1077,6.0183,6.0471,6.107,6.1619,6.1513,6.1241,6.097,5.9181,5.7444,5.6437,5.518,5.4186,5.3813,5.3719,5.3418,5.2951,5.2943,5.2096,5.0163,4.8639,4.7357,4.6356,4.6711,4.6446,4.5055,4.5401,4.459,4.2367,4.3092,4.2535,4.052,4.0759,4.0338,3.9258,3.8149,3.7406,4.6392,4.6985,4.7501,4.7757,4.7582,0.0,0.0,5.0951,5.1561,5.4218,5.4835,0.0,0.0,0.0,5.7334,5.774,5.8254,5.8432,5.7969,5.8582,5.9295,5.9845,5.8656,5.8343,5.9712,5.8847,5.8557,5.9435,5.9737,5.9861,5.9814,5.9789,5.9613,5.9231,5.8386,5.7754,5.7408,5.6488,5.6029,5.6029,5.6012,5.6012,5.6012,5.6012,5.5995,5.5996,5.5961,5.6213,5.6599,5.5957,5.5989,5.6368,5.5738,5.5451,5.539,5.5403,5.5403,5.5403,5.5294,5.5294,5.5305,5.5584,5.5671,5.5976,5.7587,5.81,5.8396,5.9614,5.9982,6.007,6.0487,6.0593,6.0563,6.0488,6.0373,6.0179,5.9653,6.0454,6.1354,6.1593,6.1344,6.1044,6.0892,5.818,5.6182,5.6527,5.4594,5.3424,5.4343,5.3671,5.3053,5.3026,5.2092,5.0629,4.8764,4.743,4.6184,4.4773,4.5194,4.4938,4.3846,4.4097,4.3513,4.2059,4.2438,4.1959,4.0472,4.0376,3.9865,3.8736,3.7773,3.7024,4.6026,4.6694,4.7397,4.7364,4.7394,4.8021,5.0252,5.0827,5.1647,5.4249,5.5104,5.5769,5.7078,0.0,0.0,0.0,5.8153,5.8515,5.794,5.8827,5.9625,5.9911,5.8901,5.8515,5.9376,5.8364,5.7917,5.85,5.876,5.8861,5.8823,5.8783,5.8624,5.8293,5.7718,5.726,5.6953,5.6319,5.6012,5.6012,5.6012,5.6012,5.6012,5.6012,5.5995,5.5979,5.5924,5.6194,5.6597,5.5893,5.5919,5.6352,5.5657,5.539,5.5403,5.5358,5.5339,5.5313,5.5222,5.5176,5.5176,5.5121,5.5094,5.5417,5.7023,5.7536,5.7848,5.943,5.9839,5.982,5.9931,5.9944,5.9931,5.982,5.97,5.9524,5.9327,6.0077,6.0914,6.1293,6.0723,6.0256,6.0508,5.7386,5.5243,5.6384,5.4064,5.2822,5.46,5.3249,5.2048,5.1755,5.051,4.8969,4.6927,4.6115,4.4993,4.3286,4.3592,4.3503,4.2975,4.3075,4.267,4.1563,4.1571,4.1084,3.9968,3.9659,3.8938,3.7733,3.7049,3.6283,4.6894,4.7561,4.8301,4.8301,4.835,4.8836,5.0519,5.0906,5.1657,5.4258,5.5644,5.6426,5.6488,5.6504,0.0,5.6582,5.7337,5.7886,5.7804,5.9281,6.0035,5.9103,5.8996,5.8627,5.7701,5.7592,5.7592,5.7592,5.8331,5.8804,5.8868,5.8755,5.8273,5.7401,5.7389,5.6933,5.6012,5.6012,5.6012,5.6012,5.6012,5.6012,5.6012,5.6012,5.5959,5.5905,5.5905,5.5826,5.5703,5.5638,5.5527,5.5383,5.5409,5.5403,5.5377,5.5248,5.5183,5.5183,5.5121,5.5094,5.5094,5.5113,5.5113,5.5389,5.7023,5.7465,5.775,5.9337,5.9704,5.9616,5.9616,5.9616,5.9597,5.9597,5.9455,5.9309,5.929,5.914,5.9409,6.0821,5.956,5.8639,5.9761,5.6917,5.4876,5.5933,5.3549,5.2329,5.4143,5.2323,5.0291,4.8586,4.8306,4.7132,4.4494,4.4626,4.3889,4.1657,4.2026,4.2342,4.2328,4.2617,4.2164,4.0883,4.0593,3.9968,3.8792,3.8502,3.7709,3.6367,3.6013,3.5218,4.6227,4.677,4.7502,4.7472,4.7966,4.875,4.9753,5.0449,0.0,0.0,5.5711,5.6426,5.6496,5.6509,0.0,5.6597,5.7284,5.7812,5.7791,5.8728,5.9311,5.9025,5.8461,5.7965,5.7642,5.7056,5.6683,5.6683,5.69,5.7029,5.6997,5.6946,5.6804,5.6501,5.6485,5.6333,5.6012,5.6046,5.6046,5.6012,5.6012,5.6012,5.6012,5.6012,5.5996,5.5962,5.5905,5.6212,5.6669,5.6518,5.5993,5.5333,5.5275,5.5222,5.5168,5.5149,5.5121,5.5121,5.5038,5.5,5.5036,5.5564,5.5693,5.5952,5.7654,5.8131,5.8325,5.9367,5.9545,5.9383,5.9383,5.929,5.9065,5.8702,5.8914,5.9008,5.8256,5.8859,5.9634,5.9878,5.9228,5.8713,5.8992,5.6233,5.4421,5.5543,5.3264,5.1683,5.2433,5.1755,5.0627,4.8939,4.8012,4.6641,4.4423,4.4006,4.335,4.2178,4.2141,4.2014,4.1788,4.1954,4.1584,4.0593,4.0389,3.9659,3.8502,3.8303,3.7583,3.6587,3.6065,3.5288,4.5931,4.6399,4.7231,4.7506,4.8005,4.872,4.9869,0.0,0.0,0.0,5.5501,5.6043,5.6433,5.652,0.0,5.6561,5.6976,5.728,5.7251,5.795,5.8343,5.7965,5.777,5.7515,5.7111,5.6613,5.6309,5.6309,5.6272,5.6246,5.6246,5.6209,5.618,5.6145,5.613,5.6098,5.6029,5.6082,5.6082,5.6012,5.6012,5.6012,5.6012,5.6012,5.5996,5.5962,5.5846,5.6074,5.6492,5.6314,5.5867,5.5281,5.5203,5.5149,5.5094,5.5066,5.5038,5.5,5.4941,5.4871,5.4962,5.5712,5.5932,5.6163,5.7484,5.8057,5.8399,5.8888,5.9102,5.9178,5.9178,5.8858,5.8464,5.8109,5.8521,5.8625,5.7351,5.8164,5.9069,5.8823,5.8457,5.8146,5.7843,5.5543,5.3989,5.4735,5.3186,5.1753,5.1131,5.0774,4.9865,4.8013,4.7099,4.5819,4.369,4.3469,4.2937,4.1788,4.1759,4.1525,4.0972,4.1002,4.0681,3.9878,3.9453,3.8816,3.788,3.7667,3.6918,3.5871,3.5629,3.4836,4.6012,4.6445,4.7307,4.8195,4.8466,4.8945,5.0538,5.1581,5.2725,5.4594,0.0,5.547,5.6341,5.6559,5.6561,5.6507,5.648,5.6471,5.6407,5.7089,5.7254,5.6391,5.7002,5.7165,5.6369,5.6291,5.6291,5.6291,5.6246,5.6246,5.6291,5.6243,5.6194,5.6199,5.6209,5.6164,5.6098,5.6117,5.6082,5.6012,5.6012,5.6012,5.6012,5.6012,5.596,5.5885,5.5745,5.5662,5.5596,5.5456,5.5358,5.5281,5.5149,5.5094,5.5066,5.5,5.4941,5.4871,5.4799,5.4793,5.4918,5.5621,5.5923,5.6111,5.6847,5.7538,5.8071,5.8071,5.8502,5.8945,5.8945,5.8348,5.7732,5.7657,5.8058,5.8066,5.6487,5.7088,5.784,5.7664,5.7395,5.708,5.6563,5.4812,5.3517,5.3505,5.3073,5.2163,5.035,4.9565,4.8419,4.6471,4.5957,4.488,4.2744,4.3069,4.2644,4.0931,4.1023,4.0795,3.9968,4.007,3.9659,3.8736,3.8303,3.7667,3.7024,3.6808,3.6036,3.4751,3.488,3.4061,4.6621,4.6841,4.7461,4.8948,4.983,5.0457,5.0953,5.121,5.1878,5.3701,5.4684,5.5477,5.6334,5.6504,5.6523,5.6497,5.6464,5.6414,5.6398,5.6553,5.6591,5.6333,5.6477,5.6504,5.6311,5.6291,5.6291,5.6291,5.6291,5.6291,5.6291,5.6232,5.6185,5.6199,5.6185,5.6175,5.6098,5.6149,5.6133,0.0,5.6012,5.6012,5.6012,5.6016,5.5943,5.5826,5.5745,5.5662,5.5596,5.5456,5.5333,5.5203,5.5066,5.5,5.4912,5.489,5.4829,5.4799,5.4736,5.5074,5.5559,5.5657,5.6042,5.6553,5.6668,5.7248,5.7866,5.7732,5.821,5.8739,5.8638,5.796,5.7135,5.645,5.6473,5.6325,5.5143,5.5416,5.5934,5.6334,5.6115,5.5755,5.5383,5.3979,5.2518,5.1417,5.1639,5.1574,5.0514,4.9552,4.8326,4.6698,4.5646,4.4556,4.335,4.245,4.1686,4.1261,4.0427,3.9788,3.9154,3.9569,3.9258,3.8198,3.8092,3.756,3.6808,3.67,3.6111,3.4936,3.4681,3.3877,4.6254,4.6684,4.7515,4.9231,5.0337,5.1009,5.1088,5.145,5.2174,5.3565,5.4254,5.5001,5.6268,5.649,5.6484,5.6457,5.6425,5.6398,5.6358,5.6356,5.6345,5.6302,5.6302,5.6302,5.6341,5.6329,5.6297,5.6297,5.6304,5.6291,5.6291,5.6278,5.6246,5.6246,5.6246,5.6223,5.6149,5.6184,5.6133,5.6012,5.6012,5.5977,5.596,5.5943,5.5905,5.5846,5.5703,5.5618,5.5573,5.5383,5.5262,5.5183,5.5028,5.4901,5.486,5.4799,5.4736,5.4654,5.4576,5.4777,5.5141,5.5374,5.5714,5.6108,5.6463,5.7077,5.7633,5.7553,5.7983,5.8443,5.8356,5.7383,5.6301,5.5754,5.5748,5.5502,5.4075,5.4446,5.5021,5.5008,5.5131,5.5025,5.4508,5.3324,5.206,5.0722,5.1064,5.0951,4.9773,4.8969,4.8004,4.6599,4.5698,4.4715,4.3412,4.2453,4.1732,4.0958,3.9968,3.9245,3.8619,3.8526,3.821,3.7785,3.7346,3.6904,3.6483,3.5927,3.5268,3.4502,3.392,3.3243,4.6018,4.6912,4.8095,4.9571,5.053,5.1095,5.112,5.1852,5.2784,5.3708,5.4064,5.4684,5.6226,5.6494,5.6461,5.6377,5.6378,5.6358,5.6314,5.6302,5.636,5.6508,5.6411,5.6383,5.6581,5.6422,5.6314,5.6314,5.6329,5.6317,5.6317,5.6317,5.6317,5.6317,5.6317,5.6298,5.6214,5.6214,5.6149,5.6012,5.6012,5.5959,5.5905,5.5905,5.5885,5.5865,5.5682,5.5596,5.5573,5.5307,5.5183,5.5157,5.4971,5.486,5.4817,5.4786,5.4673,5.4472,5.4409,5.4399,5.4554,5.4931,5.5156,5.5361,5.5921,5.6493,5.7019,5.7126,5.7544,5.7968,5.807,5.6895,5.5668,5.5386,5.5285,5.481,5.3387,5.3834,5.4463,5.4151,5.44,5.4468,5.3731,5.2785,5.1731,5.0582,5.0707,5.0338,4.8671,4.824,4.7548,4.6106,4.5595,4.4741,4.3328,4.2639,4.1769,4.0504,3.9556,3.8712,3.8198,3.7346,3.7036,3.7262,3.6603,3.6157,3.6059,3.5035,3.4246,3.3786,3.2903,3.2332,4.73,4.897,5.04,5.0811,5.1023,5.1121,5.1169,5.1901,5.284,5.3717,5.4507,5.5331,5.6325,5.6452,5.6378,5.6329,5.6317,5.6314,5.6302,5.6302,5.6586,5.7328,5.6814,5.6658,5.7359,5.6795,5.6386,5.6386,5.6395,5.6395,5.6395,5.6395,5.6395,5.6395,5.6395,5.6353,5.6298,5.6232,5.6156,5.6082,5.6029,5.5996,5.5981,5.5943,5.5826,5.5724,5.566,5.5573,5.5504,5.5288,5.5176,5.5094,5.496,5.486,5.4799,5.4736,5.4576,5.439,5.4324,5.4703,5.5043,5.4261,5.4464,5.491,5.414,5.4367,5.5017,5.5643,5.6326,5.696,5.7514,5.6974,5.6069,5.5236,5.4368,5.3646,5.3541,5.3284,5.3385,5.4563,5.4098,5.3349,5.2819,5.2101,5.1284,5.0253,5.0197,4.9789,4.8157,4.7634,4.677,4.5384,4.5046,4.4397,4.308,4.1954,4.1045,4.0185,3.8921,3.7868,3.7346,3.67,3.6266,3.6036,3.5916,3.5609,3.5202,3.4714,3.4022,3.3233,3.2322,3.1642,4.7645,4.8735,4.9679,5.0821,5.1108,5.112,5.1171,5.2299,5.3579,5.4445,5.5312,5.6041,5.643,5.6851,5.6962,5.6437,5.6367,5.6364,5.6364,5.6364,5.6678,5.7555,5.7352,5.7274,5.7624,5.7332,5.6943,5.6437,5.6397,5.6406,5.6406,5.6406,5.6406,5.6406,5.6406,5.6383,5.6291,5.6278,5.6204,5.6098,5.6029,5.5996,5.5924,5.5905,5.5846,5.5745,5.5596,5.5504,5.5432,5.5229,5.5094,5.5066,5.5394,5.5196,5.4761,5.5084,5.4837,5.4324,5.4183,5.4279,5.4391,5.3904,5.3938,5.4137,5.4086,5.4239,5.4571,5.531,5.5871,5.6309,5.6625,5.6006,5.5189,5.4661,5.3419,5.243,5.2776,5.2659,5.2874,5.383,5.3632,5.3037,5.2151,5.1669,5.1017,4.9711,4.9504,4.9081,4.7849,4.7249,4.6373,4.5216,4.4569,4.3709,4.2582,4.1571,4.0554,3.9428,3.8372,3.7429,3.67,3.5829,3.5168,3.5058,3.5058,3.4958,3.4758,3.3706,3.3016,3.2561,3.1526,3.0829,4.772,4.8403,4.8987,5.0608,5.1197,5.1411,5.1481,5.2903,5.4456,5.5331,5.6204,5.6821,5.6803,5.7098,5.7167,5.6514,5.6398,5.6407,5.6417,5.6592,5.705,5.7955,5.8052,5.8139,5.8351,5.7992,5.7448,5.6805,5.6553,5.6437,5.6437,5.6437,5.6427,5.6427,5.6427,5.6386,5.6329,5.6291,5.6223,5.6098,5.6029,5.5959,5.5905,5.5673,5.5653,5.5745,5.5573,5.5456,5.5383,5.5176,5.5038,5.4998,5.5522,5.5397,5.4966,5.5209,5.4978,5.4463,5.4093,5.3869,5.3754,5.3656,5.3518,5.3529,5.3976,5.4008,5.4078,5.4756,5.5262,5.5641,5.584,5.5491,5.4912,5.4524,5.3264,5.2254,5.2318,5.2491,5.2717,5.3294,5.3226,5.2823,5.1772,5.1408,5.0774,4.9406,4.8916,4.8355,4.7452,4.6771,4.5956,4.4833,4.3885,4.3026,4.198,4.1071,4.0045,3.8896,3.7844,3.7,3.6145,3.5179,3.4524,3.4412,3.43,3.4188,3.4065,3.2913,3.2227,3.1998,3.0742,3.0238,4.7856,4.8758,4.966,5.058,5.1476,5.2186,5.2304,5.374,5.5276,5.6151,5.7076,5.7718,5.765,5.7011,5.6456,5.6405,5.6407,5.6426,5.648,5.7151,5.7985,5.8916,5.9033,5.9352,6.0171,5.8767,5.7792,5.7733,5.6952,5.6488,5.6488,5.6492,5.6483,5.6483,5.6483,5.6455,5.6407,5.6265,5.6156,5.6098,5.6029,5.5959,5.5885,5.5036,5.5016,5.5596,5.5527,5.5456,5.5383,5.5176,5.5028,5.4901,5.4867,5.515,5.546,5.4728,5.4759,5.5025,5.4111,5.3754,5.3656,5.34,5.3277,5.3188,5.3097,5.2852,5.2762,5.3476,5.4043,5.4637,5.5392,5.6025,5.6242,5.5168,5.4532,5.387,5.2916,5.29,5.321,5.3628,5.2974,5.2291,5.201,5.1145,5.0354,4.971,4.8805,4.7819,4.6756,4.6046,4.511,4.379,4.3218,4.2457,4.1411,4.0351,3.9403,3.8792,3.7536,3.6472,3.5806,3.5301,3.4646,3.4086,3.3861,3.3388,3.2799,3.2685,3.2238,3.1315,3.0334,2.9891,4.7683,4.8373,4.9004,5.0499,5.1109,5.1401,5.1541,5.298,5.4531,5.543,5.6347,5.7125,5.7672,5.7473,5.7078,5.6541,5.6449,5.6471,5.6504,5.7239,5.8109,5.8987,5.9586,6.0061,6.0373,5.9846,5.9008,5.787,5.7512,5.7102,5.653,5.651,5.6503,5.6503,5.6488,5.6464,5.6388,5.6309,5.596,5.5322,5.5262,5.4873,5.4246,5.4496,5.4669,5.4847,5.5297,5.5413,5.5255,5.5094,5.496,5.4886,5.5276,5.5202,5.4825,5.4945,5.4689,5.426,5.3866,5.3558,5.3355,5.3254,5.3109,5.2912,5.2735,5.2572,5.2614,5.3249,5.376,5.4293,5.4955,5.5293,5.5127,5.3827,5.2959,5.2403,5.2294,5.2796,5.3211,5.2889,5.2291,5.1418,4.9994,4.9857,4.9442,4.809,4.7622,4.7148,4.6609,4.5551,4.4448,4.3477,4.2431,4.1471,4.058,3.9865,3.8921,3.7749,3.712,3.6266,3.5301,3.4758,3.4199,3.3749,3.3625,3.3275,3.2685,3.2352,3.1637,3.0679,2.9824,2.9079,4.7529,4.8124,4.8601,5.0351,5.1039,5.1299,5.1469,5.2659,5.4003,5.4948,5.5622,5.6321,5.7167,5.7086,5.6815,5.6569,5.6503,5.6611,5.6924,5.7693,5.8565,5.9435,6.0319,6.0832,6.0837,6.0573,5.9917,5.8766,5.8122,0.0,5.6971,5.6667,5.6498,5.6491,5.6503,5.6472,5.6388,5.6333,5.5981,5.5372,5.5307,5.4904,5.4223,5.4495,5.4689,5.4809,5.501,5.5134,5.5183,5.5066,5.4931,5.4793,5.5263,5.5134,5.4718,5.4782,5.454,5.4107,5.3669,5.3396,5.3188,5.3085,5.2893,5.2717,5.2526,5.2452,5.2401,5.2682,5.3276,5.3922,5.4329,5.4582,5.446,5.3281,5.254,5.2014,5.2101,5.2369,5.2466,5.217,5.1639,5.0746,4.8989,4.9157,4.8885,4.708,4.6885,4.6638,4.5973,4.4883,4.379,4.2902,4.1842,4.0883,4.0173,3.9465,3.8619,3.7453,3.6916,3.6059,3.4991,3.4434,3.3974,3.3636,3.3388,3.2964,3.2344,3.1937,3.1222,3.011,2.9374,2.8399,0.0,0.0,0.0,5.0183,5.128,5.2009,5.2214,5.2937,5.381,5.4736,5.504,5.5396,5.6171,5.5741,5.5546,5.6384,5.6488,5.6801,5.7762,5.8582,5.9429,6.0303,6.1162,6.169,6.169,6.0932,6.0432,6.0393,5.8831,5.7855,5.7816,5.6971,5.6498,5.6496,5.6496,5.6472,5.6398,5.6336,5.629,5.6253,5.6204,5.6075,5.5896,5.5069,5.5017,5.5519,5.4683,5.4656,5.5183,5.5121,5.4941,5.4692,5.4673,5.4946,5.5155,5.4242,5.4296,5.4711,5.3589,5.317,5.3127,5.2893,5.2698,5.2563,5.2526,5.2293,5.2054,5.1794,5.2643,5.3563,5.345,5.4039,5.4523,5.3832,5.345,5.3041,5.2378,5.1531,5.1021,5.1581,5.1043,5.0208,4.9353,4.9205,4.862,4.6857,4.6745,4.6284,4.4926,4.4073,4.3218,4.2177,4.1385,4.0681,4.007,3.9245,3.8526,3.7986,3.6904,3.595,3.4991,3.4423,3.3974,3.3636,3.3027,3.2344,3.1574,3.1671,3.1077,2.9718,2.8946,2.7865,4.7742,0.0,0.0,0.0,0.0,0.0,5.1192,5.1931,5.2671,5.2986,5.3633,5.4186,5.4476,5.4396,5.4391,5.4672,5.5232,5.6152,5.7617,5.8554,5.9413,6.0292,6.1171,6.1698,6.1698,6.1484,6.1088,0.0,5.9947,5.9159,5.7933,5.705,5.6548,5.6497,5.6504,5.6484,5.648,5.6417,5.6036,5.5357,5.534,5.4934,5.4194,5.4529,5.4709,5.4751,5.5048,5.5148,5.5121,5.5057,5.4901,5.4692,5.4543,5.4453,5.439,5.3982,5.3866,5.3813,5.3387,5.3085,5.2893,5.2698,5.2536,5.2387,5.2246,5.2036,5.204,5.296,5.3209,5.3401,5.4172,5.4069,5.3749,5.37,5.3076,5.2449,5.1931,5.1377,5.094,5.1059,5.0727,4.9946,4.8797,4.8403,4.7859,4.6536,4.5771,4.5095,4.4541,4.3519,4.2582,4.1881,4.1097,4.0287,3.9569,3.905,3.8303,3.7131,3.6808,3.6059,3.4991,3.4646,3.4188,3.3625,3.2724,3.1922,3.1236,3.1027,3.0256,2.8853,2.7861,2.7142,0.0,0.0,0.0,5.0394,0.0,0.0,5.1238,5.1518,5.1676,5.1726,5.2498,5.3066,5.2767,5.3073,5.3494,5.3897,5.4377,5.545,5.7545,5.8248,5.928,6.1252,6.1291,6.1447,6.2173,6.1904,6.1481,6.0976,6.0605,5.9664,5.7952,5.7063,5.6563,5.6494,5.6497,5.6491,5.6496,5.6435,5.594,5.5041,5.5007,5.4485,5.3565,5.4003,5.4284,5.4427,5.514,5.5543,5.5646,5.556,5.5193,5.4673,5.4524,5.4303,5.4091,5.3813,5.36,5.3359,5.3127,5.2893,5.2698,5.2536,5.2387,5.2264,5.2054,5.2072,5.2317,5.2981,5.3194,5.3366,5.4086,5.3815,5.3366,5.3145,5.2574,5.1948,5.1582,5.0924,5.0496,5.0496,5.0089,4.9298,4.8066,4.7729,4.7152,4.5838,4.5223,4.4634,4.4167,4.3149,4.2302,4.1584,4.0795,3.9981,3.9154,3.8736,3.7986,3.6916,3.6472,3.5817,3.4847,3.4401,3.3754,3.3001,3.2035,3.0932,2.9902,2.9976,2.9273,2.7946,2.7194,2.6692,0.0,0.0,0.0,0.0,5.0702,0.0,5.174,5.1389,5.0916,5.0975,5.1657,5.2037,5.1314,5.1872,5.2695,5.3483,5.3774,5.4794,5.7377,5.7869,5.9137,6.2329,6.1504,6.1266,6.2716,6.2247,6.1807,6.1709,6.0813,5.9587,5.8045,5.7093,5.6567,5.6508,5.6503,5.6498,5.6496,5.6338,5.5872,5.5102,5.4933,5.4414,5.3587,5.353,5.3819,5.4432,5.502,5.5644,5.6255,5.6168,5.561,5.4805,5.4595,5.4337,5.4055,5.3719,5.3462,5.3258,5.2937,5.2717,5.2581,5.2448,5.239,5.236,5.2189,5.249,5.2837,5.2463,5.2892,5.3427,5.3662,5.35,5.3145,5.2449,5.1931,5.1508,5.1167,5.0386,4.9836,4.9677,4.9244,4.8553,4.7491,4.7171,4.6577,4.5053,4.4905,4.4527,4.36,4.286,4.2092,4.1372,4.0567,3.9659,3.8841,3.8303,3.7667,3.7131,3.6197,3.5421,3.4591,3.3899,3.3124,3.2145,3.1013,2.9658,2.799,2.8694,2.835,2.7095,2.6747,2.6354,0.0,0.0,0.0,0.0,0.0,0.0,5.0856,5.0891,5.0897,5.0925,5.1116,5.1237,5.1144,5.1297,5.155,5.176,5.298,5.456,5.6491,5.7966,5.9365,6.0737,6.1841,6.2359,6.1997,6.2437,6.2462,6.1748,6.028,5.9283,5.8945,5.7456,5.6582,5.6586,5.6533,5.6497,5.6498,5.5798,5.5278,5.5011,5.4307,5.3812,5.353,5.3445,5.3783,5.4386,5.4469,5.4836,5.5341,5.5275,5.5371,5.5517,5.4721,5.4271,5.3982,5.3639,5.344,5.3258,5.2937,5.269,5.2589,5.3099,5.3122,5.3032,5.3437,5.3513,5.3439,5.3509,5.3731,5.3935,5.3732,5.3213,5.2661,5.2148,5.1655,5.1092,5.0354,4.99,4.9421,4.849,4.8506,4.8377,4.7382,4.6768,4.6122,4.5183,4.4284,4.3533,4.3067,4.2387,4.1597,4.1084,4.0236,3.9415,3.8514,3.801,3.737,3.6808,3.6006,3.5432,3.4958,3.3698,3.2786,3.2135,3.0309,2.8597,2.7219,2.7838,2.7621,2.6664,2.6591,2.6118,0.0,0.0,0.0,4.9663,0.0,0.0,0.0,5.0156,5.0259,5.0252,5.0342,5.0287,4.9932,4.9907,5.011,5.0572,5.1744,5.3072,5.4365,5.6426,5.8448,6.0184,6.0782,6.1392,6.2265,6.2354,6.1983,6.1121,6.0272,5.9414,5.8555,5.7665,5.6996,5.6553,5.6517,5.6478,5.6457,5.5987,5.5501,5.4995,5.4511,5.379,5.2859,5.3198,5.3514,5.3788,5.4451,5.5096,5.5646,5.5489,5.5554,5.5554,5.4675,5.4181,5.3944,5.3619,5.3359,5.3109,5.2787,5.2536,5.2318,5.2521,5.2767,5.299,5.3157,5.3492,5.3875,5.4209,5.4121,5.3881,5.3617,5.2991,5.2378,5.1964,5.1359,5.0695,5.0058,4.9501,4.8769,4.7719,4.7664,4.7508,4.6799,4.6002,4.5293,4.462,4.3709,4.2984,4.2582,4.1993,4.1398,4.058,3.984,3.9013,3.8104,3.7477,3.6823,3.591,3.5477,3.4944,3.3953,3.3263,3.2137,3.067,2.9248,2.7958,2.6791,2.7098,2.698,2.6336,2.6227,2.5898,0.0,0.0,0.0,0.0,0.0,4.8634,0.0,0.0,0.0,4.9625,4.9846,4.9858,4.9225,4.9021,4.9231,5.0112,5.0855,5.1551,5.2272,5.447,5.6926,5.9371,5.9474,6.0177,6.2284,6.1866,6.1225,6.0681,6.0203,5.9371,5.812,5.7723,5.7219,5.6517,5.651,5.6469,5.6405,5.6173,5.5614,5.4744,5.4671,5.3673,5.1937,5.2857,5.3184,5.3111,5.4428,5.535,5.5939,5.5731,5.5488,5.5169,5.4441,5.4091,5.3907,5.3579,5.3235,5.2937,5.2654,5.2351,5.2041,5.2097,5.2709,5.33,5.305,5.3581,5.4276,5.4651,5.4257,5.3634,5.3399,5.2714,5.202,5.1614,5.0908,5.0214,4.9677,4.9031,4.8271,4.7306,4.6989,4.6653,4.6121,4.5221,4.4414,4.3826,4.3177,4.242,4.1919,4.1716,4.1185,4.007,3.934,3.8601,3.7584,3.6942,3.616,3.5126,3.4834,3.4207,3.2934,3.2467,3.1295,2.9125,2.8293,2.7446,2.6592,2.6564,2.6409,2.6017,2.5679,2.5578,0.0,0.0,0.0,0.0,4.926,0.0,0.0,0.0,4.9633,4.9757,0.0,5.0953,5.0996,0.0,0.0,5.1008,5.1297,5.1414,5.1531,5.3113,5.4953,5.6725,5.8889,6.0363,6.0678,6.0617,6.0822,6.149,5.9451,5.8407,5.8928,5.7486,5.6589,5.6491,5.6496,5.6469,5.6405,5.5569,5.4704,5.3845,5.3731,5.2674,5.0912,5.2492,5.3078,5.2905,5.3817,5.4539,5.5034,5.4812,5.4585,5.431,5.4146,5.3963,5.3695,5.34,5.3109,5.2806,5.2572,5.2198,5.1972,5.3296,5.449,5.5318,5.522,5.5032,5.4809,5.4603,5.411,5.3584,5.311,5.2219,5.1327,5.0816,5.0136,4.9517,4.8702,4.837,4.8034,4.6844,4.6683,4.6314,4.5398,4.4499,4.3779,4.3027,4.2263,4.1595,4.1029,4.0971,4.058,3.9465,3.8592,3.7861,3.7203,3.64,3.5577,3.478,3.4283,3.3517,3.2559,3.1257,2.9996,2.8875,2.8005,2.7373,2.6641,2.6641,2.6349,2.5798,2.545,2.5128,0.0,0.0,0.0,0.0,0.0,0.0,4.6851,0.0,4.8986,0.0,0.0,0.0,0.0,0.0,0.0,0.0,5.0621,5.0823,5.1322,5.2474,5.3889,5.5597,5.7221,0.0,5.9542,5.9644,5.9598,5.9491,5.894,5.8308,5.7636,5.7388,5.7005,5.6464,5.6444,5.6388,5.6275,5.5896,5.5461,5.5029,5.4465,5.3491,5.2184,5.3355,5.3491,5.2856,5.4116,5.4686,5.4711,5.4571,5.4284,5.3981,5.3888,5.3811,5.3656,5.3336,5.3316,5.329,5.2625,5.2359,5.2428,5.3353,5.4137,5.4852,5.5112,5.5009,5.4683,5.4367,5.3766,5.3179,5.2817,5.1915,5.0951,5.0586,4.9979,4.9275,4.862,4.8202,4.7609,4.658,4.5917,4.53,4.4294,4.3913,4.3286,4.2248,4.1597,4.1042,4.0707,4.0539,3.9956,3.8733,3.8062,3.7248,3.6133,3.5514,3.4861,3.3796,3.2962,3.234,3.2055,3.0922,2.9882,2.9057,2.8604,2.7974,2.7395,2.6709,2.6287,2.6016,2.5895,2.5447,4.9337,0.0,0.0,0.0,0.0,0.0,0.0,0.0,0.0,0.0,0.0,0.0,0.0,0.0,0.0,0.0,0.0,5.0394,5.1288,5.1932,5.2995,5.4732,5.6138,5.7422,0.0,5.8769,5.8633,5.8278,5.835,5.7965,5.6913,5.7226,5.7112,5.6398,5.6368,5.6314,5.6199,5.617,5.5878,5.5316,5.4861,5.3899,5.2528,5.3769,5.3747,5.2825,5.4343,5.4844,5.4565,5.4371,5.4091,5.3774,5.3637,5.3616,5.3558,5.3272,5.3361,5.3523,5.234,5.2229,5.2662,5.2921,5.3427,5.4137,5.4626,5.4465,5.4029,5.3912,5.3366,5.2747,5.2362,5.1459,5.057,5.0276,4.9661,4.8949,4.8537,4.7864,4.7193,4.6388,4.5418,4.4481,4.3322,4.2971,4.2536,4.1599,4.096,4.0441,4.0192,3.9867,3.913,3.7894,3.7176,3.6446,3.5293,3.4728,3.4031,3.3019,3.1916,3.1418,3.1421,3.0626,3.0004,2.9342,2.8881,2.8455,2.7815,2.6951,2.6474,2.6143,2.5925,2.5499,0.0,0.0,0.0,4.9478,0.0,0.0,0.0,0.0,4.9937,0.0,0.0,0.0,0.0,0.0,0.0,0.0,0.0,0.0,0.0,5.1425,5.2097,5.3834,5.6294,5.7882,0.0,5.7938,5.8284,0.0,5.7623,5.7007,5.772,5.6975,5.6465,5.6319,5.629,5.6278,5.6199,5.6059,5.518,5.3594,5.4207,5.3163,5.0776,5.3073,5.355,5.2688,5.4095,5.4629,5.4453,5.4089,5.3889,5.3774,5.344,5.33,5.3277,5.3066,5.3181,5.3165,5.152,5.1597,5.2324,5.1955,5.2759,5.394,5.4155,5.3545,5.2878,5.2908,5.2747,5.2433,5.1606,5.0859,5.012,4.9757,4.8934,4.8286,4.8049,4.7437,4.6741,4.6299,4.5343,4.4099,4.2474,4.1798,4.1335,4.1107,4.0428,3.9777,3.9336,3.8842,3.8163,3.7002,3.5764,3.5039,3.5223,3.42,3.3282,3.2454,3.1656,3.0859,3.048,3.0157,2.9795,2.954,2.8815,2.8263,2.7885,2.7488,2.6759,2.5813,2.5113,2.4718,0.0,0.0,4.8139,4.8706,0.0,0.0,0.0,0.0,0.0,0.0,0.0,0.0,0.0,0.0,0.0,0.0,0.0,0.0,0.0,5.2761,5.3338,5.3925,5.5291,5.6385,5.6911,0.0,0.0,0.0,5.689,0.0,5.6932,5.6617,5.6359,5.6233,5.6226,5.619,5.6068,5.5418,5.5036,5.494,5.3433,5.248,5.2078,5.2886,5.2965,5.2551,5.4162,5.4616,5.4246,5.3529,5.3368,5.3524,5.2747,5.265,5.298,5.2893,5.3135,5.3388,5.2344,5.2094,5.2198,5.1791,5.2184,5.2753,5.2609,5.2422,5.2367,5.2371,5.2207,5.1931,5.1549,5.0647,4.9677,4.9306,4.8635,4.7964,4.7351,4.6829,4.6167,4.5032,4.401,4.2848,4.1577,4.0316,3.9604,4.0254,3.9315,3.8698,3.8977,3.7902,3.6877,3.6166,3.5124,3.4229,3.3447,3.2536,3.2123,3.2093,3.1623,3.105,3.0723,3.0382,2.9922,2.9213,2.8965,2.8537,2.7935,2.6936,2.6209,2.5963,2.5015,2.4378,4.7979,4.763,0.0,4.8315,4.8114,0.0,4.8793,0.0,0.0,0.0,0.0,0.0,0.0,0.0,0.0,0.0,0.0,0.0,0.0,5.3456,5.3982,5.3963,5.4755,5.5618,5.6429,5.6226,5.6185,0.0,0.0,0.0,0.0,5.6242,5.6169,5.5719,5.5981,5.6082,5.5962,5.4998,5.4765,5.5203,5.3111,5.2211,5.2384,5.2876,5.2832,5.2466,5.369,5.4054,5.3676,5.2975,5.2789,5.2935,5.2532,5.2541,5.2806,5.2735,5.2589,5.2426,5.2041,5.181,5.163,5.1202,5.1378,5.1769,5.1867,5.1555,5.1312,5.1829,5.1619,5.1182,5.1038,5.026,4.9437,4.898,4.8286,4.7593,4.7106,4.6388,4.5468,4.4385,4.3328,4.2161,4.0776,3.9473,3.8741,3.9412,3.8363,3.7632,3.7967,3.6743,3.5628,3.5016,3.4295,3.331,3.2225,3.1741,3.1536,3.1666,3.1317,3.0966,3.0616,3.0265,2.9677,2.8856,2.8865,2.8507,2.802,2.6637,2.5988,2.5982,2.4787,2.4065]},{"header":{"parameterUnit":"m.s-1","parameterCategory":1,"la1":30.6,"la2":29.2853,"lo1":-89.7004,"lo2":-87.6739,"dy":0.0162,"dx":0.0183,"nx":112,"ny":82,"refTime":"2024-04-19T00:00:00:Z","depth":0,"parameterNumber":3,"parameterNumberName":"V-component_of_WINDS"},"data":[0.0,0.0,0.0,0.0,0.0,0.0,0.0,0.0,0.0,0.0,0.0,0.0,0.0,0.0,0.0,0.0,0.0,0.0,0.0,0.0,0.0,0.0,0.0,0.0,0.0,0.0,0.0,0.0,0.0,0.0,0.0,0.0,0.0,0.0,0.0,0.0,0.0,0.0,0.0,0.0,0.0,0.0,0.0,0.0,0.0,0.0,0.0,0.0,0.0,0.0,0.0,0.0,0.0,0.0,0.0,0.0,0.0,0.0,0.0,0.0,0.0,0.0,0.0,0.0,0.0,0.0,0.0,0.0,0.0,0.0,0.0,0.0,0.0,0.0,0.0,0.0,0.0,0.0,0.0,0.0,0.0,0.0,0.0,0.0,0.0,0.0,0.0,0.0,0.0,0.0,-0.2375,-0.2129,-0.2349,-0.2289,-0.1963,-0.2408,-0.2692,-0.2566,0.0,0.0,0.0,0.0,0.0,0.0,0.0,0.0,0.0,0.0,0.0,0.0,0.0,0.0,0.0,0.0,0.0,0.0,0.0,0.0,0.0,0.0,0.0,0.0,0.0,0.0,0.0,0.0,0.0,0.0,0.0,0.0,0.0,0.0,0.0,0.0,0.0,0.0,0.0,0.0,0.0,0.0,0.0,0.0,0.0,0.0,0.0,0.0,0.0,0.0,0.0,0.0,0.0,0.0,0.0,0.0,0.0,0.0,0.0,0.0,0.0,0.0,0.0,0.0,0.0,0.0,0.0,0.0,0.0,0.0,0.0,0.0,0.0,0.0,0.0,0.0,0.0,0.0,0.0,0.0,0.0,0.0,0.0,0.0,0.0,0.0,0.0,0.0,0.0,0.0,0.0,0.0,0.0,0.0,0.0,0.0,0.0,0.0,0.0,0.0,0.0,0.0,0.0,0.0,-0.2035,-0.2303,-0.2276,-0.2354,-0.2537,-0.2612,-0.2773,-0.2885,0.0,0.0,0.0,0.0,0.0,0.0,0.0,0.0,0.0,0.0,0.0,0.0,0.0,0.0,0.0,0.0,0.0,0.0,0.0,0.0,0.0,0.0,0.0,0.0,0.0,0.0,0.0,0.0,0.0,0.0,0.0,0.0,0.0,0.0,0.0,0.0,0.0,0.0,0.0,0.0,0.0,0.0,0.0,0.0,0.0,0.0,0.0,0.0,0.0,0.0,0.0,0.0,0.0,0.0,0.0,0.0,0.0,0.0,0.0,0.0,0.0,0.0,0.0,0.0,0.0,0.0,0.0,0.0,0.0,0.0,0.0,0.0,0.0,0.0,0.0,0.0,0.0,0.0,0.0,0.0,0.0,0.0,0.0,0.0,0.0,0.0,0.0,0.0,0.0,0.0,0.0,0.0,0.0,0.0,0.0,0.0,0.0,0.0,0.0,0.0,0.0,0.0,0.0,-0.2388,-0.2512,-0.2891,-0.2734,-0.2681,-0.2843,-0.3042,-0.3206,-0.3417,-0.3771,0.0,0.0,0.0,0.0,0.0,0.0,0.0,0.0,0.0,0.0,0.0,0.0,0.0,0.0,0.0,0.0,0.0,0.0,0.0,0.0,0.0,0.0,0.0,0.0,0.0,0.0,0.0,0.0,0.0,0.0,0.0,0.0,0.0,0.0,0.0,0.0,0.0,0.0,0.0,0.0,0.0,0.0,0.0,0.0,0.0,0.0,0.0,0.0,0.0,0.0,0.0,0.0,0.0,0.0,0.0,0.0,0.0,0.0,0.0,0.0,0.0,0.0,0.0,0.0,0.0,0.0,0.0,0.0,0.0,0.0,0.0,0.0,0.0,0.0,0.0,0.0,0.0,0.0,0.0,0.0,0.0,0.0,0.0,0.0,0.0,0.0,0.0,0.0,0.0,0.0,0.0,0.0,0.0,0.0,0.0,0.0,0.0,0.0,0.0,0.0,0.0,0.0,-0.2902,-0.3005,-0.3341,-0.3184,-0.3008,-0.3258,-0.3574,-0.3742,-0.384,-0.4276,0.0,0.0,0.0,0.0,0.0,0.0,0.0,0.0,0.0,0.0,0.0,0.0,0.0,0.0,0.0,0.0,0.0,0.0,0.0,0.0,0.0,0.0,0.0,0.0,0.0,0.0,0.0,0.0,0.0,0.0,0.0,0.0,0.0,0.0,0.0,0.0,0.0,0.0,0.0,0.0,0.0,0.0,0.0,0.0,0.0,0.0,0.0,0.0,0.0,0.0,0.0,0.0,0.0,0.0,0.0,0.0,0.0,0.0,0.0,0.0,0.0,0.0,0.0,0.0,0.0,0.0,0.0,0.0,0.0,0.0,0.0,0.0,0.0,0.0,0.0,0.0,0.0,0.0,0.0,0.0,0.0,0.0,0.0,0.0,0.0,0.0,0.0,0.0,0.0,0.0,0.0,0.0,0.0,0.0,0.0,0.0,0.0,0.0,0.0,0.0,0.0,0.0,-0.2844,-0.298,-0.3238,-0.3455,-0.3543,-0.3593,-0.398,-0.4129,-0.3837,-0.4226,0.0,0.0,0.0,0.0,0.0,0.0,0.0,0.0,0.0,0.0,0.0,0.0,0.0,0.0,0.0,0.0,0.0,0.0,0.0,0.0,0.0,0.0,0.0,0.0,0.0,0.0,0.0,0.0,0.0,0.0,0.0,0.0,0.0,0.0,0.0,0.0,0.0,0.0,0.0,0.0,0.0,0.0,0.0,0.0,0.0,0.0,0.0,0.0,0.0,0.0,0.0,0.0,0.0,0.0,0.0,0.0,0.0,0.0,0.0,0.0,0.0,0.0,0.0,0.0,0.0,0.0,0.0,0.0,0.0,0.0,0.0,0.0,0.0,0.0,0.0,0.0,0.0,0.0,0.0,0.0,0.0,0.0,0.0,0.0,0.0,0.0,0.0,0.0,0.0,0.0,0.0,0.0,0.0,0.0,0.0,0.0,0.0,0.0,0.0,0.0,0.0,0.0,-0.3283,-0.3417,0.0,-0.3826,-0.4136,-0.4314,-0.4585,-0.4751,-0.4831,0.0,0.0,0.0,0.0,0.0,0.0,0.0,0.0,0.0,0.0,0.0,0.0,0.0,0.0,0.0,0.0,0.0,0.0,0.0,0.0,0.0,0.0,0.0,0.0,0.0,0.0,0.0,0.0,0.0,0.0,0.0,0.0,0.0,0.0,0.0,0.0,0.0,0.0,0.0,0.0,0.0,0.0,0.0,0.0,0.0,0.0,0.0,0.0,0.0,0.0,0.0,0.0,0.0,0.0,0.0,0.0,0.0,0.0,0.0,0.0,0.0,0.0,0.0,0.0,0.0,0.0,0.0,0.0,0.0,0.0,0.0,0.0,0.0,0.0,0.0,0.0,0.0,0.0,0.0,0.0,0.0,0.0,0.0,0.0,0.0,0.0,0.0,0.0,0.0,0.0,0.0,0.0,0.0,0.0,0.0,0.0,0.0,0.0,0.0,0.0,0.0,0.0,-0.3418,-0.3603,-0.3855,0.0,-0.4164,-0.4481,-0.4639,-0.506,-0.5218,-0.4996,0.0,0.0,0.0,0.0,0.0,0.0,0.0,0.0,0.0,0.0,0.0,0.0,0.0,0.0,0.0,0.0,0.0,0.0,0.0,0.0,0.0,0.0,0.0,0.0,0.0,0.0,0.0,0.0,0.0,0.0,0.0,0.0,0.0,0.0,0.0,0.0,0.0,0.0,0.0,0.0,0.0,0.0,0.0,0.0,0.0,0.0,0.0,0.0,0.0,0.0,0.0,0.0,0.0,0.0,0.0,0.0,0.0,0.0,0.0,0.0,0.0,0.0,0.0,0.0,0.0,0.0,0.0,0.0,0.0,0.0,0.0,0.0,0.0,0.0,0.0,0.0,0.0,0.0,0.0,0.0,0.0,0.0,0.0,0.0,0.0,0.0,0.0,0.0,0.0,0.0,0.0,0.0,0.0,0.0,0.0,0.0,0.0,0.0,0.0,0.0,0.0,0.0,-0.3933,-0.3925,-0.384,-0.3939,-0.4323,-0.4562,-0.4485,-0.5264,-0.5372,0.0,0.0,0.0,0.0,0.0,0.0,0.0,0.0,0.0,0.0,0.0,0.0,0.0,0.0,0.0,0.0,0.0,0.0,0.0,0.0,0.0,0.0,0.0,0.0,0.0,0.0,0.0,0.0,0.0,0.0,0.0,0.0,0.0,0.0,0.0,0.0,0.0,0.0,0.0,0.0,0.0,0.0,0.0,0.0,0.0,0.0,0.0,0.0,0.0,0.0,0.0,0.0,0.0,0.0,0.0,0.0,0.0,0.0,0.0,0.0,0.0,0.0,0.0,0.0,0.0,0.0,0.0,0.0,0.0,0.0,0.0,0.0,0.0,0.0,0.0,0.0,0.0,0.0,0.0,0.0,0.0,0.0,0.0,0.0,0.0,0.0,0.0,0.0,0.0,0.0,0.0,0.0,0.0,0.0,0.0,0.0,0.0,0.0,0.0,0.0,0.0,0.0,0.0,-0.4379,-0.4383,-0.4417,-0.4385,-0.4712,-0.506,-0.5298,-0.5681,-0.5817,-0.5516,0.0,0.0,0.0,0.0,0.0,0.0,0.0,0.0,0.0,0.0,0.0,0.0,0.0,0.0,0.0,0.0,0.0,0.0,0.0,0.0,0.0,0.0,0.0,0.0,0.0,0.0,0.0,0.0,0.0,0.0,0.0,0.0,0.0,0.0,0.0,0.0,0.0,0.0,0.0,0.0,0.0,0.0,0.0,0.0,0.0,0.0,0.0,0.0,0.0,0.0,0.0,0.0,0.0,0.0,0.0,0.0,0.0,0.0,0.0,0.0,0.0,0.0,0.0,0.0,0.0,0.0,0.0,0.0,0.0,0.0,0.0,0.0,0.0,0.0,0.0,0.0,0.0,0.0,0.0,0.0,0.0,0.0,0.0,0.0,0.0,0.0,0.0,0.0,0.0,0.0,0.0,0.0,0.0,0.0,0.0,0.0,0.0,0.0,0.0,0.0,0.0,0.0,-0.4817,-0.4815,-0.4847,-0.4828,-0.5049,-0.5285,-0.5641,-0.601,-0.6114,-0.5874,0.0,0.0,0.0,0.0,0.0,0.0,0.0,0.0,0.0,0.0,0.0,0.0,0.0,0.0,0.0,0.0,0.0,0.0,0.0,0.0,0.0,0.0,0.0,0.0,0.0,0.0,0.0,0.0,0.0,0.0,0.0,0.0,0.0,0.0,0.0,0.0,0.0,0.0,0.0,0.0,0.0,0.0,0.0,0.0,0.0,0.0,0.0,0.0,0.0,0.0,0.0,0.0,0.0,0.0,0.0,0.0,0.0,0.0,0.0,0.0,0.0,0.0,0.0,0.0,0.0,0.0,0.0,0.0,0.0,0.0,0.0,0.0,0.0,0.0,0.0,0.0,0.0,0.0,0.0,0.0,0.0,0.0,0.0,0.0,0.0,0.0,0.0,0.0,0.0,0.0,0.0,0.0,0.0,0.0,0.0,0.0,0.0,0.0,0.0,0.0,0.0,0.0,-0.5371,-0.5227,-0.5129,-0.5392,-0.5234,-0.5362,-0.583,-0.6388,-0.6426,-0.5879,0.0,0.0,0.0,0.0,0.0,0.0,0.0,0.0,0.0,0.0,0.0,0.0,0.0,0.0,0.0,0.0,0.0,0.0,0.0,0.0,0.0,0.0,0.0,0.0,0.0,0.0,0.0,0.0,0.0,0.0,0.0,0.0,0.0,0.0,0.0,0.0,0.0,0.0,0.0,0.0,0.0,0.0,0.0,0.0,0.0,0.0,0.0,0.0,0.0,0.0,0.0,0.0,0.0,0.0,0.0,0.0,0.0,0.0,0.0,0.0,0.3605,0.0,0.0,0.0,0.0,0.0,0.0,0.0,0.0,0.0,0.0,0.0,0.0,0.0,0.0,0.0,0.0,0.0,0.0,0.0,0.0,0.0,0.0,0.0,0.0,0.0,0.0,0.0,0.0,0.0,0.0,0.0,0.0,0.0,0.0,0.0,0.0,0.0,0.0,0.0,0.0,0.0,-0.5449,-0.5437,-0.5314,-0.5473,-0.5726,-0.6043,-0.65,-0.6907,-0.7202,-0.7428,-0.7572,0.0,0.0,0.0,0.0,0.0,0.0,0.0,0.0,0.0,0.0,0.0,0.0,0.0,0.0,0.0,0.0,0.0,0.0,0.0,0.0,0.0,0.0,0.0,0.0,0.0,0.0,0.0,0.0,0.0,0.0,0.0,0.0,0.0,0.0,0.0,0.0,0.0,0.0,0.0,0.0,0.0,0.0,0.0,0.0,0.0,0.0,0.0,0.0,0.0,0.0,0.0,0.0,0.0,0.0,0.0,0.0,0.0,0.0,0.0,0.0,0.2934,0.0,0.0,0.0,0.0,0.0,0.0,0.0,0.0,0.0,0.0,0.0,0.0,0.0,0.0,0.0,0.0,0.0,0.0,0.0,0.0,0.0,0.0,0.0,0.0,0.0,0.0,0.0,0.0,0.0,0.0,0.0,0.0,0.0,0.0,0.0,0.0,0.0,0.0,0.0,0.0,-0.631,-0.6189,-0.6067,-0.6116,-0.6238,-0.6442,-0.672,-0.7271,-0.7551,-0.7673,-0.7925,0.0,0.0,0.0,0.0,0.0,0.0,0.0,0.0,0.0,0.0,0.0,0.0,0.0,0.0,0.0,0.0,0.0,0.0,0.0,0.0,0.0,0.0,0.0,0.0,0.0,0.0,0.0,0.0,0.0,0.0,0.0,0.0,0.0,0.0,0.0,0.0,0.0,0.0,0.0,0.0,0.0,0.0,0.0,0.0,0.0,0.0,0.0,0.0,0.0,0.0,0.0,0.0,0.0,0.4164,0.3789,0.3497,0.3416,0.3052,0.2538,0.2559,0.2648,0.2671,0.2512,0.0,0.0,0.0,0.0,0.0,0.0,0.0,0.0,0.0,0.0,0.0,0.0,0.0,0.0,0.0,0.0,0.0,0.0,0.0,0.0,0.0,0.0,0.0,0.0,-0.5834,-0.607,0.0,0.0,0.0,0.0,0.0,0.0,0.0,0.0,0.0,0.0,0.0,0.0,-0.7154,-0.6818,-0.67,-0.685,-0.6837,-0.6824,-0.6937,-0.7503,-0.7867,-0.7701,-0.8172,-0.8464,0.0,0.0,0.0,0.0,0.0,0.0,0.0,0.0,0.0,0.0,0.0,0.0,0.0,0.0,0.0,0.0,0.0,0.0,0.0,0.0,0.0,0.0,0.0,0.0,0.0,0.0,0.0,0.0,0.0,0.0,0.0,0.0,0.7025,0.6478,0.0,0.0,0.0,0.0,0.0,0.0,0.0,0.0,0.0,0.0,0.0,0.0,0.0,0.5276,0.5234,0.4804,0.4431,0.4102,0.3902,0.3664,0.3657,0.3012,0.2622,0.262,0.2185,0.0,0.2129,0.2099,0.0,0.0,0.0,0.0,0.0,0.0,0.0,0.0,0.0,0.0,0.0,0.0,0.0,0.0,0.0,0.0,0.0,0.0,0.0,0.0,0.0,0.0,-0.6446,-0.6178,-0.638,-0.6696,0.0,-0.6997,-0.6636,-0.6953,-0.7144,0.0,0.0,0.0,0.0,0.0,0.0,0.0,-0.6932,-0.6689,-0.6751,-0.7177,-0.7217,-0.7376,-0.7823,-0.8137,-0.8553,-0.9003,-0.915,-0.9318,-0.9589,-0.9762,0.0,0.0,0.0,0.0,0.0,0.0,0.0,0.0,0.0,0.0,0.0,0.0,0.0,0.0,0.0,0.0,0.0,0.0,0.0,0.0,0.0,0.0,0.0,0.0,0.0,0.0,0.0,0.0,0.0,0.6895,0.6737,0.6272,0.6322,0.6116,0.0,0.0,0.0,0.0,0.0,0.0,0.0,0.0,0.0,0.543,0.5317,0.5115,0.4954,0.4576,0.4202,0.3964,0.3589,0.3333,0.3067,0.2778,0.2505,0.2371,0.2077,0.1799,0.1532,0.1905,0.1633,0.0989,0.0,0.0,0.0,0.0,-0.2322,-0.2877,-0.2831,-0.3039,0.0,-0.385,0.0,0.0,0.0,0.0,0.0,0.0,0.0,0.0,0.0,0.0,-0.6458,-0.6561,-0.6626,-0.6936,-0.7889,-0.7856,-0.7637,0.0,-0.7736,-0.7671,-0.7794,0.0,0.0,0.0,0.0,-0.774,-0.7876,-0.7696,-0.7642,-0.79,-0.8075,-0.826,-0.8481,-0.8927,-0.9236,-0.9133,-0.9442,-0.9706,-1.0132,-1.0398,-1.075,0.0,0.0,0.0,0.0,0.0,0.0,0.0,0.0,0.0,0.0,0.0,0.0,0.0,0.0,0.0,0.0,0.0,0.0,0.0,0.0,0.0,0.0,0.0,0.0,0.0,0.0,0.0,0.0,0.6878,0.6778,0.63,0.6215,0.6109,0.0,0.0,0.0,0.0,0.0,0.0,0.5534,0.5483,0.536,0.518,0.4993,0.4899,0.4634,0.4164,0.3917,0.3632,0.3229,0.2961,0.2693,0.2531,0.2386,0.212,0.2097,0.1565,0.0912,0.1684,0.1665,0.101,-0.0998,-0.1842,-0.2168,-0.2262,-0.2718,-0.3291,-0.3254,-0.3577,-0.4127,-0.4398,0.0,-0.4555,-0.4702,0.0,0.0,0.0,0.0,-0.6325,-0.6397,-0.6515,-0.6642,-0.6996,-0.6938,-0.713,-0.8218,-0.8291,-0.8158,0.0,-0.809,-0.8004,-0.826,0.0,0.0,0.0,0.0,-0.8357,-0.8688,-0.8508,-0.859,-0.8775,-0.887,-0.8967,-0.9147,-0.9592,-0.9689,-0.929,-0.9637,-1.0113,-1.066,-1.0882,-1.1323,-1.1887,0.0,0.0,0.0,0.0,0.0,0.0,0.0,0.0,0.0,0.0,0.0,0.0,0.0,0.0,0.0,0.0,0.0,0.0,0.0,0.0,0.0,0.0,0.0,0.0,0.0,0.0,0.0,0.0,0.0,0.6872,0.6598,0.0,0.0,0.0,0.0,0.5659,0.5271,0.5146,0.5153,0.5149,0.5182,0.5258,0.4536,0.4303,0.4303,0.3679,0.3271,0.3228,0.2827,0.2694,0.2694,0.2422,0.2152,0.2152,0.2151,0.1343,0.0134,0.1568,0.1024,-0.0884,-0.101,-0.161,-0.241,-0.3132,-0.346,-0.3886,-0.4469,-0.4888,-0.5079,-0.5225,-0.5516,-0.5624,-0.4949,-0.5219,0.0,0.0,-0.6552,-0.6877,-0.6888,-0.7057,-0.7243,-0.736,-0.7299,-0.7365,-0.8218,-0.8116,-0.8069,0.0,-0.8521,-0.843,-0.8427,0.0,-0.8412,-0.8219,-0.8804,-0.903,-0.87,-0.8823,-0.9083,-0.9493,-0.9366,-0.9307,-0.9717,-0.9816,-0.9956,-1.0309,-1.0136,-1.0475,-1.1395,-1.1284,-1.1537,-1.2377,-1.2143,0.0,0.0,0.0,0.0,0.0,0.0,0.0,0.0,0.0,0.0,0.0,0.0,0.0,0.0,0.0,0.0,0.0,0.0,0.0,0.0,0.0,0.0,0.0,0.0,0.0,0.0,0.0,0.0,0.6367,0.6283,0.0,0.5751,0.5605,0.5507,0.5349,0.5182,0.5066,0.4895,0.486,0.4738,0.4271,0.4062,0.3668,0.3232,0.3003,0.273,0.2558,0.2424,0.2424,0.2423,0.2268,0.1594,0.0796,0.0789,0.0395,-0.0133,-0.0525,-0.0783,-0.1168,-0.2078,-0.2423,-0.2732,-0.3478,-0.3813,-0.3997,-0.4553,-0.4961,-0.5255,-0.5434,-0.5493,-0.5542,-0.5688,-0.588,-0.6185,-0.6858,-0.716,-0.7229,-0.6917,-0.6994,-0.6972,-0.7013,-0.6938,-0.7128,-0.785,-0.7936,-0.7892,-0.8043,-0.8257,-0.8414,-0.8359,-0.8599,-0.8813,-0.9075,-0.9248,-0.9449,-0.9549,-0.961,-0.9782,-1.0092,-1.0062,-1.0331,-1.0928,-1.0911,-1.1155,-1.1496,-1.1513,-1.162,-1.2013,-1.2314,-1.2655,-1.3063,-1.3188,-1.3459,0.0,0.0,0.0,0.0,0.0,0.0,0.0,0.0,0.0,0.0,0.0,0.0,0.0,0.0,0.0,0.0,0.0,0.0,0.0,0.0,0.0,0.0,0.0,0.0,0.0,0.0,0.6715,0.6251,0.5962,0.59,0.5668,0.5413,0.5195,0.5032,0.4863,0.4747,0.4702,0.4421,0.4162,0.3793,0.3586,0.3183,0.2731,0.2619,0.2475,0.217,0.2159,0.2155,0.2154,0.2133,0.1328,-0.0,-0.066,-0.0793,-0.0929,-0.2002,-0.2133,-0.1725,-0.2642,-0.2979,-0.3028,-0.4038,-0.4498,-0.4673,-0.5324,-0.5516,-0.5612,-0.5852,-0.5794,-0.5884,-0.6345,-0.6522,-0.6786,-0.7341,-0.747,-0.7482,-0.7163,-0.7023,-0.691,-0.719,-0.7235,-0.7304,-0.8027,-0.8085,-0.8133,-0.8049,-0.8145,-0.833,-0.8479,-0.8819,-0.9142,-0.9696,-0.9759,-0.9962,-1.0188,-1.0364,-1.0414,-1.0605,-1.0803,-1.1045,-1.1581,-1.1837,-1.2092,-1.2466,-1.2524,-1.2655,-1.2842,-1.3039,-1.3522,-1.4016,-1.4341,-1.4695,-1.5101,0.0,0.0,0.0,0.0,0.0,0.0,0.0,0.0,0.0,0.0,0.0,0.0,0.0,0.0,0.0,0.0,0.0,0.0,0.0,0.0,0.0,0.0,0.0,0.7215,0.7037,0.6885,0.6423,0.6028,0.5762,0.5556,0.5159,0.4838,0.4839,0.444,0.4308,0.4311,0.3955,0.3848,0.3712,0.3104,0.2841,0.2804,0.2386,0.2232,0.2201,0.2172,0.2157,0.2157,0.2157,0.1347,-0.0135,-0.164,-0.232,-0.2292,-0.2735,-0.2864,-0.269,-0.2785,-0.3108,-0.3658,-0.4662,-0.5368,-0.6027,-0.6656,-0.6687,-0.6403,-0.6403,-0.6472,-0.6569,-0.6789,-0.7138,-0.7569,-0.7564,-0.7482,-0.7396,-0.7396,-0.7148,-0.7173,-0.7902,-0.7962,-0.8027,-0.8516,-0.8697,-0.8693,-0.8324,-0.8078,-0.8184,-0.8678,-0.9101,-0.9491,-1.0041,-1.0439,0.0,-1.0684,-1.0816,-1.085,-1.1043,-1.1386,-1.1595,-1.1794,-1.2388,-1.2786,-1.2915,-1.3197,-1.3521,-1.383,-1.3672,-1.4025,-1.5077,-1.5628,-1.5989,-1.6455,0.0,0.0,0.0,0.0,0.0,0.0,0.0,0.0,0.0,0.0,0.0,0.0,0.0,0.0,0.0,0.0,0.0,0.0,0.0,0.0,0.0,0.743,0.719,0.6868,0.6673,0.6564,0.6229,0.5919,0.5613,0.5443,0.5043,0.4659,0.4437,0.4171,0.3921,0.396,0.3564,0.3312,0.3065,0.2976,0.27,0.2385,0.2267,0.2263,0.2233,0.2224,0.2221,0.2219,0.1099,0.0137,-0.082,-0.2196,-0.273,-0.2562,-0.328,-0.3544,-0.3495,-0.3711,-0.4038,-0.4474,-0.5311,-0.6236,-0.7004,-0.7015,-0.6928,-0.6775,-0.7018,-0.6595,-0.6319,-0.6919,-0.7241,-0.7525,-0.7576,-0.7782,-0.7883,-0.7375,-0.7259,-0.7293,-0.7274,-0.7464,-0.776,-0.8287,-0.8515,-0.8601,-0.8924,-0.9042,-0.9202,-0.9404,-0.97,-1.0113,-1.0557,-1.0982,0.0,-1.1431,-1.1727,-1.1931,-1.2111,-1.2566,-1.2845,-1.3017,-1.3634,-1.3919,-1.4025,-1.4158,-1.4276,-1.4455,-1.4555,-1.504,-1.5873,-1.6175,-1.6512,0.0,0.0,0.0,0.0,0.0,0.0,0.0,0.0,0.0,0.0,0.0,0.0,0.0,0.0,0.0,0.0,0.0,0.0,0.0,0.0,0.0,0.0,0.7271,0.7013,0.6628,0.6641,0.6364,0.5998,0.571,0.5403,0.5197,0.4793,0.4403,0.417,0.3924,0.3678,0.357,0.3332,0.3085,0.2826,0.272,0.2443,0.1855,0.1859,0.1854,0.1839,0.2111,0.1819,0.1252,-0.0276,-0.1233,-0.1909,-0.2606,-0.3001,-0.2965,-0.3552,-0.3938,0.0,0.0,0.0,0.0,0.0,-0.7069,-0.7744,-0.7551,-0.7362,-0.7219,-0.7513,-0.7224,-0.6949,-0.7437,-0.7747,-0.7739,-0.776,-0.7819,-0.7896,-0.734,-0.7358,-0.7413,-0.7398,-0.7714,-0.8136,-0.8562,-0.8894,-0.9095,-0.9217,-0.97,0.0,-1.0274,-1.0627,-1.0965,-1.135,-1.1671,-1.1881,-1.2105,-1.231,-1.241,-1.2583,-1.3213,-1.3646,-1.3808,-1.4321,0.0,0.0,0.0,-1.5138,-1.5401,-1.5859,0.0,0.0,0.0,-1.7383,-1.7686,0.0,0.0,0.0,-1.9151,-1.9544,0.0,0.0,0.0,0.0,0.0,0.0,0.0,0.0,0.0,0.0,0.0,0.0,0.0,0.0,0.0,0.0,0.7072,0.6813,0.6538,0.651,0.6287,0.5582,0.5377,0.5212,0.4761,0.441,0.4175,0.3776,0.3684,0.3577,0.3311,0.0,0.0,0.0,0.0,0.1896,0.1022,0.0866,0.0861,0.1004,0.1557,0.1118,-0.0138,-0.1652,-0.2595,-0.2972,-0.3009,-0.3137,-0.3366,-0.3818,-0.4176,-0.4458,-0.4847,-0.5323,-0.5878,-0.7088,-0.7877,-0.825,-0.8011,0.0,0.0,-0.7957,-0.7938,-0.7908,-0.8023,-0.8122,-0.8282,-0.7904,-0.7663,-0.7681,-0.7464,-0.7413,-0.7539,-0.8043,-0.8467,-0.8888,-0.9134,-0.9429,-0.97,-0.9457,-1.0077,-1.0744,-1.1249,-1.1495,-1.1676,-1.2209,-1.2234,-1.2479,-1.2719,-1.2773,-1.2825,-1.2862,0.0,0.0,-1.4382,-1.5016,-1.5408,-1.5812,-1.5738,-1.5955,-1.6289,-1.7121,-1.7599,-1.7628,-1.7978,-1.8388,-1.8721,-1.8944,-1.9396,-2.0087,-2.0261,-2.0451,0.0,0.0,0.0,0.0,0.0,0.0,0.0,0.0,0.0,0.0,0.0,0.0,0.0,0.0,0.0,0.7334,0.7072,0.6813,0.6538,0.6127,0.5818,0.5741,0.5395,0.5174,0.4818,0.4298,0.3921,0.3829,0.3293,0.2914,0.3119,0.2569,0.2445,0.2472,0.2333,0.1606,0.0292,-0.1019,-0.1309,-0.0727,0.0,0.0,-0.0994,-0.2222,-0.302,-0.3422,-0.3978,-0.4222,-0.4572,-0.5257,-0.567,-0.61,-0.61,-0.6547,-0.7074,-0.7643,-0.7872,-0.8011,-0.7614,-0.7538,-0.7592,-0.7532,-0.7481,-0.7517,-0.7626,-0.7912,0.0,-0.7888,-0.7904,-0.809,-0.7902,-0.7838,-0.7926,-0.8149,-0.8157,-0.8366,-0.9493,-0.9477,-0.9579,-1.0425,-1.0884,-1.1234,-1.1269,-1.1614,-1.2031,-1.2573,-1.284,-1.308,-1.3084,-1.3508,-1.3807,-1.3957,-1.4881,-1.5426,-1.5332,-1.6095,-1.6295,-1.5823,-1.6065,-1.6297,-1.666,-1.7457,-1.8226,-1.8784,-1.9018,-1.9398,-1.9813,-2.0163,-2.0537,-2.1041,-2.0653,-2.0879,0.0,0.0,0.0,0.0,0.0,0.0,0.0,0.0,0.0,0.0,0.0,0.8714,0.8436,0.0,0.7782,0.718,0.6908,0.6514,0.6104,0.581,0.5619,0.5528,0.5169,0.4803,0.4301,0.4037,0.3655,0.3296,0.2904,0.2802,0.2715,0.2017,0.1885,0.2336,0.1606,0.0438,-0.1168,-0.1898,-0.2335,-0.2334,-0.2304,-0.2281,-0.2407,-0.3052,-0.3422,-0.3671,-0.4348,-0.4736,-0.5238,-0.6088,-0.6852,-0.7296,-0.7363,-0.7554,-0.763,-0.7872,-0.803,-0.8214,-0.7908,-0.7843,-0.7922,-0.7837,-0.7893,-0.7903,-0.7693,-0.7974,-0.8204,-0.777,-0.7978,-0.822,-0.816,-0.8301,-0.847,-0.8539,-0.87,-0.8967,-0.9697,-0.9822,-0.994,-1.0668,-1.1031,-1.1421,-1.1634,-1.1985,-1.2375,-1.2706,-1.3049,-1.3439,-1.3808,-1.4085,-1.4288,-1.468,-1.5638,-1.6118,-1.5882,-1.7011,-1.7297,-1.6506,-1.7247,-1.7663,-1.7397,-1.822,-1.8904,-1.959,-1.9838,-2.0256,-2.057,-2.1316,-2.1692,-2.1618,-2.1888,-2.2057,0.0,0.0,0.0,0.0,0.0,0.0,0.0,1.0766,1.0397,0.9994,0.9349,0.8759,0.8628,0.8153,0.7635,0.7047,0.6625,0.6212,0.5681,0.5624,0.5407,0.5154,0.4807,0.4438,0.3902,0.3643,0.3399,0.2758,0.2794,0.2691,0.2298,0.1742,0.146,0.146,0.0146,-0.1022,-0.2335,-0.2335,-0.277,-0.3342,-0.3297,-0.3396,-0.363,-0.358,-0.3671,-0.3902,-0.4707,-0.5369,-0.6015,-0.7045,-0.7671,-0.8168,-0.8461,-0.8292,-0.8027,-0.8153,-0.8355,-0.8463,-0.824,-0.8187,-0.8288,-0.8383,-0.8432,-0.8446,-0.8157,-0.8298,-0.8405,-0.7806,-0.8068,-0.8475,-0.8499,-0.8865,-0.9144,-0.9164,-0.9358,-0.97,-0.9822,-1.0061,-1.0425,-1.0789,-1.1156,-1.1574,-1.2,-1.2395,-1.279,-1.2946,-1.3306,-1.3953,-1.454,-1.4632,-1.4724,-1.5173,-1.6037,-1.6637,-1.655,-1.7541,-1.804,-1.736,-1.8438,-1.8894,-1.8252,-1.9045,-1.9723,-2.021,-2.0704,-2.1109,-2.1349,-2.2141,-2.2414,-2.2188,-2.3075,-2.3249,1.2896,1.2606,1.237,1.237,1.2297,1.2099,0.0,1.1122,1.0566,1.0356,0.9342,0.8628,0.8644,0.7914,0.7296,0.7017,0.6413,0.5978,0.576,0.5265,0.4766,0.4822,0.457,0.4172,0.3902,0.3268,0.2896,0.2934,0.255,0.2299,0.233,0.2189,0.1022,-0.1752,-0.1898,-0.2189,-0.2333,-0.2771,-0.29,-0.2865,-0.3252,-0.3349,-0.3303,-0.3664,-0.3908,-0.4307,-0.5649,-0.6805,-0.7641,-0.8136,-0.8381,-0.856,-0.9037,-0.8881,-0.8528,-0.8786,-0.8866,-0.8739,-0.8458,-0.8378,-0.8399,-0.8405,-0.8478,-0.8549,-0.8708,-0.8878,-0.8935,-0.8413,-0.8776,-0.9269,-0.9118,-0.9381,-0.9548,-0.9781,-0.9552,-0.9579,-1.0065,-1.0304,-1.0425,-1.0789,-1.1281,-1.1829,-1.2004,-1.2632,-1.3168,-1.3586,-1.4099,-1.4426,-1.472,-1.4949,-1.5251,-1.5634,-1.6233,-1.7077,-1.8009,-1.7898,-1.7824,-1.8298,-1.843,-1.855,-1.8735,-1.9894,-2.0585,-2.0767,-2.1533,-2.1962,-2.223,-2.2281,-2.2455,-2.2841,-2.3631,-2.3534,1.2585,1.2471,1.2441,1.2441,1.2496,1.2459,1.2117,1.1511,1.0906,1.0544,0.9436,0.8671,0.8754,0.7896,0.7122,0.0,0.6264,0.5715,0.5262,0.491,0.4677,0.4301,0.3901,0.3632,0.3498,0.3,0.2766,0.2522,0.2273,0.2304,0.2335,0.0584,-0.1022,-0.219,-0.2335,-0.2334,-0.2333,-0.277,-0.3042,-0.3146,-0.3527,-0.3759,-0.3982,-0.4063,-0.4575,-0.5515,-0.6451,-0.7592,-0.8802,-0.919,-0.9469,-0.9557,-0.9742,-0.965,-0.9401,-0.92,-0.9003,-0.8607,-0.8915,-0.8935,-0.8688,-0.8752,-0.8893,-0.9133,-0.8952,-0.9048,-0.9145,-0.8966,-0.9154,-0.9589,-0.9655,-0.9847,-1.0153,-1.0183,-1.011,-1.0183,-1.0304,-1.0668,-1.091,-1.1031,-1.1728,-1.2229,-1.2162,-1.2936,-1.3537,-1.3846,-1.4262,-1.4913,-1.5366,-1.5669,-1.616,-1.7351,-1.7194,-1.7552,-1.8975,-1.8993,-1.8877,-1.8968,-1.9435,-1.964,-1.9349,-2.0264,-2.0953,-2.113,-2.1937,-2.2567,-2.3008,-2.3126,-2.3383,-2.3588,-2.4502,-2.4625,1.2521,1.2471,1.2531,1.2531,1.2622,1.2629,1.2307,1.1566,1.0938,1.0591,0.9543,0.8735,0.8711,0.7843,0.6807,0.6458,0.5958,0.5409,0.4769,0.4545,0.4304,0.3902,0.3365,0.3095,0.3095,0.2874,0.25,0.1963,0.2139,0.1879,0.1021,-0.1022,-0.2336,-0.2335,-0.2334,-0.2333,-0.2478,-0.2906,-0.317,-0.3556,-0.393,-0.4154,-0.4372,-0.4462,-0.5245,-0.6585,-0.6851,-0.7875,-0.9377,-0.9773,-1.0081,-1.0216,-1.0385,-1.0181,-0.9967,-0.9771,-0.9299,-0.8861,-0.9514,-0.938,-0.913,-0.9312,-0.9425,-0.9505,-0.9338,-0.9414,-0.9484,-0.9444,-0.9618,-0.9903,-1.0194,-1.0418,-1.0503,-1.0465,-1.0668,-1.0668,-1.0304,-1.0789,-1.1273,-1.1273,-1.2028,-1.2589,-1.2649,-1.3304,-1.392,-1.4137,-1.4586,-1.5117,-1.5876,-1.616,-1.6946,-1.8162,-1.7725,-1.8019,-1.9543,-1.9587,-1.9611,-1.9861,-2.0261,-2.0459,-2.0404,-2.0948,-2.1418,-2.1685,-2.2384,-2.3038,-2.3546,-2.3837,-2.407,-2.4339,-2.5179,-2.5543,1.2861,1.2808,1.2758,1.2758,1.2602,1.2425,1.2429,1.1618,1.0774,1.0781,0.9815,0.8848,0.848,0.7593,0.683,0.6161,0.5604,0.516,0.4827,0.4303,0.3768,0.3768,0.3097,0.2828,0.0,0.2485,0.1964,0.1122,0.1869,0.1021,-0.2044,-0.219,-0.2335,-0.2333,-0.2333,-0.2479,-0.2916,-0.3168,-0.3554,-0.3929,-0.4291,-0.4369,-0.4311,-0.4574,-0.5644,-0.6985,-0.6985,-0.7781,-0.9111,-0.9519,-0.9839,-1.0114,-1.0518,-1.0356,-0.999,-1.0521,-1.018,-0.9655,-1.0054,-0.9921,-0.9766,-0.9895,-0.9811,-0.9763,-0.9888,-1.007,-1.0148,-0.9876,-1.0224,-1.0541,-1.0871,-1.0791,-1.0503,-1.0708,-1.0789,-1.0668,-0.9943,-1.0547,-1.1273,-1.1273,-1.2028,-1.2837,-1.3644,-1.3806,-1.4126,-1.4974,-1.5125,-1.5317,-1.5913,-1.6597,-1.713,-1.7535,-1.7588,-1.8255,-1.9543,-1.917,-1.9613,-2.1011,-2.0571,-2.0754,-2.1941,-2.1873,-2.2061,-2.2686,-2.3019,-2.3529,-2.4035,-2.4234,-2.4593,-2.5039,-2.5635,-2.6123,1.2388,1.2607,1.28,1.2932,1.3161,1.3108,1.2746,1.2051,1.1413,1.0568,0.9658,0.8741,0.824,0.7648,0.6882,0.6001,0.5554,0.5083,0.4571,0.4037,0.3768,0.3498,0.2962,0.0,0.0,0.0,0.0,0.1823,0.0285,-0.1157,-0.2189,-0.2335,-0.2333,-0.2333,-0.2625,-0.2759,-0.2879,-0.3441,-0.382,-0.3873,-0.4364,-0.4594,-0.4707,-0.4977,-0.5914,-0.6985,-0.725,-0.8048,-0.9123,-0.9615,-0.9759,-0.9865,-1.0412,-1.0438,-1.0131,-1.0723,-1.0743,-1.0305,-1.0521,-1.0323,-1.005,-1.0135,-1.0283,-1.0316,-1.0132,-1.0153,-1.031,-1.035,-1.0276,-1.0418,-1.0667,-1.0711,-1.0616,-1.0561,-1.0789,-1.091,-1.0304,-1.0917,-1.1683,-1.1796,-1.2457,-1.3143,-1.3593,-1.4121,-1.4747,-1.5341,-1.5608,-1.5844,-1.6338,-1.6748,-1.7394,-1.8431,-1.8406,-1.8849,-2.0206,-2.0139,-2.0335,-2.106,-2.1181,-2.1439,-2.2004,-2.2315,-2.256,-2.2711,-2.339,-2.3806,-2.4134,-2.4225,-2.4603,-2.5342,-2.5837,-2.6505,1.2393,1.2612,1.2814,1.3017,1.3208,1.3241,1.2826,1.2214,1.1531,1.0568,0.9571,0.8554,0.7929,0.7483,0.6712,0.5657,0.5463,0.5112,0.4441,0.3902,0.3498,0.3228,0.2827,0.2425,0.0,0.0,0.0,0.1401,-0.0852,-0.2304,-0.2333,-0.2333,-0.2328,-0.2318,-0.2607,-0.2878,-0.2982,-0.3675,-0.4044,-0.4225,-0.4591,-0.4973,-0.5242,-0.5512,-0.6182,-0.7254,-0.7386,-0.8076,-0.9061,-0.9411,-0.9609,-0.9796,-1.0298,-1.0474,-1.0335,-1.1023,-1.1023,-1.0852,-1.0749,-1.0531,-1.0254,-1.0339,-1.0419,-1.0376,-1.0376,-1.0344,-1.0287,-1.0452,-1.0416,-1.0352,-1.0584,-1.067,-1.0619,-1.0318,-1.0834,-1.1244,-1.0515,-1.118,-1.2,-1.2109,-1.2901,-1.3444,-1.3704,-1.4405,-1.4936,-1.5202,-1.5594,-1.607,-1.6483,-1.6753,-1.74,-1.8822,-1.8738,-1.923,-2.0596,-2.0742,-2.0958,-2.1469,-2.1676,-2.1952,-2.2309,-2.283,-2.3071,-2.321,-2.3891,-2.4345,-2.443,-2.486,-2.5398,-2.5949,-2.6702,-2.7366,1.2881,1.2822,1.2814,1.3017,1.3003,1.2858,1.268,1.2005,1.1163,1.0436,0.9331,0.831,0.7572,0.7112,0.6458,0.5405,0.5333,0.5112,0.4441,0.3632,0.3228,0.0,0.0,0.0,0.0,0.0,0.0,-0.014,0.0,-0.23,-0.2326,-0.233,-0.2318,-0.2289,-0.2715,-0.298,-0.3362,-0.3731,-0.4089,-0.4839,-0.4839,-0.5242,-0.5912,-0.5912,-0.6583,-0.7526,-0.7526,-0.7985,-0.8761,-0.9171,-0.9388,-0.9504,-1.0335,-1.0612,-1.0618,-1.1027,-1.1162,-1.1141,-1.0999,-1.067,-1.0505,-1.0632,-1.0359,-1.0117,-1.0374,-1.0405,-1.0386,-1.0485,-1.0423,-1.0338,-1.0656,-1.0689,-1.0518,-1.0365,-1.0934,-1.1301,-1.0805,-1.1556,-1.2308,-1.2316,-1.2974,-1.3744,-1.4001,-1.4544,-1.4931,-1.4931,-1.5202,-1.5724,-1.6369,-1.6499,-1.7017,-1.8442,-1.8595,-1.9299,-2.0956,-2.1183,-2.1555,-2.209,-2.2231,-2.2458,-2.3045,-2.3199,-2.3528,-2.4105,-2.4772,-2.5095,-2.4998,-2.6073,-2.6739,-2.6986,-2.7946,-2.8603,1.255,1.2712,1.2814,1.3017,1.3343,1.3384,1.2831,1.2226,1.1594,1.0359,0.9356,0.8339,0.753,0.687,0.6285,0.5485,0.5099,0.4841,0.4307,0.3632,0.0,0.3228,0.0,0.2155,0.2155,0.202,0.0,0.0,-0.168,-0.226,-0.2267,-0.2289,-0.243,-0.2679,-0.31,-0.336,-0.3729,-0.3952,-0.4322,-0.4839,-0.5111,-0.5512,-0.5912,-0.6449,-0.6987,-0.7526,-0.7791,-0.8208,-0.8641,-0.8866,-0.898,-0.909,-0.992,-1.0259,-1.0336,-1.0925,-1.1162,-1.1141,-1.0999,-1.0812,-1.0786,-1.0768,-1.0561,-1.0531,-1.066,-1.0558,-1.0429,-1.0517,-1.0458,-1.0263,-1.0433,-1.057,-1.0591,-1.0423,-1.1073,-1.1606,-1.1229,-1.1515,-1.2091,-1.2475,-1.303,-1.3544,-1.3935,-1.4502,-1.4931,-1.4931,-1.5453,-1.5974,-1.6104,-1.6618,-1.7394,-1.8822,-1.9388,-2.0131,-2.1348,-2.1673,-2.2078,-2.2399,-2.2496,-2.2808,-2.3602,-2.3991,-2.4479,-2.5147,-2.599,-2.6361,-2.6449,-2.7372,-2.7795,-2.7651,-2.8508,-2.9085,1.2441,1.2531,1.2673,1.2885,1.3063,1.3085,1.2698,1.2088,1.129,1.0173,0.9076,0.807,0.7222,0.6655,0.6049,0.5245,0.4975,0.4572,0.4172,0.3632,0.3095,0.2961,0.2558,0.0,0.175,0.202,0.1216,0.0,-0.1794,-0.2232,-0.2245,-0.2262,-0.2397,-0.2781,-0.3196,-0.359,-0.3949,-0.4323,-0.4708,-0.5109,-0.5379,-0.5781,-0.6183,-0.6717,-0.7121,-0.7526,0.0,-0.8352,-0.8674,-0.8742,-0.8842,-0.8951,-0.9781,-1.0104,-1.0302,-1.0918,-1.1162,-1.1141,-1.0999,-1.0948,-1.0924,-1.0768,-1.0541,-1.0359,-1.0619,-1.0517,-1.0399,-1.0399,-1.0385,-1.0358,-1.0297,-1.0579,-1.0739,-1.0424,-1.0966,-1.1524,-1.1268,-1.1585,-1.22,-1.2894,-1.3079,-1.3379,-1.4126,-1.4467,-1.48,-1.5066,-1.5458,-1.5974,-1.6359,-1.6748,-1.7523,-1.8944,-1.9705,-2.0635,-2.1919,-2.2493,-2.2771,-2.2879,-2.3193,-2.356,-2.3913,-2.4582,-2.5283,-2.5843,-2.6682,-2.7205,-2.7379,-2.8196,-2.8567,-2.8399,-2.9265,-2.9675,1.2441,1.2332,1.2498,1.2632,1.2597,1.2551,1.2308,1.1667,1.0794,0.9945,0.8762,0.7495,0.6852,0.6129,0.551,0.4839,0.4707,0.4438,0.3902,0.3363,0.296,0.2694,0.2424,0.1885,0.1212,0.175,0.1346,-0.0942,-0.177,-0.2206,-0.2232,-0.2237,-0.2504,-0.2881,-0.3289,-0.3677,-0.4308,-0.4572,-0.4975,-0.5381,-0.578,-0.6048,-0.6453,-0.6853,-0.7254,-0.7526,-0.7925,0.0,-0.8747,-0.8747,-0.8818,-0.8924,-0.9736,-1.0015,-1.0028,-1.0836,-1.1104,-1.1087,-1.0962,-1.0917,-1.0897,-1.0765,-1.0369,-1.0133,-1.0394,-1.0436,-1.0337,-1.0337,-1.0426,-1.0493,-1.0371,-1.0687,-1.0879,-1.0368,-1.0816,-1.1304,-1.1066,-1.1593,-1.241,-1.3206,-1.2994,-1.3074,-1.4254,-1.4417,-1.4571,-1.5337,-1.5593,-1.5984,-1.6877,-1.7007,-1.7653,-1.9072,-1.9833,-2.0821,-2.2489,-2.323,-2.3533,-2.3217,-2.4063,-2.4367,-2.4128,-2.5119,-2.5964,-2.6583,-2.7304,-2.7851,-2.8178,-2.8921,-2.9242,-2.9256,-3.0041,-3.043,1.2223,1.2219,1.2421,1.2234,1.2465,1.2467,1.1996,1.1386,1.0575,0.9181,0.8046,0.7128,0.6277,0.5501,0.4973,0.4839,0.4304,0.3902,0.3768,0.3231,0.2828,0.2694,0.2424,0.1885,0.1212,0.175,0.0,0.0,-0.1755,-0.2165,-0.217,-0.2468,-0.2879,-0.3648,-0.3917,-0.4183,-0.4308,-0.4572,-0.4975,-0.5381,-0.578,-0.6048,-0.6453,-0.7123,-0.7393,-0.7526,-0.8189,0.0,-0.8619,-0.8619,-0.869,-0.8791,-0.9092,-0.9385,-0.9467,-1.0171,-1.0398,-1.0394,-1.0635,-1.0761,-1.0755,-1.0727,-1.0704,-1.0548,-1.068,-1.0663,-1.0643,-1.0643,-1.0663,-1.0673,-1.0649,-1.0663,-1.0673,-1.0257,-1.0531,-1.0846,-1.0963,-1.1382,-1.1876,-1.1913,-1.2112,-1.2512,-1.3062,-1.3776,-1.4471,-1.4959,-1.5719,-1.6499,-1.7007,-1.7265,-1.791,-1.9322,-2.0342,-2.1375,-2.2559,-2.3518,-2.3906,-2.3802,-2.4274,-2.4683,-2.4906,-2.5221,-2.6073,-2.764,-2.7961,-2.8675,-2.9652,-3.0077,-3.0229,-3.024,-3.1117,-3.1517,1.2332,1.2327,1.2379,1.2131,1.2221,1.2192,1.1674,1.0982,1.0301,0.91,0.7979,0.6929,0.6038,0.5242,0.4705,0.4304,0.4037,0.3633,0.3231,0.2963,0.2694,0.2425,0.2289,0.202,0.175,0.0942,0.0135,-0.0808,-0.175,-0.2155,-0.2155,-0.2709,-0.3253,-0.3768,-0.4172,-0.4441,-0.4574,-0.4977,-0.5243,-0.5647,-0.6049,-0.6451,-0.6719,-0.7257,-0.766,-0.7791,-0.8323,0.0,-0.8587,-0.8587,-0.8622,-0.8668,-0.9009,-0.9154,-0.9203,-0.9816,-1.006,-1.0193,-1.0323,-1.0588,-1.0721,-1.0721,-1.0721,-1.0721,-1.0721,-1.0721,-1.0721,-1.0721,-1.0588,-1.0455,-1.0588,-1.0455,-1.0212,-1.0286,-1.0492,-1.0674,-1.0799,-1.119,-1.1555,-1.2031,-1.2149,-1.25,-1.3403,-1.3896,-1.4517,-1.5337,-1.6234,-1.6877,-1.7394,-1.8039,-1.8688,-1.945,-2.0469,-2.1549,-2.2462,-2.3559,-2.4161,-2.4241,-2.4683,-2.5244,-2.5749,-2.5997,-2.6862,-2.8271,-2.8708,-2.9343,-3.0193,-3.0788,-3.1129,-3.1149,-3.1928,-3.2512,1.2223,1.2219,1.2133,1.189,1.1915,1.1816,1.1201,1.0609,1.0009,0.8991,0.7764,0.6583,0.5778,0.5108,0.4438,0.3902,0.3633,0.3366,0.2828,0.2694,0.2559,0.2289,0.2155,0.2289,0.2289,0.0673,-0.0404,-0.0538,-0.1616,-0.2289,-0.2423,-0.296,-0.3498,-0.3902,-0.4172,-0.4441,-0.4839,-0.5245,-0.5513,-0.5912,-0.6317,-0.6719,-0.6985,-0.739,-0.7658,-0.8058,-0.8456,0.0,0.0,-0.8587,-0.8587,-0.8587,-0.8851,-0.8984,-0.8984,-0.9392,-0.9791,-0.9924,-1.019,-1.0323,-1.0588,-1.0721,-1.0721,-1.0721,-1.0721,-1.0721,-1.0721,-1.0721,-1.0455,-1.0323,-1.0588,-1.0326,-0.9828,-1.01,-1.0375,-1.0586,-1.0776,-1.099,-1.1479,-1.241,-1.2331,-1.2519,-1.3923,-1.4347,-1.4913,-1.605,-1.665,-1.7394,-1.8039,-1.8816,-1.9328,-1.9833,-2.0722,-2.1703,-2.2709,-2.3761,-2.4571,-2.4862,-2.5349,-2.5861,-2.6367,-2.6866,-2.7628,-2.8794,-2.9333,-2.9973,-3.0703,-3.1316,-3.1784,-3.201,-3.2769,-3.3422,1.1787,1.1678,1.1652,1.1317,1.1544,1.1541,1.0913,1.0525,0.9751,0.8095,0.711,0.6183,0.5109,0.4304,0.3902,0.3768,0.3231,0.2828,0.2694,0.2425,0.2289,0.2155,0.2155,0.2424,0.2828,0.2289,0.1346,0.0,-0.1616,-0.2828,-0.3094,-0.3498,-0.3902,-0.4307,-0.4308,-0.4441,-0.4839,-0.5245,-0.5513,-0.5912,-0.6317,-0.6719,-0.6985,-0.739,-0.7658,-0.8058,-0.8456,-0.8587,0.0,-0.8587,-0.8587,-0.8587,-0.8587,-0.8587,-0.872,-0.8984,-0.9117,-0.925,-0.9924,-1.0193,-1.0323,-1.0588,-1.0721,-1.0721,-1.0721,-1.0721,-1.0721,-1.0721,-1.0721,-1.0721,-1.0721,-1.0455,-1.0092,-0.9552,-0.9823,-1.0228,-1.0342,-1.094,-1.1468,-1.1742,-1.2099,-1.2793,-1.3562,-1.4297,-1.5287,-1.6568,-1.7152,-1.7664,-1.8442,-1.92,-1.996,-2.0856,-2.1607,-2.2369,-2.3399,-2.4757,-2.5578,-2.5827,-2.6373,-2.6777,-2.7075,-2.7322,-2.7853,-2.9026,-2.9649,-3.0474,-3.1516,-3.1884,-3.235,-3.2816,-3.3648,-3.4466,1.1928,1.2072,1.2037,1.1511,1.1578,1.1657,1.0856,1.0355,0.9755,0.8228,0.7112,0.6183,0.5379,0.4574,0.3902,0.3498,0.0,0.2827,0.2424,0.2289,0.2155,0.2155,0.2155,0.2289,0.2694,0.2828,0.1481,-0.175,-0.2558,-0.323,-0.3498,-0.3768,-0.3902,-0.4308,-0.4308,-0.4575,-0.5111,-0.5381,-0.5649,-0.6317,-0.6453,-0.6721,-0.7257,-0.7393,-0.7791,-0.8456,-0.8587,-0.8587,0.0,-0.8587,-0.8587,-0.8587,-0.8853,-0.8851,-0.8851,-0.9117,-0.9203,-0.9401,-0.9404,-0.967,-1.0061,-1.0192,-1.0514,-1.0721,-1.0721,-1.0721,-1.0721,-1.0721,-1.0588,-1.0455,-1.0455,-0.9984,-0.952,-0.9166,-0.9607,-1.0174,-1.0147,-1.1117,-1.1857,-1.192,-1.2608,-1.338,-1.3836,-1.4634,-1.5467,-1.6323,-1.7037,-1.7793,-1.8577,-1.959,-2.0602,-2.1607,-2.1985,-2.2606,-2.386,-2.4972,-2.5797,-2.6253,-2.6705,-2.7355,-2.7845,-2.7975,-2.8601,-2.9869,-3.0266,-3.0888,-3.1823,-3.263,-3.3233,-3.3625,-3.4858,-3.5712,1.1899,1.1966,1.2056,1.1583,1.1661,1.163,1.0729,1.0345,0.9755,0.8359,0.7245,0.6185,0.5515,0.471,0.4038,0.0,0.0,0.3095,0.2558,0.2558,0.2424,0.2424,0.2289,0.2425,0.2694,0.2559,0.0942,-0.2964,-0.323,-0.3363,-0.3768,-0.3902,-0.4038,-0.4308,-0.4441,-0.471,-0.5381,-0.5513,-0.5917,-0.6453,-0.6453,-0.6855,-0.7526,-0.7526,-0.7925,-0.8587,-0.8587,-0.8587,0.0,-0.8587,-0.872,-0.872,-0.8851,-0.912,-0.9247,-0.9076,-0.9142,-0.932,-0.9148,-0.9395,-0.966,-1.0091,-1.0303,-1.0531,-1.0707,-1.0721,-1.0721,-1.0721,-1.0455,-1.019,-1.006,-0.9621,-0.905,-0.8815,-0.9538,-1.0103,-1.0187,-1.1147,-1.2009,-1.2039,-1.283,-1.3591,-1.4096,-1.4838,-1.5638,-1.6308,-1.7163,-1.7916,-1.8822,-1.9845,-2.1109,-2.2362,-2.2724,-2.3223,-2.4363,-2.5359,-2.6148,-2.6719,-2.7168,-2.7781,-2.8497,-2.8731,-2.9343,-3.0495,-3.0991,-3.171,-3.2521,-3.3534,-3.4213,-3.4569,-3.5928,-3.6803,1.1363,1.1193,1.1057,1.1407,1.1496,1.1426,1.0872,1.0543,0.9755,0.8359,0.7245,0.6185,0.5515,0.4574,0.3768,0.0,0.0,0.3228,0.3228,0.3228,0.3095,0.2694,0.2694,0.2694,0.2828,0.1616,-0.0404,-0.2964,-0.323,0.0,-0.3768,-0.4172,-0.4308,-0.4308,-0.4574,-0.4975,-0.5381,-0.578,-0.6048,-0.6453,-0.6453,-0.6855,-0.7526,-0.7526,-0.7925,-0.8587,-0.8587,-0.8587,0.0,-0.8587,-0.8853,-0.9117,-0.872,-0.8989,-0.9646,-0.9118,-0.8938,-0.8918,-0.9553,-0.9252,-0.902,-1.0187,-1.0234,-1.0133,-1.0541,-1.0721,-1.0721,-1.0721,-1.0455,-1.006,-0.9794,-0.9221,-0.8799,-0.8921,-0.9316,-0.9862,-1.0422,-1.0921,-1.1625,-1.2156,-1.254,-1.3038,-1.4074,-1.4976,-1.5904,-1.67,-1.7413,-1.8419,-1.945,-2.0221,-2.1355,-2.3355,-2.4209,-2.4702,-2.5103,-2.5986,-2.6719,-2.729,-2.7817,-2.8258,-2.8916,-2.9586,-3.0193,-3.0785,-3.1801,-3.2823,-3.3545,-3.4628,-3.5391,-3.5928,-3.6709,-3.773,1.1572,1.163,1.1714,1.1253,1.1554,1.1635,1.0737,1.0345,0.9751,0.8359,0.6979,0.5914,0.5515,0.471,0.4038,0.3902,0.3498,0.3095,0.2827,0.2692,0.2424,0.2424,0.2694,0.2289,0.1077,0.0808,-0.0404,-0.323,-0.3363,-0.3498,-0.4172,-0.4307,-0.4441,-0.4572,-0.4707,-0.5109,-0.578,-0.5861,-0.5965,-0.6359,-0.6628,-0.7024,-0.7419,-0.7757,-0.8189,-0.8587,-0.8587,-0.8587,0.0,-0.8851,-0.8984,-0.9108,-0.9419,-0.9649,-0.9895,-0.9623,-0.9261,-0.9052,-0.8875,-0.8734,-0.8758,-0.9142,-0.9635,-1.0003,-1.028,-1.0455,-1.0721,-1.0721,-1.0323,-0.9816,-0.9768,-0.9281,-0.8802,-0.9198,-0.9462,-0.9801,-1.036,-1.1001,-1.1563,-1.1873,-1.2795,-1.3721,-1.4074,-1.511,-1.6037,-1.67,-1.7413,-1.8355,-1.9437,-2.0546,-2.1789,-2.3145,-2.4252,-2.5327,-2.6441,-2.6815,-2.7409,-2.8168,-2.835,-2.869,-2.9576,-3.0056,-3.0703,-3.1607,-3.251,-3.3411,-3.4433,-3.5295,-3.6439,-3.7743,-3.8187,-3.8922,1.1475,1.163,1.1684,1.1414,1.1632,1.1736,1.0909,1.0512,0.9816,0.835,0.6949,0.5876,0.551,0.4844,0.4172,0.4038,0.3633,0.3363,0.3097,0.2827,0.2558,0.2425,0.202,0.1346,0.0135,-0.0269,-0.1346,-0.3498,-0.3363,-0.3498,-0.4307,-0.4308,-0.4575,-0.4975,-0.4975,-0.523,-0.5869,-0.5952,-0.6041,-0.6266,-0.6528,-0.6918,-0.731,-0.7636,-0.806,-0.8456,-0.8503,0.0,0.0,-0.8766,-0.889,-0.8967,-0.9281,-0.9506,-0.9745,-0.9348,-0.912,-0.8922,-0.8868,-0.86,-0.8383,-0.8937,-0.9506,-1.0074,-1.0296,-1.0588,-1.0721,-1.0721,-1.0323,-0.9958,-0.9952,-0.9446,-0.9086,-0.9675,-0.978,-1.0076,-1.0602,-1.1121,-1.1692,-1.222,-1.3251,-1.4026,-1.4365,-1.5585,-1.6537,-1.6844,-1.7826,-1.8893,-1.9992,-2.1139,-2.2479,-2.4078,-2.5093,-2.6167,-2.7633,-2.7514,-2.7604,-2.8333,-2.8732,-2.9449,-3.0348,-3.0957,-3.1685,-3.261,-3.3315,-3.4115,-3.5102,-3.6451,-3.787,-3.9194,-3.9528,-4.0274,0.0,1.1164,1.1435,1.1604,1.179,1.182,1.1122,1.0668,0.0,0.8447,0.7156,0.608,0.5494,0.4841,0.4308,0.4308,0.4038,0.3768,0.3768,0.3363,0.3095,0.2828,0.1077,-0.0,-0.0135,-0.1346,-0.2558,-0.3499,-0.3363,-0.3498,-0.4307,-0.4308,-0.471,-0.5381,-0.5376,-0.5606,-0.5798,-0.6175,-0.6255,-0.6172,-0.6172,-0.6556,-0.7196,-0.7205,-0.7591,0.0,0.0,0.0,0.0,-0.8359,-0.8596,-0.8744,-0.8353,-0.873,-0.9221,-0.8708,-0.8667,-0.878,-0.9139,-0.8738,-0.8181,-0.9302,-0.9961,-1.0323,-1.0588,-1.0721,-1.0721,-1.0721,-1.0462,-1.0238,-1.0373,-0.9872,-0.9537,-1.0205,-1.0269,-1.0407,-1.1221,-1.1653,-1.2131,-1.2879,-1.362,-1.4374,-1.4838,-1.6267,-1.726,-1.719,-1.8522,-1.998,-2.1013,-2.1785,-2.3215,-2.5782,-2.6298,-2.7077,-2.8747,-2.7937,-2.7572,-2.8151,-2.9253,-3.0314,-3.12,-3.2235,-3.309,-3.3651,-3.4357,-3.5066,-3.5824,-3.8036,-3.9547,-4.0332,-4.0742,-4.1658,1.0791,0.0,1.1427,1.1027,1.1405,1.1697,0.0,1.0137,0.9545,0.8318,0.6846,0.5663,0.5291,0.4675,0.4308,0.4308,0.3768,0.3363,0.3363,0.2826,0.2154,0.1616,0.0673,-0.0404,-0.1616,-0.202,-0.2558,-0.3229,-0.3228,-0.3498,-0.4307,-0.4574,-0.4842,-0.5381,-0.5592,-0.5814,-0.6187,-0.6056,-0.6104,-0.6084,-0.6334,-0.671,-0.7088,-0.7422,-0.7845,0.0,0.0,0.0,-0.8236,-0.8523,-0.8773,-0.8863,-0.8893,-0.9105,-0.9462,-0.9192,-0.9211,-0.9408,-0.9265,-0.9106,-0.9058,-0.9739,-1.0176,-1.0588,-1.0721,-1.0721,-1.0721,-1.0721,-1.0531,-1.038,-1.0522,-1.0363,-1.0183,-1.0953,-1.0905,-1.1031,-1.1664,-1.2048,-1.2508,-1.2857,-1.3798,-1.4764,-1.5216,-1.6265,-1.7385,-1.8427,-1.9546,-2.076,-2.2052,-2.3058,-2.4131,-2.5568,-2.6388,-2.7211,-2.7934,-2.8361,-2.9085,-3.0313,-3.0486,-3.1113,-3.2544,-3.2967,-3.3673,-3.4774,-3.6062,-3.7152,-3.7925,-3.9282,-4.0418,-4.1388,-4.1472,-4.2188,1.0148,1.0712,1.1236,1.1021,1.1338,1.1545,1.0646,1.0208,0.9754,0.8438,0.7103,0.6215,0.5777,0.5036,0.4542,0.457,0.3767,0.3094,0.2826,0.241,0.1867,0.12,0.0133,-0.0926,0.0,-0.2133,-0.2406,-0.3092,-0.3228,-0.3632,-0.444,-0.4707,-0.5109,-0.5647,-0.5668,-0.5868,-0.6253,-0.6121,-0.6033,-0.599,-0.6361,-0.6731,-0.6981,-0.7413,-0.7692,0.0,0.0,0.0,-0.8073,-0.838,-0.8494,-0.8438,-0.862,-0.8844,-0.9079,-0.9123,-0.9265,-0.9445,-0.9487,-0.9771,-1.0025,-1.0105,-1.0538,-1.0982,-1.0982,-1.1118,-1.1118,-1.0986,-1.0908,-1.0887,-1.1241,-1.1175,-1.1101,-1.1864,-1.1726,-1.1611,-1.246,-1.2819,-1.3097,-1.3712,-1.4568,-1.5433,-1.5999,-1.7093,-1.8222,-1.9142,-2.0288,-2.1407,-2.2701,-2.3562,-2.4657,-2.6052,-2.703,-2.7975,-2.8885,-2.9682,-3.0328,-3.0721,-3.1527,-3.2362,-3.3369,-3.4193,-3.5107,-3.6126,-3.7073,-3.8062,-3.927,-4.0275,-4.1521,-4.2907,-4.257,-4.3385,0.9522,1.0079,1.0983,1.1013,1.1255,1.1452,1.0658,1.0386,0.9926,0.8548,0.757,0.683,0.6373,0.5384,0.476,0.4803,0.3875,0.2941,0.2275,0.2251,0.1971,0.1314,-0.013,0.0,-0.2106,-0.2241,-0.2519,-0.3091,-0.3228,-0.3767,-0.4707,-0.4841,-0.5242,-0.578,-0.5754,-0.5799,-0.618,-0.6082,-0.5994,-0.6039,-0.6283,-0.665,-0.7023,-0.7266,-0.7627,-0.7877,0.0,0.0,-0.788,-0.8107,-0.8091,-0.7994,-0.8366,-0.8491,-0.8613,-0.8976,-0.923,-0.9615,-0.9883,-1.0411,-1.0742,-1.0538,-1.0862,-1.1347,-1.124,-1.1516,-1.178,-1.1512,-1.1398,-1.1488,-1.2186,-1.1913,-1.1797,-1.2622,-1.2367,-1.2149,-1.3199,-1.3505,-1.3985,-1.4795,-1.557,-1.6323,-1.6973,-1.8279,-1.925,-1.9621,-2.0837,-2.2038,-2.3141,-2.3953,-2.5138,-2.6999,-2.7887,-2.9012,-3.0374,-3.1391,-3.1688,-3.1002,-3.2553,-3.3801,-3.434,-3.5864,-3.6964,-3.7404,-3.7848,-3.8727,-4.0231,-4.1288,-4.2691,-4.4446,-4.4006,-4.488,0.9557,0.9883,1.0174,1.0327,1.0843,1.1027,1.0265,0.9869,0.9411,0.8391,0.7451,0.6701,0.6191,0.5311,0.4729,0.4681,0.3765,0.2857,0.2208,0.2203,0.2201,0.2074,0.0,-0.1297,-0.2106,-0.2373,-0.2651,-0.3225,-0.3498,-0.3902,-0.4307,-0.4978,-0.5381,-0.5513,-0.5885,-0.618,-0.618,-0.6266,-0.6296,-0.6283,-0.6653,-0.7021,-0.7385,-0.7385,-0.7627,-0.7872,0.0,-0.7888,-0.7872,-0.8264,-0.8386,-0.8366,-0.8732,-0.9098,-0.9579,-0.97,-1.0148,-1.0772,-1.0915,-1.1029,-1.0996,-1.1272,-1.1523,-1.185,-1.1735,-1.1912,-1.2177,-1.2177,-1.2014,-1.1899,-1.222,-1.2354,-1.2462,-1.2959,-1.2939,-1.2959,-1.3472,-1.4331,-1.4995,-1.5271,-1.6581,-1.7684,-1.778,-1.8655,-1.964,-2.0393,-2.1612,-2.273,-2.3708,-2.5257,-2.6685,-2.7773,-2.8692,-2.9685,-3.0903,-3.2004,-3.2843,-3.3682,-3.4247,-3.5153,-3.6656,-3.7762,-3.8452,-3.8454,-3.9682,-4.0695,-4.1485,-4.2628,-4.3976,-4.5573,-4.5376,-4.6174,0.9127,0.9453,0.9778,0.9831,1.0366,1.0616,1.0043,0.9658,0.9215,0.8386,0.7573,0.6977,0.6643,0.5642,0.4689,0.3915,0.0,0.2735,0.2196,0.2179,0.1919,0.0,0.0,-0.1403,-0.2498,-0.2618,-0.2893,-0.3492,-0.3633,-0.4171,-0.4844,-0.5247,-0.5649,-0.5917,-0.6278,-0.6441,-0.6441,-0.6751,-0.6771,-0.6403,-0.6896,-0.7266,-0.7385,-0.7627,-0.775,-0.7872,0.0,-0.8122,-0.8244,-0.8488,-0.8613,-0.8735,-0.9217,-0.9579,-0.9822,-1.0425,-1.0837,-1.1161,-1.1495,-1.1526,-1.1561,-1.1465,-1.1834,-1.2199,-1.2244,-1.2299,-1.258,-1.3066,-1.2628,-1.2201,-1.2632,-1.2604,-1.2689,-1.3335,-1.3283,-1.3299,-1.4204,-1.4932,-1.5602,-1.5963,-1.7104,-1.8041,-1.8347,-1.9094,-1.9928,-2.1229,-2.2215,-2.3325,-2.4702,-2.5954,-2.7218,-2.837,-2.953,-3.0626,-3.1828,-3.3004,-3.4159,-3.5271,-3.5955,-3.674,-3.7993,-3.8944,-3.9452,-3.9546,-4.0629,-4.1783,-4.2929,-4.3559,-4.4841,-4.6638,-4.6319,-4.6861,0.8674,0.8929,0.9305,0.9279,0.9836,1.0109,0.9876,0.9381,0.8937,0.0,0.0,0.7155,0.6853,0.5691,0.4486,0.3256,0.3003,0.26,0.1671,0.1658,0.1147,-0.0386,-0.1009,-0.189,-0.2877,-0.2857,-0.3128,-0.3742,-0.3895,-0.4438,-0.5245,-0.5381,-0.5774,-0.6423,-0.6658,-0.6688,-0.6792,-0.7237,-0.7141,-0.6648,-0.7263,-0.7508,-0.7508,-0.775,-0.7994,-0.7997,-0.8244,-0.8491,-0.8491,-0.8854,-0.9098,-0.9217,-0.97,-1.0065,-1.0304,-1.1156,-1.1398,-1.1398,-1.1651,-1.1861,-1.1975,-1.1646,-1.1876,-1.2284,-1.2627,-1.2693,-1.2859,-1.3692,-1.3354,-1.274,-1.3181,-1.31,-1.3141,-1.3823,-1.3743,-1.3754,-1.4906,-1.5462,-1.5986,-1.6804,-1.7593,-1.8329,-1.907,-1.9621,-2.0559,-2.1846,-2.2718,-2.3687,-2.5295,-2.6472,-2.7714,-2.8901,-3.0179,-3.1602,-3.2859,-3.4294,-3.5459,-3.6447,-3.722,-3.8083,-3.9095,-3.9901,-4.0545,-4.0965,-4.1674,-4.2739,-4.4181,-4.449,-4.561,-4.7381,-4.725,-4.7699,0.8391,0.857,0.8611,0.8779,0.9151,0.9485,0.9601,0.9035,0.0,0.8201,0.0,0.0,0.0,0.4942,0.3729,0.2905,0.2658,0.2025,0.0253,0.0,-0.0515,-0.1934,-0.2417,-0.2791,-0.3356,-0.3484,-0.3632,-0.3689,-0.4406,-0.4707,-0.4841,-0.551,-0.6011,-0.6329,-0.6623,-0.678,-0.6934,-0.7197,-0.7385,-0.7385,-0.775,-0.7872,-0.7872,-0.7872,-0.8119,-0.8369,-0.8369,-0.8613,-0.8854,-0.9217,-0.9457,-0.9822,-1.0186,-1.0668,-1.1273,-1.1651,-1.1776,-1.1776,-1.1776,-1.1784,-1.1821,-1.1979,-1.204,-1.2113,-1.2846,-1.3079,-1.3117,-1.3692,-1.3875,-1.3792,-1.4125,-1.4044,-1.4044,-1.4196,-1.4455,-1.4663,-1.4866,-1.5639,-1.6507,-1.7524,-1.8513,-1.9456,-2.0105,-2.0812,-2.1478,-2.2089,-2.2856,-2.3842,-2.4951,-2.6637,-2.8253,-2.92,-3.0721,-3.2396,-3.3835,-3.5827,-3.7,-3.7039,-3.7657,-3.8629,-4.0213,-4.088,-4.1763,-4.2925,-4.328,-4.3854,-4.4805,-4.5667,-4.6609,-4.7624,-4.8392,-4.8969,0.8076,0.7968,0.7843,0.8206,0.8069,0.0,0.0,0.8412,0.7936,0.7861,0.7098,0.0,0.0,0.0,0.3507,0.29,0.178,0.0765,0.0,-0.115,-0.22,-0.2613,-0.2946,-0.3313,-0.3652,-0.3728,-0.3966,-0.4286,-0.4701,-0.5106,-0.5628,-0.5889,-0.6266,-0.6879,-0.704,-0.7219,-0.7303,-0.7562,-0.775,-0.775,-0.7872,-0.7872,-0.7872,-0.7872,-0.7994,-0.8119,-0.8488,-0.8778,-0.9091,-0.9615,-0.9998,-1.032,-1.0708,-1.1156,-1.1647,-1.1776,-1.1776,-1.1776,-1.2005,-1.2005,-1.2134,-1.2323,-1.247,-1.2538,-1.3295,-1.3414,-1.3348,-1.4312,-1.4539,-1.4422,-1.4104,-1.3989,-1.4121,-1.4522,-1.4913,-1.5284,-1.5984,-1.6907,-1.7738,-1.8245,-1.9195,-2.0129,-2.0522,-2.1176,-2.1989,-2.3126,-2.3738,-2.477,-2.6652,-2.7939,-2.9257,-3.046,-3.2551,-3.4472,-3.5592,-3.7224,-3.8241,-3.8579,-3.9287,-3.9933,-4.0354,-4.2029,-4.3135,-4.3364,-4.4138,-4.4995,-4.5947,-4.6447,-4.7091,-4.8049,-4.8785,-4.9356,0.8012,0.7814,0.7507,0.7714,0.7401,0.7177,0.7959,0.7823,0.7489,0.7504,0.6522,0.5247,0.4116,0.0,0.0,0.0,0.1142,-0.0255,-0.1011,-0.2183,-0.3125,-0.3271,-0.3474,-0.3707,-0.4022,-0.4209,-0.4431,-0.4733,-0.5141,-0.5538,-0.5923,-0.6308,-0.6679,-0.7157,-0.7343,-0.7538,-0.7624,-0.779,-0.7872,-0.7872,-0.7872,-0.7872,-0.7872,-0.7872,-0.7994,-0.8241,-0.8732,-0.9026,-0.9344,-0.9981,-1.049,-1.0826,-1.1323,-1.1647,-1.1776,-1.1893,-1.1889,-1.201,-1.2242,-1.2359,-1.2359,-1.2599,-1.2719,-1.2794,-1.3559,-1.3681,-1.3888,-1.4818,-1.5197,-1.5192,-1.4665,-1.453,-1.4665,-1.5192,-1.5578,-1.6089,-1.6872,-1.7653,-1.8333,-1.9032,-1.973,-2.0454,-2.1279,-2.1742,-2.2601,-2.437,-2.4781,-2.5763,-2.797,-2.9063,-3.0201,-3.1871,-3.423,-3.5906,-3.6663,-3.8354,-3.9458,-3.9664,-4.0829,-4.1463,-4.114,-4.3075,-4.4186,-4.4376,-4.5168,-4.6031,-4.7004,-4.7264,-4.7658,-4.8296,-4.9166,-4.971,0.8269,0.7959,0.7542,0.7542,0.7226,0.6864,0.71,0.7154,0.7145,0.7143,0.5726,0.4193,0.3579,0.2961,0.0,0.2099,0.0876,-0.0758,-0.2777,-0.2977,-0.3146,-0.4003,-0.4125,-0.4357,-0.4921,-0.5039,-0.5039,-0.5039,-0.5745,-0.5921,-0.5668,-0.6565,-0.7155,-0.7048,-0.7301,-0.7622,-0.7872,-0.7872,-0.7872,-0.7872,-0.7872,-0.7872,-0.7872,-0.7872,-0.8238,-0.8854,-0.8854,-0.9217,-0.9822,-1.0186,-1.0668,-1.1394,-1.1651,-1.1776,-1.1897,-1.2122,-1.2234,-1.2234,-1.2599,-1.2719,-1.2719,-1.2724,-1.2724,-1.2915,-1.3559,-1.4062,-1.4533,-1.5346,-1.5719,-1.5974,-1.5974,-1.5974,-1.5969,-1.5969,-1.6488,-1.7007,-1.7001,-1.7518,-1.8447,-1.9615,-2.0073,-2.0765,-2.2641,-2.2996,-2.3577,-2.5343,-2.5829,-2.6663,-2.8637,-2.9603,-3.097,-3.3548,-3.5258,-3.6494,-3.7005,-3.9136,-4.0394,-4.0228,-4.2026,-4.3087,-4.3074,-4.3938,-4.5018,-4.621,-4.6491,-4.7004,-4.7904,-4.8187,-4.8266,-4.8261,-4.9568,-5.0064,0.7529,0.7094,0.6676,0.6883,0.6741,0.6635,0.7214,0.7315,0.0,0.0,0.5242,0.4193,0.3455,0.2467,0.0,0.0741,-0.0375,-0.1514,-0.265,-0.3078,-0.3498,-0.3998,-0.4216,-0.4562,-0.4916,-0.5117,-0.5333,-0.5333,-0.5729,-0.5994,-0.6116,-0.674,-0.71,-0.7313,-0.7436,-0.7541,-0.7872,-0.7627,-0.7627,-0.7872,-0.7872,-0.7872,-0.7872,-0.7872,-0.8119,-0.8613,-0.8854,-0.9155,-0.9738,-1.0475,-1.1138,-1.1635,-1.2001,-1.2242,-1.2483,-1.2479,-1.2599,-1.2599,-1.296,-1.3204,-1.3467,-1.3854,-1.4144,-1.447,-1.491,-1.5169,-1.5356,-1.5769,-1.6234,-1.6748,-1.6748,-1.7001,-1.7216,-1.628,-1.6754,-1.7479,-1.7811,-1.8699,-1.9664,-2.0472,-2.1265,-2.2098,-2.2793,-2.358,-2.4515,-2.6048,-2.6412,-2.7481,-3.012,-3.1871,-3.3351,-3.4747,-3.6179,-3.7433,-3.8447,-4.0324,-4.168,-4.2178,-4.3638,-4.4273,-4.3652,-4.4598,-4.558,-4.6491,-4.6668,-4.7264,-4.8187,-4.837,-4.8759,-4.9219,-4.9868,-5.0397,0.7275,0.6934,0.6638,0.6782,0.6747,0.6847,0.7231,0.0,0.0,0.0,0.4734,0.3796,0.2834,0.1603,0.0,-0.037,-0.1368,-0.2251,-0.3251,-0.3671,-0.3952,-0.4562,-0.48,-0.5032,-0.5373,-0.5451,-0.5546,-0.5546,-0.5914,-0.616,-0.616,-0.6653,-0.6898,-0.7018,-0.7141,-0.7385,-0.775,-0.7508,-0.7508,-0.7872,-0.7872,-0.7872,-0.7872,-0.7872,-0.8119,-0.8613,-0.9095,-0.9509,-0.9961,-1.0819,-1.1366,-1.1877,-1.2238,-1.2479,-1.2719,-1.284,-1.296,-1.3204,-1.3444,-1.3808,-1.4086,-1.4538,-1.4856,-1.5049,-1.5403,-1.5828,-1.6058,-1.6193,-1.6808,-1.7389,-1.7389,-1.7574,-1.7596,-1.6937,-1.7474,-1.8204,-1.822,-1.932,-2.0483,-2.112,-2.2002,-2.2758,-2.3517,-2.4151,-2.5175,-2.6696,-2.7982,-2.9579,-3.195,-3.3447,-3.4754,-3.5853,-3.7297,-3.8617,-3.986,-4.1612,-4.2937,-4.3652,-4.4781,-4.5317,-4.5107,-4.5738,-4.6388,-4.7106,-4.7437,-4.7934,-4.8702,-4.8867,-4.9215,-4.9599,-5.0181,-5.0687,0.739,0.7149,0.707,0.7203,0.7243,0.7206,0.7103,0.6676,0.6007,0.5016,0.0,0.3271,0.1721,0.0617,-0.037,-0.1356,-0.2219,-0.3207,-0.4439,-0.4242,-0.438,-0.5306,-0.5489,-0.563,-0.5925,-0.5916,-0.5916,-0.5916,-0.616,-0.616,-0.5916,-0.6532,-0.6775,-0.6403,-0.6653,-0.7021,-0.7385,-0.7388,-0.7508,-0.7872,-0.7872,-0.7872,-0.7872,-0.7872,-0.8363,-0.8976,-0.9579,-0.994,-1.0304,-1.1031,-1.1514,-1.1877,-1.2479,-1.2719,-1.284,-1.3204,-1.3444,-1.3808,-1.4172,-1.4426,-1.4715,-1.5034,-1.5115,-1.5166,-1.5365,-1.6092,-1.6789,-1.6789,-1.7468,-1.8162,-1.8162,-1.7978,-1.7788,-1.7765,-1.8445,-1.8867,-1.8354,-1.9518,-2.0909,-2.156,-2.232,-2.3062,-2.4301,-2.4835,-2.567,-2.7409,-3.0181,-3.2437,-3.3802,-3.4706,-3.5665,-3.68,-3.8392,-3.9881,-4.1098,-4.2695,-4.3967,-4.4669,-4.5561,-4.6314,-4.7004,-4.6916,-4.7264,-4.8049,-4.837,-4.8867,-4.9356,-4.9517,-4.96,-4.9629,-5.0514,-5.0976,0.8011,0.7524,0.7093,0.7315,0.7225,0.6979,0.6031,0.5495,0.511,0.4698,0.4184,0.315,0.1229,-0.0123,-0.148,-0.2714,-0.333,-0.3821,-0.4315,-0.4575,-0.4827,-0.53,-0.5438,-0.5565,-0.5919,-0.5916,-0.5916,-0.5916,-0.5916,-0.5916,-0.5916,-0.6283,-0.6526,-0.6403,-0.6526,-0.6773,-0.7385,-0.7143,-0.7266,0.0,-0.7872,-0.7872,-0.7872,-0.8122,-0.861,-0.9217,-0.9579,-0.994,-1.0304,-1.1031,-1.1635,-1.2238,-1.284,-1.3204,-1.3564,-1.3813,-1.4052,-1.4172,-1.4411,-1.4886,-1.5408,-1.5566,-1.607,-1.6484,-1.6786,-1.7094,-1.7416,-1.7788,-1.8354,-1.8944,-1.9194,-1.9253,-1.9256,-1.9025,-1.8896,-1.8846,-1.8987,-2.0033,-2.1331,-2.219,-2.31,-2.3954,-2.4803,-2.5747,-2.7194,-2.9536,-3.1799,-3.3652,-3.488,-3.6167,-3.7249,-3.7984,-3.9331,-4.0649,-4.168,-4.3009,-4.4314,-4.5425,-4.6506,-4.7207,-4.7709,-4.7366,-4.7624,-4.8453,-4.8537,-4.8949,-4.9517,-4.9597,-4.9931,-5.0595,-5.0935,-5.1426,0.7844,0.7394,0.6995,0.7138,0.6851,0.6376,0.5708,0.5067,0.445,0.4216,0.3318,0.2041,0.0368,-0.1233,-0.259,-0.3453,-0.3946,-0.4315,-0.4807,-0.5054,-0.5177,-0.5421,-0.5421,-0.5421,-0.5425,-0.5548,-0.5669,-0.5669,-0.5794,-0.5916,-0.5916,-0.6039,-0.616,-0.616,-0.616,-0.653,-0.7143,-0.7023,-0.7266,-0.7872,-0.7872,-0.8116,-0.8363,-0.861,-0.8854,-0.9095,-0.9822,-1.0183,-1.0425,-1.1394,-1.1872,-1.2234,-1.3084,-1.3688,-1.3933,-1.4172,-1.4411,-1.4644,-1.5007,-1.5449,-1.5811,-1.6271,-1.6635,-1.6886,-1.7262,-1.7723,-1.8172,-1.8423,-1.912,-1.9839,-2.0094,-2.0039,-1.9937,-2.0018,-1.9742,-1.9382,-1.9548,-2.0628,-2.1951,-2.3067,-2.3972,-2.4932,-2.5999,-2.7463,-2.9155,-3.1388,-3.3003,-3.4692,-3.6329,-3.7406,-3.8355,-3.9449,-4.043,-4.1515,-4.2847,-4.377,-4.4752,-4.6091,-4.7004,-4.7609,-4.8118,-4.8218,-4.8469,-4.88,-4.9113,-4.9421,-4.9757,-5.0136,-5.0602,-5.1151,-5.1492,-5.1931,0.7598,0.7325,0.7081,0.6967,0.6428,0.5822,0.5599,0.4765,0.3923,0.3285,0.2006,0.0597,-0.0736,-0.2343,-0.3701,-0.4066,-0.4313,-0.4807,-0.5298,-0.5421,-0.5427,-0.5317,-0.5308,-0.5181,-0.495,-0.5184,-0.5298,-0.5298,-0.5548,-0.5671,-0.5671,-0.5671,-0.5671,-0.5671,-0.5671,-0.6041,-0.6778,-0.6778,-0.7143,-0.7872,-0.7872,-0.8238,-0.8854,-0.8854,-0.8976,-0.9098,-0.9943,-1.0304,-1.0425,-1.1756,-1.2234,-1.2354,-1.3324,-1.3933,-1.4177,-1.4296,-1.465,-1.5235,-1.5601,-1.5985,-1.6289,-1.6794,-1.6995,-1.7058,-1.7364,-1.8083,-1.8802,-1.8976,-1.9814,-2.067,-2.0849,-2.0708,-2.0537,-2.0846,-2.067,-2.0493,-2.0226,-2.1342,-2.2699,-2.3968,-2.5079,-2.6126,-2.7525,-2.9259,-3.1083,-3.2848,-3.4042,-3.5576,-3.7856,-3.8372,-3.9196,-4.0971,-4.1597,-4.2457,-4.3899,-4.4541,-4.5384,-4.6594,-4.7351,-4.8019,-4.8453,-4.9113,-4.9372,-4.9225,-4.9693,-4.9995,-5.0089,-5.0739,-5.1252,-5.1533,-5.2148,-5.2503,0.8873,0.8415,0.7645,0.6689,0.6265,0.5938,0.4927,0.4427,0.3695,0.1876,0.0714,-0.0362,-0.1598,-0.3206,-0.4561,-0.4681,-0.5051,-0.5298,-0.5421,-0.5421,-0.5324,-0.5142,-0.4971,-0.4957,-0.5018,-0.4969,-0.4933,-0.4933,-0.5058,-0.5058,-0.5058,-0.5058,-0.5058,-0.5058,-0.5058,-0.5302,-0.6041,-0.6283,-0.6771,-0.7508,-0.775,-0.8119,-0.8491,-0.8735,-0.9217,-0.97,-1.0065,-1.0425,-1.0789,-1.1752,-1.2359,-1.2719,-1.3449,-1.3933,-1.4172,-1.4411,-1.5007,-1.5596,-1.5963,-1.6334,-1.6828,-1.7239,-1.7565,-1.7709,-1.8115,-1.872,-1.9348,-1.9978,-2.0501,-2.1155,-2.179,-2.1728,-2.1523,-2.1619,-2.1691,-2.1811,-2.1496,-2.2481,-2.3769,-2.4722,-2.6532,-2.8217,-2.9278,-3.0537,-3.189,-3.342,-3.4823,-3.634,-3.8477,-3.9092,-4.0122,-4.1769,-4.219,-4.2873,-4.4223,-4.5187,-4.5987,-4.6844,-4.7849,-4.8687,-4.9113,-4.9597,-4.9916,-5.0058,-5.012,-5.0386,-5.0743,-5.0984,-5.1401,-5.1915,-5.2487,-5.2922,0.8508,0.8046,0.7314,0.6465,0.6049,0.5599,0.4702,0.4116,0.316,0.095,-0.0241,-0.1223,-0.2464,-0.3726,-0.4608,-0.4566,-0.4931,-0.5179,-0.5179,-0.5179,-0.4959,-0.4782,-0.464,-0.4633,-0.4409,-0.4638,-0.4607,-0.4566,-0.481,-0.4935,-0.4935,-0.4935,-0.4935,-0.4935,-0.4935,-0.5181,-0.5916,-0.6039,-0.6528,-0.7385,-0.775,-0.8119,-0.8732,-0.8854,-0.9095,-0.9579,-1.0304,-1.0789,-1.1152,-1.2118,-1.2719,-1.3093,-1.3811,-1.4275,-1.4545,-1.5147,-1.5595,-1.5963,-1.6436,-1.6854,-1.728,-1.7645,-1.7917,-1.8245,-1.8756,-1.9207,-1.9727,-2.0268,-2.1167,-2.2039,-2.2305,-2.2486,-2.2578,-2.2781,-2.2813,-2.2933,-2.336,-2.386,-2.4655,-2.6546,-2.8517,-3.0007,-3.0567,-3.1974,-3.329,-3.4325,-3.5802,-3.7322,-3.8921,-3.9647,-4.0668,-4.198,-4.2666,-4.3519,-4.4676,-4.5566,-4.6447,-4.7407,-4.824,-4.9,-4.9597,-5.023,-5.0695,-5.0771,-5.0771,-5.0864,-5.1048,-5.1655,-5.2076,-5.2362,-5.2991,-5.3129,0.8307,0.7775,0.7321,0.6887,0.6286,0.563,0.4957,0.4164,0.2854,0.0362,-0.0858,-0.1984,-0.3226,-0.4118,-0.4499,-0.4324,-0.4562,-0.4687,-0.4564,-0.4578,-0.449,-0.418,-0.4187,-0.4065,-0.3825,-0.3928,-0.4143,-0.4097,-0.4327,-0.4566,-0.4566,-0.4566,-0.4689,-0.4689,-0.4689,-0.4933,-0.5548,-0.5916,-0.653,-0.7385,-0.775,-0.8238,-0.8854,-0.8818,-0.9064,-0.9579,-1.0425,-1.1031,-1.1394,-1.2359,-1.296,-1.3458,-1.4101,-1.4585,-1.4986,-1.5571,-1.6025,-1.6521,-1.6926,-1.7373,-1.7726,-1.8083,-1.8428,-1.8693,-1.9246,-1.9791,-2.0219,-2.0745,-2.1768,-2.2763,-2.2845,-2.3127,-2.3592,-2.3849,-2.4134,-2.4367,-2.5235,-2.546,-2.6284,-2.8486,-3.0267,-3.1426,-3.1881,-3.3226,-3.4571,-3.5404,-3.6861,-3.8291,-3.9465,-4.03,-4.1198,-4.236,-4.3314,-4.4167,-4.5216,-4.6016,-4.6887,-4.7819,-4.8656,-4.9325,-4.9979,-5.0711,-5.1183,-5.1258,-5.1333,-5.1408,-5.1466,-5.2164,-5.259,-5.2731,-5.3247,-5.3175,0.8546,0.8378,0.8199,0.8011,0.7578,0.687,0.5728,0.4465,0.2897,0.0368,-0.1245,-0.252,-0.3779,-0.4237,-0.4319,-0.3944,-0.4192,-0.4193,-0.3702,-0.3621,-0.342,-0.3217,-0.3223,-0.3111,-0.3153,-0.308,-0.3029,-0.3026,-0.3359,-0.3579,-0.3579,-0.3826,-0.395,-0.395,-0.395,-0.4071,-0.4439,-0.579,-0.6771,-0.7385,-0.775,-0.8238,-0.8851,-0.8717,-0.9207,-1.0304,-1.0668,-1.1031,-1.1394,-1.2359,-1.3084,-1.3688,-1.4062,-1.4906,-1.5903,-1.5693,-1.6351,-1.7349,-1.7451,-1.7726,-1.8083,-1.8648,-1.8997,-1.9359,-1.972,-2.042,-2.1183,-2.1606,-2.2385,-2.3192,-2.3512,-2.407,-2.4601,-2.4996,-2.5719,-2.642,-2.6672,-2.7685,-2.889,-3.0033,-3.1516,-3.2675,-3.2975,-3.4336,-3.5587,-3.6449,-3.7619,-3.8896,-4.0287,-4.1097,-4.2065,-4.341,-4.3979,-4.4741,-4.579,-4.6624,-4.7377,-4.7904,-4.8918,-4.9741,-5.0198,-5.065,-5.1124,-5.1499,-5.1647,-5.1908,-5.2236,-5.2307,-5.2607,-5.3162,-5.2806,-5.3103,0.8515,0.8312,0.8091,0.7773,0.7524,0.6995,0.5872,0.4868,0.3574,0.1451,0.0246,-0.0623,-0.1636,-0.3138,-0.4116,-0.3954,-0.3576,-0.3207,-0.2961,-0.3125,-0.33,-0.335,-0.3123,-0.3016,-0.3032,-0.3006,-0.2963,-0.3033,-0.314,-0.3118,-0.321,-0.3209,-0.3332,-0.3332,-0.3579,-0.3948,-0.4438,-0.5546,-0.6252,-0.667,-0.7153,-0.7834,-0.8592,-0.8631,-0.9271,-1.0165,-1.0624,-1.1148,-1.1997,-1.2719,-1.3449,-1.4067,-1.4811,-1.5309,-1.585,-1.6275,-1.6851,-1.7499,-1.7762,-1.8311,-1.8894,-1.912,-1.9461,-2.0046,-2.0507,-2.0974,-2.1391,-2.2057,-2.2958,-2.3889,-2.4468,-2.4908,-2.5414,-2.6108,-2.7276,-2.8452,-2.9136,-2.9719,-3.0413,-3.1622,-3.2675,-3.3391,-3.3563,-3.5072,-3.6252,-3.6238,-3.8051,-3.9737,-4.0338,-4.1558,-4.2736,-4.3668,-4.4712,-4.5656,-4.6476,-4.7091,-4.7849,-4.8754,-4.9259,-4.9916,-5.065,-5.1048,-5.1424,-5.1721,-5.1778,-5.198,-5.2307,-5.2537,-5.2652,-5.2606,-5.2714,-5.246,0.8488,0.8377,0.8133,0.8087,0.7856,0.7438,0.632,0.5535,0.4369,0.2399,0.1578,0.086,-0.0249,-0.1619,-0.2605,-0.2841,-0.259,-0.2348,-0.2361,-0.2645,-0.2813,-0.2595,-0.2502,-0.239,-0.2257,-0.2512,-0.2747,-0.2694,-0.2665,0.0,-0.2612,-0.2846,-0.3085,-0.3208,-0.3332,-0.3825,-0.4438,-0.53,-0.5884,-0.6064,-0.6791,-0.7472,-0.8225,-0.8388,-0.9152,-1.0158,-1.0568,-1.1343,-1.2234,-1.284,-1.3569,-1.4426,-1.4937,-1.5549,-1.6078,-1.6749,-1.7327,-1.7842,-1.8349,-1.8777,-1.9359,-1.9584,-2.004,-2.05,-2.1089,-2.1325,-2.1705,-2.2498,-2.3581,-2.4574,-2.5046,-2.5888,-2.6857,-2.7884,-2.8974,-3.0182,-3.1151,-3.1311,-3.1681,-3.2758,-3.3695,-3.4229,-3.4302,-3.5715,-3.6838,-3.6783,-3.8649,-4.0364,-4.1032,-4.2222,-4.341,-4.4233,-4.5264,-4.621,-4.6829,-4.7452,-4.8118,-4.9031,-4.9437,-5.0089,-5.0912,-5.1291,-5.1573,-5.1794,-5.1908,-5.1993,-5.2014,-5.263,-5.274,-5.2416,-5.2452,-5.1764,0.0,0.0,0.0,0.8849,0.8811,0.8354,0.7106,0.6383,0.5418,0.3108,0.2523,0.1934,0.0245,0.0365,0.0364,-0.0492,-0.1356,-0.1984,-0.1891,-0.1918,-0.1686,-0.1053,-0.1068,-0.1077,-0.1077,-0.1729,-0.211,-0.2109,-0.2054,-0.202,-0.2019,-0.2612,-0.3085,-0.3455,-0.3455,-0.3825,-0.4315,-0.5053,-0.5544,-0.5912,-0.6528,-0.7258,-0.7856,-0.7985,-0.896,-1.029,-1.0506,-1.1244,-1.2234,-1.2599,-1.3444,-1.4655,-1.465,-1.5496,-1.6863,-1.6973,-1.7642,-1.8439,-1.9109,-1.9352,-1.9468,-2.004,-2.0493,-2.0838,-2.1089,-2.166,-2.223,-2.2925,-2.3991,-2.5119,-2.5494,-2.709,-2.8838,-3.0147,-3.0859,-3.1556,-3.2571,-3.2671,-3.2818,-3.3497,-3.4591,-3.532,-3.5041,-3.6244,-3.7476,-3.8284,-3.9397,-4.0769,-4.2262,-4.3122,-4.3979,-4.5032,-4.5761,-4.6388,-4.6916,-4.7609,-4.8218,-4.862,-4.9421,-5.0168,-5.0912,-5.1275,-5.1573,-5.1794,-5.2092,-5.2014,-5.1525,-5.2449,-5.2758,-5.2527,-5.1953,-5.1055,0.8741,0.0,0.0,0.0,0.0,0.0,0.7765,0.7298,0.6467,0.5219,0.4574,0.4027,0.2855,0.2494,0.2137,0.1312,0.0482,-0.0123,-0.0,-0.0255,-0.0389,-0.0263,0.0267,0.0404,0.0269,-0.0268,-0.08,0.0,-0.1308,-0.1549,-0.2023,-0.2117,-0.2469,-0.2714,-0.2961,-0.3331,-0.3702,-0.4316,-0.4902,-0.5452,-0.5816,-0.6623,-0.7616,-0.8028,-0.891,-1.0148,-1.0576,-1.1471,-1.2599,-1.2964,-1.3688,-1.4655,-1.5126,-1.5872,-1.6629,-1.715,-1.7762,-1.8529,-1.9037,-1.9584,-2.004,-2.0493,-2.096,-2.1432,-2.1774,-2.2222,-2.2898,-2.3857,-2.4953,-2.6045,-2.7305,-2.8901,-3.0255,-3.0382,-3.1421,-3.2457,-3.3243,-3.3845,-3.436,-3.4602,-3.5191,-3.579,-3.5943,-3.7309,-3.8411,-3.8703,-4.0495,-4.2052,-4.2639,-4.3709,-4.4676,-4.5307,-4.6046,-4.6756,-4.7366,-4.7794,-4.837,-4.9275,-4.9517,-5.0089,-5.0912,-5.1124,-5.1408,-5.1778,-5.1614,-5.1586,-5.173,-5.2152,-5.1881,-5.0997,-5.0522,-5.0513,0.0,0.0,0.0,0.8659,0.0,0.0,0.823,0.7699,0.7148,0.6466,0.575,0.4993,0.4385,0.3711,0.3272,0.2707,0.2018,0.1452,0.1256,0.1271,0.1423,0.147,0.1471,0.1475,0.1357,0.1081,0.0671,-0.0,-0.0264,-0.0651,-0.1391,-0.1743,-0.2099,-0.2343,-0.2714,-0.3208,-0.3455,-0.407,-0.4648,-0.5058,-0.5418,-0.6087,-0.7171,-0.771,-0.8598,-0.9965,-1.0718,-1.1679,-1.2847,-1.3211,-1.3889,-1.465,-1.5121,-1.5828,-1.6537,-1.7355,-1.8064,-1.8765,-1.9468,-2.004,-2.0493,-2.096,-2.1432,-2.1782,-2.223,-2.2777,-2.343,-2.4424,-2.5801,-2.7338,-2.891,-3.0138,-3.0966,-3.1305,-3.2217,-3.3254,-3.3818,-3.4836,-3.5522,-3.5522,-3.6059,-3.6645,-3.6882,-3.8136,-3.9216,-3.9497,-4.1077,-4.2541,-4.3026,-4.4101,-4.4968,-4.558,-4.6314,-4.7019,-4.7709,-4.8049,-4.862,-4.9437,-4.9741,-5.0214,-5.094,-5.1242,-5.1484,-5.1553,-5.1516,-5.148,-5.1273,-5.1659,-5.1478,-5.0676,-5.0086,-5.02,0.0,0.0,0.0,0.0,0.8712,0.0,0.8426,0.8024,0.7496,0.6937,0.6228,0.5469,0.5054,0.431,0.38,0.374,0.3171,0.2752,0.2254,0.2653,0.3099,0.3403,0.2685,0.2273,0.219,0.2174,0.1888,0.1077,0.0929,0.052,-0.0507,-0.137,-0.1975,-0.1973,-0.259,-0.3085,-0.3455,-0.4063,-0.452,-0.4821,-0.5169,-0.5839,-0.6698,-0.7285,-0.8284,-0.972,-1.082,-1.1954,-1.2987,-1.3355,-1.3994,-1.4685,-1.5012,-1.5709,-1.6655,-1.7584,-1.8409,-1.8991,-1.9924,-2.05,-2.0845,-2.1591,-2.1835,-2.1956,-2.2557,-2.3233,-2.394,-2.5023,-2.6805,-2.8858,-3.0052,-3.0733,-3.1305,-3.2457,-3.3243,-3.3931,-3.4513,-3.5609,-3.6375,-3.6592,-3.7108,-3.7594,-3.7776,-3.8885,-3.9956,-4.0566,-4.151,-4.2625,-4.36,-4.4383,-4.5138,-4.5747,-4.6462,-4.7264,-4.7964,-4.837,-4.8867,-4.9275,-4.9821,-5.0352,-5.1043,-5.1459,-5.1497,-5.1194,-5.1614,-5.1369,-5.0496,-5.0975,-5.1145,-5.0959,-5.0304,-5.0092,0.0,0.0,0.0,0.0,0.0,0.0,0.8739,0.8174,0.7493,0.7157,0.6616,0.5951,0.5375,0.4826,0.417,0.3733,0.3356,0.3098,0.2837,0.2658,0.2852,0.3183,0.2565,0.2314,0.2571,0.2317,0.2181,0.1887,0.1973,0.1294,-0.0,-0.0752,-0.1482,-0.1976,-0.2345,-0.2714,-0.3085,-0.3657,-0.435,-0.5176,-0.5349,-0.6131,-0.7285,-0.7749,-0.8639,-1.008,-1.0588,-1.1531,-1.2776,-1.3143,-1.4062,-1.5266,-1.5433,-1.6076,-1.702,-1.7948,-1.8532,-1.8991,-1.9924,-2.0622,-2.1247,-2.1859,-2.2412,-2.2921,-2.3652,-2.4246,-2.5061,-2.6533,-2.812,-2.9437,-3.0246,-3.1189,-3.2113,-3.2903,-3.3706,-3.4624,-3.5587,-3.6254,-3.6904,-3.8056,-3.8068,-3.8137,-3.9059,-3.9943,-4.0805,-4.1584,-4.2765,-4.3723,-4.4209,-4.4862,-4.5595,-4.6031,-4.6697,-4.7392,-4.8202,-4.865,-4.9144,-4.9517,-4.9332,-4.9674,-5.0864,-5.0913,-5.0971,-5.1177,-5.0693,-5.0289,-4.9872,-4.9708,-4.9829,-5.0149,-5.0011,-5.0171,0.0,0.0,0.0,0.9092,0.0,0.0,0.0,0.7944,0.7399,0.7174,0.6516,0.5841,0.5138,0.4586,0.4054,0.3647,0.3392,0.313,0.3087,0.2957,0.2807,0.2891,0.2654,0.2546,0.2719,0.245,0.1894,0.12,0.0394,0.0,0.0,-0.1132,-0.199,-0.2346,-0.2715,-0.3083,-0.3453,-0.4038,-0.4734,-0.5538,-0.585,-0.6485,-0.7429,-0.7951,-0.8835,-1.009,-1.1078,-1.2088,-1.3103,-1.3835,-1.4756,-1.593,-1.5807,-1.6307,-1.7138,-1.8071,-1.8765,-1.9461,-2.0263,-2.096,-2.1805,-2.2429,-2.2944,-2.3454,-2.4085,-2.5086,-2.6277,-2.7621,-2.8928,-3.002,-3.049,-3.1526,-3.2571,-3.3264,-3.4155,-3.5168,-3.6036,-3.6796,-3.7761,-3.8988,-3.9117,-3.9337,-4.0147,-4.1058,-4.1868,-4.2528,-4.3519,-4.4317,-4.4676,-4.523,-4.5776,-4.6476,-4.7061,-4.7749,-4.8552,-4.9062,-4.9311,-4.9426,-4.9737,-5.0137,-5.0814,-5.1221,-5.1429,-5.1296,-5.0659,-5.0178,-4.986,-4.9649,-4.9691,-5.0057,-5.0114,-5.0285,0.0,0.0,0.0,0.0,0.0,0.7812,0.0,0.0,0.0,0.6864,0.6231,0.546,0.474,0.4181,0.3767,0.3504,0.3222,0.304,0.3083,0.2974,0.2734,0.2722,0.2597,0.2627,0.2719,0.2431,0.1737,0.053,-0.1182,-0.1684,-0.0761,-0.189,-0.2748,-0.2715,-0.3209,-0.3577,-0.3944,-0.4668,-0.5233,-0.5875,-0.635,-0.6947,-0.7531,-0.8372,-0.9258,-1.0203,-1.1569,-1.2651,-1.3559,-1.4543,-1.5519,-1.6342,-1.6256,-1.6537,-1.7256,-1.8188,-1.9113,-1.9924,-2.0608,-2.1417,-2.2358,-2.3059,-2.3606,-2.429,-2.4879,-2.5988,-2.7357,-2.8298,-2.9459,-3.0499,-3.083,-3.1988,-3.314,-3.384,-3.4825,-3.5817,-3.6592,-3.7453,-3.8396,-3.9519,-3.9955,-4.0377,-4.0984,-4.1802,-4.2517,-4.3067,-4.3746,-4.4507,-4.4952,-4.5326,-4.5941,-4.6916,-4.7302,-4.7882,-4.898,-4.9247,-4.9316,-4.9244,-5.0213,-5.0714,-5.0713,-5.1706,-5.2083,-5.1741,-5.1042,-5.0549,-5.0276,-5.0224,-5.0195,-5.0246,-5.0397,-5.0471,0.0,0.0,0.0,0.0,0.8797,0.0,0.0,0.0,0.7086,0.5999,0.0,0.5131,0.4237,0.0,0.0,0.3567,0.3025,0.2694,0.2701,0.2319,0.2279,0.2849,0.2571,0.2372,0.2782,0.2382,0.2124,0.2013,-0.0519,-0.2422,-0.3346,-0.2887,-0.2842,-0.3208,-0.3455,-0.3577,-0.3944,-0.4862,-0.5508,-0.6016,-0.6955,-0.7755,-0.8406,-0.902,-0.9957,-1.1125,-1.1439,-1.2341,-1.3721,-1.4431,-1.5266,-1.6216,-1.6425,-1.7015,-1.7966,-1.8648,-1.9461,-2.027,-2.0974,-2.1888,-2.3004,-2.3729,-2.4976,-2.6386,-2.6635,-2.7288,-2.8077,-2.8728,-2.9686,-3.0626,-3.1441,-3.2789,-3.4134,-3.4925,-3.5927,-3.6808,-3.788,-3.8303,-3.8724,-4.0185,-4.0402,-4.0795,-4.1782,-4.186,-4.1909,-4.2653,-4.3384,-4.4024,-4.4579,-4.5503,-4.6476,-4.7452,-4.7235,-4.7598,-4.9147,-4.8968,-4.8968,-4.9441,-4.9882,-5.04,-5.0862,-5.1764,-5.2482,-5.2906,-5.1579,-5.0944,-5.1176,-5.1176,-5.0887,-5.0359,-5.0492,-5.0675,0.0,0.0,0.0,0.0,0.0,0.0,0.7211,0.0,0.634,0.0,0.0,0.0,0.0,0.0,0.0,0.0,0.2874,0.2775,0.2577,0.2176,0.2,0.2306,0.2248,0.0,0.1819,0.1692,0.117,0.0389,-0.0772,-0.1909,-0.3021,-0.2882,-0.3112,-0.3948,-0.3947,-0.4438,-0.5295,-0.5752,-0.6319,-0.7123,-0.7655,-0.8233,-0.8967,-0.9528,-1.0398,-1.1356,-1.1997,-1.3003,-1.4277,-1.4878,-1.5822,-1.6891,-1.725,-1.7614,-1.8083,-1.8887,-1.9802,-2.0857,-2.1262,-2.236,-2.3755,-2.4596,-2.5822,-2.6901,-2.7478,-2.8029,-2.8618,-2.9213,-3.0265,-3.1325,-3.1893,-3.3233,-3.4692,-3.5256,-3.6145,-3.7131,-3.7986,-3.8514,-3.9245,-4.0491,-4.0624,-4.0788,-4.185,-4.1854,-4.2167,-4.318,-4.3834,-4.4594,-4.5608,-4.6226,-4.6783,-4.7196,-4.7213,-4.7461,-4.8169,-4.8215,-4.8425,-4.9174,-5.0275,-5.1256,-5.2054,-5.2758,-5.3085,-5.2963,-5.2409,-5.2062,-5.1795,-5.1581,-5.1315,-5.1059,-5.1098,-5.1039,0.881,0.0,0.0,0.0,0.0,0.0,0.0,0.0,0.0,0.0,0.0,0.0,0.0,0.0,0.0,0.0,0.0,0.2751,0.2464,0.204,0.1851,0.1911,0.196,0.1504,0.0,0.0256,-0.0,-0.0636,-0.1019,-0.1644,-0.2609,-0.2999,-0.3618,-0.4562,-0.4684,-0.5298,-0.6403,-0.6648,-0.7109,-0.7774,-0.8321,-0.8778,-0.938,-1.0087,-1.0813,-1.159,-1.2671,-1.3674,-1.4748,-1.5591,-1.6537,-1.7602,-1.8077,-1.82,-1.8311,-1.9127,-2.035,-2.1489,-2.1546,-2.271,-2.4277,-2.5242,-2.6347,-2.7287,-2.8134,-2.8655,-2.9183,-2.9884,-3.0966,-3.2008,-3.2561,-3.3899,-3.5245,-3.5697,-3.658,-3.756,-3.8092,-3.8933,-3.9775,-4.0681,-4.0715,-4.076,-4.1653,-4.1678,-4.1983,-4.3265,-4.3924,-4.4718,-4.583,-4.6473,-4.6841,-4.6796,-4.6946,-4.7071,-4.7479,-4.758,-4.8153,-4.9417,-5.083,-5.2031,-5.3076,-5.3584,-5.3577,-5.3207,-5.3192,-5.2957,-5.2589,-5.2049,-5.168,-5.1586,-5.1433,-5.1144,0.0,0.0,0.0,0.7726,0.0,0.0,0.0,0.0,0.6132,0.0,0.0,0.0,0.0,0.0,0.0,0.0,0.0,0.0,0.0,0.202,0.1819,0.188,0.1966,0.101,0.0,-0.1897,-0.1399,0.0,-0.1257,-0.224,-0.2899,-0.361,-0.4196,-0.4803,-0.5544,-0.6039,-0.6403,-0.738,-0.7755,-0.7532,-0.895,-0.9494,-0.9411,-1.0798,-1.1749,-1.2285,-1.3613,-1.451,-1.5229,-1.6408,-1.712,-1.7602,-1.8532,-1.8874,-1.8997,-1.9577,-2.0815,-2.2158,-2.1736,-2.2838,-2.4678,-2.5622,-2.6593,-2.7632,-2.8947,-2.9376,-2.9613,-3.1321,-3.2008,-3.2446,-3.3674,-3.4792,-3.5916,-3.6483,-3.7548,-3.8409,-3.8736,-3.9453,-4.0275,-4.0782,-4.0827,-4.0944,-4.1377,-4.0896,-4.0976,-4.2382,-4.3165,-4.3791,-4.4266,-4.5679,-4.6501,-4.631,-4.619,-4.6499,-4.7385,-4.7288,-4.82,-5.0697,-5.1406,-5.2388,-5.36,-5.3849,-5.4028,-5.4124,-5.3628,-5.3435,-5.3567,-5.2805,-5.2236,-5.1773,-5.1205,-5.0962,0.0,0.0,0.6338,0.652,0.0,0.0,0.0,0.0,0.0,0.0,0.0,0.0,0.0,0.0,0.0,0.0,0.0,0.0,0.0,0.1151,0.0465,0.0235,0.0483,0.0369,-0.0621,0.0,0.0,0.0,-0.2235,0.0,-0.3357,-0.3711,-0.4559,-0.591,-0.6158,-0.665,-0.7755,-0.8159,-0.8594,-0.9071,-0.9422,-0.9964,-1.0595,-1.1121,-1.1863,-1.2859,-1.3504,-1.4634,-1.5811,-1.6238,-1.7083,-1.8169,-1.8679,-1.9293,-1.9809,-2.004,-2.0931,-2.1978,-2.3032,-2.4016,-2.4897,-2.5822,-2.6733,-2.7755,-2.8564,-2.9508,-3.0234,-3.0849,-3.1993,-3.3243,-3.3797,-3.5135,-3.6592,-3.7155,-3.7998,-3.8841,-3.9556,-4.0173,-4.0666,-4.1084,-4.104,-4.1018,-4.1036,-4.1026,-4.1552,-4.2979,-4.3472,-4.4126,-4.5435,-4.6184,-4.636,-4.5877,-4.619,-4.6469,-4.6675,-4.8236,-4.9702,-5.1111,-5.2113,-5.2977,-5.3483,-5.37,-5.398,-5.4367,-5.419,-5.424,-5.4531,-5.3439,-5.3147,-5.3528,-5.2445,-5.1688,0.621,0.5848,0.0,0.5718,0.5588,0.0,0.5667,0.0,0.0,0.0,0.0,0.0,0.0,0.0,0.0,0.0,0.0,0.0,0.0,-0.035,-0.1531,-0.1531,-0.1075,-0.0849,-0.1354,-0.2209,-0.2699,0.0,0.0,0.0,0.0,-0.4303,-0.5161,-0.6472,-0.675,-0.7508,-0.8613,-0.8957,-0.9287,-0.9734,-1.0203,-1.0623,-1.1135,-1.1722,-1.244,-1.3203,-1.401,-1.499,-1.6155,-1.6576,-1.7535,-1.8616,-1.899,-1.9644,-2.027,-2.0507,-2.1247,-2.2253,-2.3991,-2.4712,-2.5042,-2.5948,-2.6888,-2.7817,-2.8899,-2.9766,-3.0528,-3.1451,-3.2569,-3.3716,-3.4425,-3.5685,-3.6916,-3.7584,-3.8409,-3.9233,-3.9878,-4.0681,-4.1301,-4.1209,-4.1477,-4.1613,-4.1313,-4.1596,-4.2278,-4.3199,-4.3745,-4.4452,-4.565,-4.6192,-4.6222,-4.5633,-4.6347,-4.7132,-4.7551,-4.9112,-5.0469,-5.1422,-5.2639,-5.3366,-5.3567,-5.3766,-5.4093,-5.4557,-5.4575,-5.4762,-5.4992,-5.3719,-5.3581,-5.4472,-5.3157,-5.2501]}]]